GFSGBSN_sfc_thetae_000.txt.gz
Theta_e
317 317 317 317 316 316 316 317 317 318 318 318 318 318 318 319 319 319 319 319 319 319 319 319 320 320 322 324 321 335 344 339 322 321 323 320 317 315 312 316 321 320 322 324 326 326 325
316 316 317 316 316 316 316 316 317 317 317 317 317 318 318 318 318 318 319 318 318 319 321 320 320 319 323 318 329 326 322 320 319 325 322 320 317 318 316 317 317 321 323 324 324 324 324
315 315 316 316 315 315 315 316 317 317 317 317 317 317 317 317 318 318 318 317 317 320 321 320 319 323 324 321 330 330 323 323 325 327 320 321 322 319 318 317 322 319 316 322 322 322 322
315 315 315 315 315 315 315 316 316 316 316 316 316 316 317 317 317 317 316 315 317 321 320 320 320 326 320 329 330 328 328 327 329 327 324 324 324 322 321 323 321 319 318 313 320 321 322
314 314 314 314 314 314 314 314 314 315 315 315 315 315 315 316 316 316 315 315 316 322 322 323 325 325 318 327 323 326 329 324 324 323 323 325 326 321 321 316 314 316 310 312 312 321 319
313 313 313 314 314 313 314 314 314 314 314 314 315 315 315 315 315 314 313 316 319 322 324 329 327 321 324 320 323 325 328 327 321 319 318 319 318 316 316 314 307 309 310 312 310 315 318
313 313 313 313 313 313 313 313 313 313 313 313 314 314 314 314 314 313 315 321 322 324 324 319 319 314 320 326 327 324 325 323 321 317 310 314 310 308 312 316 315 314 313 311 313 317 316
313 312 313 313 313 313 313 313 313 313 313 313 313 313 313 313 312 312 314 319 315 315 309 316 317 317 319 325 319 321 324 316 315 311 313 310 306 312 315 315 313 313 311 311 315 318 316
312 313 312 313 312 312 312 312 312 312 312 312 312 313 312 312 311 316 319 317 320 320 310 312 316 315 316 318 317 319 320 317 314 312 312 308 311 314 311 310 309 310 310 311 311 314 317
313 313 312 312 312 312 311 311 312 312 312 312 312 312 311 309 312 319 315 322 320 321 304 307 312 314 316 316 311 319 322 318 315 311 313 312 315 312 309 308 309 305 313 312 311 309 305
313 312 311 311 310 312 311 311 311 311 311 311 311 311 310 308 313 314 319 322 320 318 294 310 312 319 316 311 313 313 324 319 312 313 313 310 311 310 308 309 310 307 314 312 312 309 308
312 311 310 310 310 310 311 311 311 311 311 311 311 310 309 315 316 319 320 319 317 302 294 307 312 310 310 311 311 314 317 322 320 315 315 313 317 313 311 313 313 313 311 311 311 307 300
311 311 310 310 309 311 311 311 311 310 310 310 310 309 308 315 313 319 319 313 301 296 308 305 307 310 309 308 309 310 309 311 309 306 306 312 311 314 314 310 313 311 308 301 299 299 299
311 310 310 309 309 310 311 311 311 310 310 310 308 308 312 314 317 319 315 305 296 304 304 310 309 309 306 309 309 309 308 307 312 312 308 306 304 311 314 310 308 309 308 302 297 298 301
310 310 310 309 309 310 311 311 310 309 309 308 306 316 315 317 318 317 308 298 299 304 309 307 308 304 305 307 308 308 308 308 312 313 308 306 306 316 315 315 312 309 305 311 305 306 303
310 310 310 310 310 310 311 311 310 309 308 307 309 312 314 320 320 313 304 298 303 308 309 307 302 305 302 305 306 307 308 312 311 315 316 312 305 312 314 316 315 310 313 304 304 298 297
309 309 309 311 310 311 311 311 309 308 307 306 312 311 316 320 318 308 298 300 304 308 309 305 304 303 305 304 307 306 307 312 313 313 316 313 310 309 313 310 308 308 306 309 309 306 300
308 309 310 311 311 311 311 310 308 307 306 309 310 304 319 320 304 305 301 304 304 307 310 307 306 305 304 306 306 307 306 310 316 314 311 314 310 305 308 313 314 312 310 310 304 306 307
308 308 309 310 311 311 310 310 308 307 306 305 307 309 319 317 300 301 304 304 306 306 307 306 304 306 308 306 304 308 309 314 315 313 312 314 308 302 305 310 313 309 310 311 313 314 308
307 308 308 309 310 310 310 309 308 307 306 306 308 302 309 312 310 304 304 305 304 308 307 308 306 307 305 305 308 306 309 312 315 314 328 320 313 308 302 307 311 308 309 310 311 306 306
307 307 308 309 309 310 310 309 308 307 306 307 310 305 310 303 304 305 305 306 306 303 308 308 305 305 305 303 304 305 309 313 313 318 316 316 313 312 310 312 312 312 311 310 307 309 305
307 307 307 307 309 310 309 309 308 307 305 309 306 305 309 306 309 308 305 303 305 308 307 305 303 306 307 306 307 306 308 311 311 315 315 317 312 313 309 312 311 309 312 311 309 309 309
307 306 306 307 308 308 308 308 308 306 305 308 310 310 307 303 305 304 306 307 305 308 310 309 309 307 305 308 311 313 314 318 317 314 315 316 313 313 306 310 310 306 310 311 311 312 311
306 306 307 306 306 306 306 306 307 306 305 305 309 306 303 299 302 303 306 307 307 309 307 310 310 310 313 319 319 316 315 316 318 318 320 319 319 313 307 310 299 311 319 317 315 314 315
306 306 305 305 305 305 305 305 306 307 306 304 308 305 304 300 303 305 307 305 312 312 308 310 311 315 319 315 309 307 307 309 311 315 317 319 318 310 305 304 308 313 315 312 315 312 318
304 305 305 304 304 304 305 305 305 306 305 304 308 307 304 301 301 307 305 308 307 306 309 310 315 318 315 310 307 302 300 304 303 307 315 316 324 311 309 302 299 312 319 324 322 308 326
303 303 303 303 304 304 304 305 305 305 305 303 305 309 303 300 305 307 302 303 309 308 308 312 312 312 314 306 303 301 301 309 303 303 306 309 311 307 305 304 308 319 323 324 307 314 328
302 303 303 303 304 304 304 304 304 305 304 303 304 309 302 299 303 306 307 305 307 307 304 311 312 312 310 303 302 302 303 306 309 311 311 308 308 305 308 305 301 322 319 312 326 330 332
302 303 304 304 303 303 304 304 304 304 304 303 302 307 306 299 301 306 307 308 307 310 308 312 308 312 312 307 308 310 307 309 310 304 315 307 313 311 314 313 327 332 330 333 333 331 333

GFSGBSN_sfc_thetae_003.txt.gz
Theta_e
316 316 316 316 316 316 317 317 318 318 318 318 318 318 319 319 319 319 320 319 318 319 319 320 319 320 318 319 321 336 345 342 325 318 315 320 315 311 306 308 311 312 317 321 325 322 321
316 316 316 316 315 316 317 317 317 317 317 317 317 317 318 318 318 318 318 318 318 318 320 321 320 319 318 316 326 330 323 318 315 314 318 319 314 314 310 309 309 316 316 316 321 321 322
315 315 315 315 315 315 316 316 316 316 316 317 317 317 317 317 318 318 318 317 317 317 320 321 320 320 320 319 323 322 314 314 315 316 318 319 318 312 312 311 316 317 312 313 316 319 318
314 314 314 315 314 314 315 315 315 316 316 316 316 316 316 316 316 317 317 316 316 317 321 320 320 320 315 328 325 322 316 317 318 322 322 319 319 314 313 318 317 311 310 304 316 319 321
314 314 314 314 314 314 314 315 315 315 315 315 315 315 315 315 316 316 315 315 316 318 322 322 320 318 315 327 320 323 322 320 321 321 318 322 318 314 316 309 304 307 301 308 312 319 318
313 313 313 314 314 314 314 314 314 314 315 315 315 315 315 315 315 315 314 317 319 320 322 326 325 315 321 319 320 322 322 324 318 315 314 316 311 307 307 303 297 303 306 310 309 317 315
313 313 313 313 313 313 313 314 314 314 314 314 314 314 314 314 314 313 311 312 313 318 317 317 315 313 317 324 324 320 320 321 318 312 304 310 302 300 305 307 309 308 306 310 313 319 313
313 312 312 313 312 312 313 313 313 313 313 313 313 313 313 313 312 312 310 310 309 309 302 312 313 314 318 321 317 319 321 313 312 305 308 303 299 306 311 311 309 306 303 303 309 316 313
313 313 312 312 312 312 312 312 312 312 312 312 312 313 312 311 311 313 313 313 315 312 302 308 312 311 313 314 316 316 317 313 309 306 307 301 305 311 309 306 304 302 301 303 304 309 310
312 312 311 311 311 312 312 312 312 312 312 312 312 312 311 308 309 311 312 316 314 314 297 304 306 310 313 312 308 320 319 313 309 306 308 306 311 310 308 305 304 296 306 306 307 302 296
313 312 311 311 310 311 312 312 312 312 312 312 312 312 310 308 307 308 313 314 313 309 290 310 308 316 312 308 309 311 320 313 307 308 308 305 309 308 306 306 307 301 307 305 308 301 299
312 311 311 310 310 311 311 312 312 311 311 311 311 310 309 310 309 314 317 315 309 296 290 305 308 306 305 307 309 311 313 316 315 309 310 310 314 311 307 310 309 310 305 304 303 299 291
311 311 311 310 309 310 311 311 311 311 311 310 309 308 306 309 306 311 311 308 293 291 306 302 303 306 304 303 305 306 309 307 304 299 300 307 308 311 312 306 308 306 300 291 291 291 290
311 311 311 311 311 311 311 311 311 310 309 309 307 307 309 310 309 311 310 299 290 300 299 306 305 306 302 305 305 305 303 304 309 306 301 299 298 308 311 306 302 302 299 292 287 290 295
310 310 310 311 311 311 311 311 310 309 308 307 306 309 311 312 312 310 303 292 294 300 305 304 304 301 301 304 304 304 302 301 304 307 299 299 302 313 313 311 307 301 298 303 295 295 293
309 309 309 310 311 311 311 311 310 309 308 307 303 306 308 316 315 308 299 294 298 304 305 304 298 302 298 301 299 299 302 306 306 309 310 304 298 308 313 311 309 303 305 295 295 289 287
309 309 309 310 311 311 311 310 309 308 307 306 306 306 315 316 313 302 293 296 300 305 305 302 300 299 300 300 301 300 302 307 310 309 311 307 301 303 308 304 303 303 299 298 298 296 289
308 308 310 310 310 310 311 309 308 307 306 306 306 300 313 316 300 300 296 300 300 303 305 304 304 302 299 301 299 301 302 306 311 311 305 307 303 298 302 309 311 305 302 300 294 295 298
307 308 309 310 310 310 310 309 308 307 305 300 300 305 315 313 296 297 300 300 302 302 303 302 302 304 303 299 297 304 306 311 312 310 306 310 298 294 297 303 306 303 304 303 303 302 295
307 308 307 309 309 310 310 309 308 307 306 302 302 301 306 310 307 302 300 300 300 305 303 305 303 304 301 298 301 301 303 310 311 314 325 314 304 297 294 301 306 305 306 305 300 296 295
307 308 307 308 310 310 309 308 308 307 306 303 305 304 306 300 302 304 304 301 299 300 307 305 302 303 300 296 298 299 304 305 309 316 308 308 301 303 306 309 308 309 307 308 302 301 299
307 307 307 307 308 309 308 308 308 307 305 305 302 300 303 301 305 303 303 303 302 302 304 304 301 303 302 298 302 300 302 302 304 309 303 307 303 305 305 310 310 308 310 311 310 307 303
307 307 307 306 306 306 306 307 307 306 304 303 305 306 302 300 300 299 301 302 303 305 304 307 307 303 301 303 310 309 307 307 308 311 307 307 303 304 298 308 308 301 309 311 310 311 306
305 306 306 305 305 305 305 306 307 306 305 300 304 302 299 295 298 299 303 305 305 307 306 309 308 306 310 315 314 312 308 307 311 311 312 311 312 304 299 304 295 306 314 314 313 316 317
304 304 305 305 304 304 305 306 305 306 305 300 303 301 299 295 299 300 303 302 306 308 308 309 311 314 313 310 304 302 301 302 307 310 309 313 310 303 300 299 305 308 314 310 310 314 319
303 303 303 304 303 304 304 305 304 305 305 301 303 307 300 296 297 301 301 304 301 302 305 310 315 314 311 305 301 295 295 300 300 303 308 308 311 306 301 296 295 305 315 319 317 306 323
302 303 303 303 304 305 304 305 304 304 304 301 300 307 300 295 300 301 300 298 303 303 303 308 309 311 310 301 297 296 296 303 298 298 299 301 302 302 301 299 303 312 318 320 303 308 325
302 303 304 304 303 303 303 304 304 304 303 300 298 307 299 294 296 300 302 300 301 303 302 306 307 307 307 299 298 298 297 300 300 304 304 300 297 297 300 297 295 328 322 314 321 326 326
302 302 302 302 303 303 303 303 303 303 302 302 297 302 302 295 295 301 301 303 303 304 299 309 305 306 310 305 304 304 301 305 305 299 314 304 308 306 306 306 319 323 325 328 330 326 325

GFSGBSN_sfc_thetae_006.txt.gz
Theta_e
316 316 316 316 316 316 317 317 317 317 317 318 318 318 318 319 319 319 319 319 319 318 319 321 321 321 317 315 318 334 347 345 323 316 311 311 314 310 303 305 308 305 309 314 319 322 321
315 315 315 315 315 315 316 316 317 317 317 317 317 317 317 318 318 318 318 318 318 318 318 320 321 320 317 311 328 335 324 319 314 313 313 316 314 312 307 306 305 309 312 314 316 318 321
314 315 315 315 315 315 316 316 316 316 317 316 316 316 317 317 317 318 318 318 317 317 318 320 320 320 318 310 323 326 313 310 312 311 314 318 317 309 309 308 314 314 309 311 315 317 316
314 314 314 315 314 315 315 316 316 316 316 316 316 316 316 316 316 317 317 316 316 317 318 320 320 318 306 325 319 317 311 312 312 311 316 320 319 310 308 314 314 310 307 303 313 316 318
313 314 313 314 313 314 315 315 315 315 315 315 315 315 315 316 316 316 315 315 318 318 319 321 316 316 313 326 317 316 314 315 314 313 316 322 314 309 312 306 301 302 298 306 309 316 316
313 313 313 313 313 314 314 314 314 314 314 315 315 315 315 315 315 315 314 316 319 318 321 324 324 309 313 318 318 318 317 319 316 313 312 312 308 304 303 300 294 299 303 307 307 312 314
313 313 312 313 313 313 313 313 313 313 314 314 314 314 314 314 314 313 309 306 304 306 315 314 308 311 315 322 321 317 320 318 316 309 301 306 301 297 301 304 306 305 303 306 310 314 312
312 312 312 312 312 312 312 312 313 313 313 313 313 314 314 313 312 312 306 306 305 306 299 308 311 312 317 317 312 315 317 311 310 303 305 301 297 304 308 308 306 305 301 301 308 315 311
312 312 312 312 311 312 312 312 313 312 312 313 313 313 312 312 311 309 307 308 312 307 298 304 308 307 308 311 309 313 313 311 308 305 304 299 303 309 306 304 302 299 297 299 300 306 311
312 311 311 311 311 311 311 312 312 312 312 312 312 312 311 309 306 304 306 311 310 308 293 300 303 307 309 310 305 321 316 312 307 304 305 303 309 307 306 303 302 294 303 303 302 300 294
311 311 311 311 311 311 312 312 312 312 311 311 311 311 310 309 300 304 309 309 310 305 284 306 304 312 308 306 307 310 318 310 304 305 304 303 306 305 305 306 306 300 304 302 303 298 295
311 312 312 311 311 311 312 312 312 311 310 310 310 310 309 305 301 307 308 305 304 293 286 303 305 304 302 304 306 309 311 312 311 306 306 305 311 308 307 310 308 308 303 300 299 294 290
310 310 311 311 311 311 312 311 311 310 310 309 309 308 306 306 297 303 304 301 290 287 301 299 298 300 299 300 302 304 306 303 301 296 296 303 305 309 311 304 305 303 294 288 288 289 289
310 310 310 310 311 311 312 311 310 310 309 308 307 307 305 306 303 304 302 295 285 296 296 302 301 300 297 300 300 302 303 301 304 302 298 296 296 305 310 304 300 298 295 290 285 287 292
309 309 309 310 311 311 311 311 310 309 308 307 306 301 302 305 307 303 298 288 289 295 302 300 299 296 296 301 301 300 300 303 306 305 298 295 298 309 310 308 305 299 295 298 292 290 290
309 309 310 309 310 311 311 310 309 309 308 306 298 299 300 309 307 302 294 291 295 301 301 299 294 297 293 297 296 296 297 302 305 310 304 300 295 305 309 309 306 302 302 293 291 287 285
308 308 310 309 310 310 311 310 309 308 307 306 299 298 306 310 304 296 289 291 297 301 302 298 295 295 295 296 295 293 296 303 305 305 307 300 297 302 305 301 298 300 296 294 294 292 288
307 308 308 308 309 310 310 309 308 307 305 300 295 293 305 308 295 291 291 297 300 299 302 300 299 297 296 297 294 295 297 301 307 307 301 303 297 295 299 305 308 303 300 296 291 289 293
308 309 307 308 310 310 309 308 307 306 305 298 290 295 307 303 289 289 293 297 299 299 299 299 298 300 299 295 291 297 301 307 307 308 301 302 295 291 295 298 303 300 300 298 295 294 292
308 308 308 308 308 309 308 308 307 306 306 296 293 294 299 300 297 294 293 295 297 304 301 301 299 298 296 294 294 294 297 304 307 308 322 310 295 295 292 295 301 301 305 303 297 292 292
307 307 307 307 307 307 308 308 307 306 306 298 296 295 296 291 295 296 296 299 297 297 301 302 299 298 296 289 293 293 297 300 304 312 306 303 296 299 301 306 307 306 305 307 299 298 296
306 307 307 306 306 306 307 307 307 306 305 300 294 293 295 293 296 294 295 296 299 301 299 298 296 301 298 293 295 294 295 294 299 307 303 302 295 303 300 306 308 306 308 309 309 309 301
305 306 306 306 305 305 305 306 306 305 301 293 297 297 294 294 291 290 292 299 301 303 305 307 306 299 298 298 300 304 302 301 301 305 304 305 298 297 295 304 304 299 304 308 309 310 307
304 304 305 305 304 305 305 305 305 305 302 293 294 294 291 290 292 294 297 302 301 303 302 308 307 301 306 309 308 306 302 303 303 302 306 305 304 298 295 297 290 303 310 311 311 318 314
303 303 304 304 303 304 305 305 304 305 305 293 294 294 291 287 294 296 297 298 300 301 302 306 309 311 311 303 298 295 296 296 300 303 301 307 304 300 296 294 300 306 309 309 308 313 317
303 303 303 304 305 305 304 304 304 304 304 294 293 298 293 288 290 296 295 297 293 293 298 305 311 311 305 298 296 290 291 294 294 297 301 302 306 301 297 294 292 302 311 316 313 305 320
302 303 304 304 304 304 304 304 304 304 304 296 293 297 292 287 292 293 293 291 296 295 296 301 302 305 304 294 292 291 292 298 293 293 295 294 296 296 297 296 300 317 324 319 298 300 320
303 303 302 303 303 303 303 303 303 303 303 297 292 295 292 287 289 294 297 294 295 295 294 298 301 301 303 296 292 292 292 294 294 299 297 294 292 294 296 294 294 320 322 311 314 322 322
302 302 303 302 302 302 302 302 302 302 302 300 289 296 296 289 289 294 296 298 298 298 294 297 300 299 306 298 299 298 299 299 298 296 305 298 302 300 300 299 315 318 321 323 327 322 322

GFSGBSN_sfc_thetae_009.txt.gz
Theta_e
315 315 315 315 316 315 316 317 317 317 317 318 318 318 318 318 319 319 319 319 319 319 318 320 321 321 315 310 313 336 351 348 323 313 309 310 311 309 303 303 305 303 306 311 313 316 319
315 314 315 315 315 316 316 316 317 317 317 317 317 317 317 317 317 318 318 318 319 318 318 320 321 320 315 304 328 332 324 314 312 310 310 312 313 311 306 305 304 307 309 312 312 317 320
314 314 314 314 314 315 316 316 316 316 316 316 316 316 316 316 317 317 318 317 317 317 318 319 320 319 314 304 326 323 315 311 310 311 312 315 316 308 307 306 311 312 308 310 312 314 314
314 314 314 313 313 314 315 315 315 315 315 315 315 315 315 316 316 316 316 316 316 318 317 319 320 316 307 319 322 316 308 308 310 307 312 317 317 310 306 311 310 307 305 302 310 314 316
314 314 313 313 313 314 314 314 314 314 314 314 314 315 315 315 315 315 314 315 319 319 319 320 315 314 309 323 313 314 311 312 311 308 310 320 312 306 310 304 300 300 296 301 307 314 314
313 312 313 313 313 313 313 313 314 314 314 314 314 314 315 314 314 314 313 314 319 319 320 322 323 306 307 316 316 313 312 317 314 311 310 309 305 302 301 299 291 297 300 302 303 310 311
312 312 312 312 312 313 313 313 313 313 313 313 314 314 313 313 313 313 309 305 302 302 312 305 303 306 311 318 319 314 316 316 314 307 299 303 299 295 300 302 304 303 301 300 305 309 309
312 311 312 312 312 312 312 312 312 312 312 312 312 313 313 312 312 312 306 306 303 303 298 306 309 312 315 315 308 313 317 310 308 302 303 299 295 301 305 304 304 302 299 298 302 308 309
312 312 311 311 311 312 312 312 312 312 311 311 312 312 311 311 310 306 302 305 308 305 297 302 305 305 305 309 307 308 313 309 306 302 301 297 301 307 305 302 301 298 295 296 297 301 306
312 312 312 311 311 311 311 312 311 311 311 311 311 311 310 309 303 302 305 308 304 304 291 297 301 305 306 308 304 315 313 310 306 303 303 301 306 306 304 302 301 294 301 300 299 297 292
311 311 311 311 311 311 311 311 311 311 311 311 310 310 310 309 299 301 308 305 304 303 283 302 302 309 303 305 307 311 314 309 304 303 302 300 304 303 303 304 303 300 303 300 301 296 293
311 311 311 311 311 311 311 312 311 310 310 310 310 309 308 303 299 303 306 302 302 290 284 299 303 301 300 301 304 309 309 310 309 304 303 302 308 306 305 308 307 307 301 297 296 292 288
310 310 310 310 310 310 311 311 311 310 309 309 309 308 305 305 295 301 301 299 289 285 298 297 296 297 296 298 301 304 304 302 299 293 293 300 302 305 309 303 304 299 293 287 287 286 287
309 310 310 309 309 310 311 311 310 309 309 308 307 307 306 305 302 302 299 294 283 292 293 300 299 297 296 298 298 301 301 299 302 299 296 294 294 303 307 304 301 296 294 289 284 285 288
309 309 310 309 310 310 311 310 309 309 308 307 306 298 299 303 305 301 296 285 286 292 299 298 297 294 294 298 298 298 299 299 301 302 297 293 296 307 307 306 304 298 293 295 289 287 288
308 308 309 308 309 310 311 310 309 308 308 306 297 297 299 305 305 300 293 288 290 298 299 297 292 294 291 294 294 294 295 300 302 305 302 298 294 300 306 306 305 301 301 293 289 286 284
308 309 308 308 310 310 310 309 308 308 307 305 298 296 303 305 301 296 289 289 295 299 300 296 293 293 293 294 293 291 294 300 304 304 305 298 295 299 302 299 298 297 294 292 292 290 287
308 308 308 309 308 309 309 308 307 306 305 299 291 294 303 301 291 289 289 294 298 296 297 297 297 296 294 295 292 293 294 299 304 303 300 300 294 293 296 303 305 299 297 294 291 289 290
308 308 307 308 307 308 308 308 307 305 305 299 289 292 304 301 288 287 291 296 296 295 296 295 296 298 297 293 290 294 298 304 303 301 297 299 293 290 293 296 300 298 298 294 293 290 290
308 308 308 307 306 307 307 308 307 305 305 295 293 293 297 298 293 293 293 296 297 303 299 299 298 298 296 293 292 293 295 301 302 303 321 307 292 293 292 294 299 300 303 299 294 291 290
306 306 307 306 306 306 307 307 307 306 305 297 295 292 294 290 293 293 294 298 298 298 300 299 297 297 295 289 291 292 295 297 302 309 306 299 294 295 296 299 304 304 305 303 298 296 294
305 305 306 305 305 305 306 307 306 305 304 296 292 292 293 291 292 291 292 293 297 300 298 297 298 303 300 291 293 293 293 292 295 302 303 303 293 300 297 304 305 304 305 307 306 305 300
304 304 305 304 304 304 305 306 306 305 299 292 293 294 293 292 290 290 290 296 299 301 303 305 305 301 298 300 303 300 297 300 300 301 300 303 296 294 292 301 301 295 303 306 306 309 307
304 304 304 304 303 304 304 304 304 305 300 291 291 292 290 287 291 292 296 298 298 301 299 305 306 301 305 311 307 301 300 298 299 300 303 303 299 295 293 294 288 298 307 309 311 316 313
303 303 304 304 306 305 304 304 304 305 304 292 291 292 289 286 291 293 294 295 296 297 299 303 308 309 308 302 297 294 294 293 297 301 299 303 301 297 294 292 297 303 306 307 304 310 312
303 303 304 305 304 304 304 304 304 304 304 292 291 293 291 287 287 295 292 295 290 291 296 302 308 306 305 295 294 288 288 291 293 295 298 302 302 300 296 292 291 299 314 323 314 301 314
303 303 303 303 303 303 303 303 303 303 303 294 291 292 290 286 290 290 290 290 293 292 293 297 299 303 305 292 291 289 290 296 293 292 291 292 293 293 296 294 299 313 319 321 298 299 315
303 302 302 303 302 302 302 303 302 302 302 295 291 292 290 285 287 292 295 291 293 293 291 294 298 299 301 295 292 290 290 292 292 299 296 293 291 292 294 293 293 318 317 306 311 319 317
302 302 303 303 302 302 302 302 302 302 302 299 288 293 293 287 287 292 294 296 296 296 292 291 296 297 302 295 295 295 296 297 295 294 302 297 300 296 296 298 313 319 321 320 322 320 317

GFSGBSN_sfc_thetae_012.txt.gz
Theta_e
315 315 315 315 315 316 317 317 317 317 317 317 317 317 318 317 318 318 318 318 318 318 318 319 321 321 313 307 310 337 349 349 327 313 307 309 308 307 301 302 305 302 305 308 311 311 315
314 315 314 314 315 315 316 316 316 316 317 316 316 316 316 317 317 318 317 318 318 317 318 318 320 320 313 298 326 337 328 314 312 307 307 313 312 310 305 304 303 306 307 309 311 312 317
314 314 313 314 314 315 315 315 316 316 316 316 315 315 316 316 316 317 317 317 316 317 318 318 320 319 310 301 325 321 312 309 309 307 308 312 315 307 305 303 308 310 306 309 310 312 312
313 313 313 313 314 314 315 315 315 315 315 315 315 315 315 315 315 316 316 315 316 321 318 319 320 314 302 317 323 317 309 306 307 306 310 314 315 309 304 308 308 303 302 301 308 312 313
313 313 313 313 314 314 314 314 314 314 314 314 314 314 314 315 315 315 314 314 318 319 320 320 312 311 301 320 312 312 309 308 308 306 307 316 310 304 308 301 297 298 295 299 305 311 312
313 312 313 313 313 313 313 313 313 313 313 313 313 313 314 314 314 314 313 314 320 319 319 322 322 300 304 313 314 311 309 313 311 309 308 307 304 300 300 298 288 293 297 299 300 306 308
312 312 312 313 313 313 313 313 312 312 312 313 313 313 313 313 313 313 309 303 301 301 305 301 302 302 308 315 317 310 313 313 310 306 298 301 297 294 298 301 302 301 299 298 301 305 305
313 312 312 312 312 312 312 312 312 312 312 311 311 312 312 312 312 312 304 302 302 302 296 303 305 310 313 313 306 311 316 309 307 301 301 298 294 300 302 302 301 300 298 297 300 303 306
312 312 311 312 311 312 312 312 311 311 311 311 311 312 311 311 311 305 301 303 305 300 295 300 304 303 305 308 305 308 313 309 304 301 299 296 299 304 303 301 299 296 294 295 296 299 303
311 311 311 311 311 311 312 311 311 311 310 311 311 311 310 309 301 302 304 307 302 302 289 294 299 303 304 305 303 313 313 309 305 302 301 300 304 304 302 301 300 293 300 300 298 295 290
309 310 310 310 310 310 310 311 311 310 310 310 310 310 309 309 300 297 305 303 302 301 283 300 299 306 302 304 306 307 312 308 302 302 301 298 302 301 302 303 302 300 302 299 299 294 292
309 311 310 310 310 310 310 311 311 310 310 310 310 308 308 302 297 301 303 302 300 288 283 297 301 298 298 299 302 308 307 309 308 302 301 301 306 304 303 306 305 307 299 296 293 291 287
309 310 311 310 309 310 310 311 310 309 309 309 308 308 305 305 294 301 301 298 288 283 295 295 294 296 294 295 298 304 303 301 299 293 292 298 300 303 306 301 302 298 292 287 287 286 286
308 309 309 309 309 310 310 310 309 309 309 308 306 306 304 304 301 300 297 293 281 290 291 298 296 295 293 296 297 301 301 298 300 298 294 292 292 300 305 301 299 295 294 288 283 284 288
308 310 309 308 310 310 309 309 309 308 308 307 305 296 297 300 305 299 294 284 284 289 297 296 295 292 292 295 297 296 298 298 301 301 295 292 294 304 305 303 303 296 292 294 288 287 287
308 309 308 309 309 309 309 309 309 308 307 306 296 296 298 303 303 298 291 286 287 295 297 295 290 292 289 293 292 292 295 298 300 303 300 296 292 299 304 303 303 299 300 292 289 284 283
308 309 308 309 308 308 308 308 308 307 306 305 295 296 301 302 298 295 287 287 293 298 297 293 291 291 291 292 291 290 292 298 302 301 302 297 294 295 300 297 297 295 293 291 290 289 286
308 308 308 308 308 308 308 307 307 306 305 299 291 293 302 299 291 287 288 292 297 295 295 294 295 294 293 293 290 291 292 296 301 300 298 297 292 291 295 300 303 298 296 293 290 288 289
307 307 308 307 306 307 307 307 306 305 305 296 291 293 303 299 285 286 290 293 295 294 295 294 294 296 295 292 290 293 296 301 301 298 296 298 292 288 291 294 298 298 296 293 291 291 291
306 306 307 306 306 306 307 307 306 305 305 295 294 293 296 296 292 292 293 295 296 302 298 298 295 295 293 291 292 292 294 299 301 300 321 305 290 291 288 292 296 299 301 297 294 290 289
305 305 305 305 304 305 306 306 306 305 305 296 294 291 292 289 292 292 293 296 296 296 301 298 296 297 297 289 289 291 294 296 300 308 302 298 294 291 293 296 301 303 303 299 297 296 296
305 304 304 304 304 304 305 305 306 305 303 294 292 291 291 290 291 288 292 292 296 299 298 296 298 302 300 291 291 292 294 291 294 299 300 300 293 298 295 303 304 303 305 304 304 301 299
305 304 303 304 304 305 304 304 305 304 298 291 291 292 292 290 289 288 290 294 298 299 301 303 303 300 298 297 305 306 301 297 294 298 298 301 295 293 291 299 300 294 302 304 305 306 305
304 303 304 305 305 305 304 304 304 304 299 289 289 290 289 285 290 291 295 296 297 297 296 302 303 300 304 308 305 303 298 297 296 298 300 300 296 293 291 293 287 296 305 308 309 314 313
303 303 304 304 304 304 303 304 304 304 304 291 290 290 288 285 290 291 293 293 295 295 296 301 305 306 305 301 295 293 292 292 297 299 298 300 300 296 292 290 296 302 308 311 305 305 313
304 304 303 303 304 303 303 303 303 303 304 292 290 290 290 286 285 293 290 292 290 289 294 299 304 303 304 294 293 288 287 289 291 293 299 300 300 299 295 291 290 299 313 321 317 300 314
303 303 302 303 304 303 302 302 303 303 303 292 290 289 289 285 288 290 288 289 291 290 290 294 296 300 301 291 289 289 289 294 291 290 290 290 292 292 295 294 298 308 318 319 299 301 317
302 302 302 303 303 302 303 302 302 302 302 294 290 290 288 284 285 291 293 290 290 291 290 292 295 297 297 294 292 289 289 291 293 297 294 291 290 290 293 292 292 316 316 305 308 316 318
302 302 302 303 303 304 303 303 303 303 302 297 287 292 291 286 286 289 292 294 294 294 291 289 294 295 299 294 293 293 294 295 294 293 301 296 297 293 295 296 309 319 319 321 321 318 318

GFSGBSN_sfc_thetae_015.txt.gz
Theta_e
315 315 314 315 315 316 316 317 317 317 317 317 317 317 317 318 318 318 319 319 319 318 318 319 320 322 319 312 311 339 349 345 332 319 312 315 314 314 309 310 311 309 310 314 316 316 316
314 314 314 314 315 315 316 316 316 316 316 316 316 316 316 316 317 317 318 318 318 317 318 318 319 321 319 305 328 337 331 321 319 314 312 318 317 316 312 310 310 312 314 315 317 317 321
314 314 314 314 315 315 315 316 316 316 315 315 315 315 315 315 316 316 317 317 316 318 319 319 319 320 314 307 328 327 319 316 316 313 312 316 320 316 314 310 315 315 312 315 317 319 318
313 313 313 314 314 314 314 315 315 315 314 314 314 314 314 315 315 315 316 315 316 321 319 319 320 321 308 321 326 320 315 314 314 315 317 320 321 317 313 315 313 310 311 308 314 318 319
312 313 313 314 314 314 314 314 314 314 314 314 313 313 314 314 315 315 314 314 318 320 321 321 322 321 306 323 318 320 316 311 312 312 314 317 318 314 315 309 306 308 305 307 311 316 315
313 313 313 313 313 313 313 313 313 313 313 312 313 313 314 314 314 314 313 314 321 322 322 323 323 310 311 315 317 315 315 315 314 312 313 313 313 312 312 308 298 302 304 307 307 311 312
313 312 312 312 313 313 313 312 312 312 312 312 312 313 313 313 313 312 313 313 311 309 310 309 309 305 309 317 319 314 315 317 315 313 308 309 306 303 306 309 308 307 305 304 309 311 309
312 311 312 311 312 312 312 312 312 311 311 311 311 312 312 312 312 312 310 309 307 307 304 307 307 309 314 316 311 314 319 315 313 307 307 307 303 307 307 308 307 305 304 305 308 307 312
311 310 311 311 311 311 311 311 311 311 310 310 311 311 311 311 310 309 307 309 309 309 303 304 307 307 309 313 309 313 317 314 311 307 306 305 305 307 307 306 305 305 304 304 304 306 311
310 311 310 310 310 310 311 311 310 310 310 310 310 310 310 309 305 305 309 310 307 308 300 300 304 307 309 311 308 316 319 315 310 308 306 307 309 306 306 305 306 304 307 306 305 304 301
310 312 311 310 310 310 311 310 310 309 310 310 310 310 309 309 305 302 308 307 308 306 291 302 305 311 308 308 310 311 318 314 309 307 308 304 306 306 306 307 308 306 307 306 305 304 303
309 310 310 309 310 311 310 310 310 310 310 310 309 308 308 306 303 305 307 307 308 296 290 300 305 304 304 307 308 311 313 315 313 308 307 307 310 309 308 310 310 310 305 304 304 304 298
309 311 309 309 310 309 309 309 309 309 309 309 308 307 306 307 302 306 306 306 295 290 300 299 300 302 302 303 305 309 308 308 306 302 303 305 306 309 310 306 309 307 305 301 297 297 297
309 310 309 309 309 308 308 308 309 309 308 308 306 306 306 307 308 307 306 301 289 293 294 301 300 300 300 302 304 307 306 305 307 306 303 300 298 306 309 308 306 306 307 301 293 295 298
309 309 308 309 308 308 308 308 308 308 307 306 305 304 304 307 308 307 305 293 293 293 299 298 300 298 299 301 302 304 306 305 308 309 303 301 300 308 309 310 310 304 303 305 301 298 299
308 309 309 308 307 308 308 308 308 308 307 306 302 305 306 309 309 307 302 292 294 297 300 299 296 298 297 298 300 302 303 305 306 309 312 306 299 305 308 310 308 308 308 302 302 296 294
308 308 309 308 307 307 308 308 307 307 306 305 302 304 307 308 306 305 296 295 297 301 300 298 297 297 298 297 299 299 300 303 306 306 310 308 305 302 306 306 305 304 304 303 304 301 298
307 307 307 307 305 306 307 307 307 305 304 302 300 299 309 306 300 297 297 297 298 299 300 300 300 299 298 299 298 299 299 302 305 307 304 308 305 301 302 307 308 307 306 307 302 300 301
306 306 306 305 305 306 307 307 306 305 305 300 301 302 310 306 293 296 297 297 299 300 300 300 299 300 301 299 298 299 300 305 305 306 307 307 304 299 300 304 306 306 306 306 306 306 303
305 305 304 305 304 305 306 307 306 305 305 303 303 299 304 304 300 298 299 299 298 305 302 302 301 303 302 300 300 299 300 303 304 306 320 312 306 305 298 301 306 305 304 305 307 303 303
305 304 304 305 305 305 306 307 306 305 304 303 302 298 298 296 299 299 299 300 300 300 305 306 301 305 303 299 298 298 300 302 304 313 310 311 306 304 305 303 304 306 308 304 306 309 305
305 304 303 305 307 306 305 305 306 305 303 302 300 299 298 298 296 297 298 299 300 301 303 302 303 305 305 301 300 300 304 303 302 308 310 310 306 306 305 307 304 303 307 309 308 307 307
304 304 304 306 305 304 304 304 305 304 301 299 298 300 299 293 296 296 298 300 300 303 305 307 305 305 304 304 308 310 310 310 308 304 306 310 310 306 301 306 307 303 308 310 311 313 312
304 304 304 304 304 304 304 304 305 304 299 298 297 298 298 292 297 297 298 299 300 300 301 304 306 306 309 312 312 309 307 308 308 307 306 309 310 307 303 306 297 306 313 313 313 317 318
304 304 304 304 304 303 304 304 303 304 302 299 298 298 298 293 296 296 297 298 300 301 300 302 306 310 312 310 304 303 302 303 305 307 306 309 311 307 302 302 304 308 315 317 314 314 322
305 303 303 303 304 303 303 303 303 303 302 299 297 297 298 295 293 296 296 298 299 299 300 303 308 308 313 306 302 298 295 300 299 302 307 308 311 308 305 299 296 308 320 324 323 308 321
303 303 303 304 302 302 303 304 303 303 301 299 297 296 297 293 295 297 297 298 299 299 299 301 301 307 310 304 300 298 298 301 297 299 302 303 305 302 304 304 307 312 321 323 307 309 324
302 303 302 303 302 303 303 303 303 303 302 299 297 298 296 292 294 295 298 297 298 299 298 300 301 305 306 303 301 300 299 302 303 306 303 302 301 300 303 302 300 321 321 313 320 329 326
302 302 302 303 304 304 303 303 303 303 302 299 295 298 297 294 294 295 297 299 298 299 299 299 302 303 309 304 304 304 303 305 304 301 310 304 307 304 305 306 318 323 323 326 326 324 327

GFSGBSN_sfc_thetae_018.txt.gz
Theta_e
315 315 315 316 316 316 317 317 317 317 317 317 317 317 317 317 318 319 319 319 320 319 319 319 320 322 325 318 317 340 347 344 333 321 321 319 317 317 314 316 316 316 316 318 320 321 322
314 314 315 316 316 316 316 316 316 316 316 316 316 316 316 317 317 318 318 319 318 319 319 319 320 321 322 310 328 336 327 324 322 319 322 322 319 319 316 315 315 317 318 319 321 322 323
314 314 315 315 315 315 315 316 315 316 315 315 315 315 315 316 316 317 318 317 317 318 321 320 320 324 317 313 330 329 325 322 321 318 320 323 323 319 318 315 318 318 316 320 321 321 319
314 314 314 314 314 315 315 315 315 315 314 314 314 314 314 315 315 316 316 315 317 321 320 320 322 326 312 324 331 324 324 321 321 320 324 326 324 319 317 319 317 315 316 313 318 319 320
314 313 313 314 314 314 314 314 314 314 313 313 313 313 314 314 315 315 314 315 319 320 321 323 327 324 311 326 322 326 324 318 317 319 322 321 322 318 317 312 309 311 308 308 311 318 316
313 314 313 314 313 313 313 313 313 313 313 313 313 314 314 314 314 314 313 315 322 322 325 327 327 317 316 314 321 324 324 319 314 317 318 318 317 314 313 310 303 305 306 308 309 315 314
312 312 313 312 312 312 312 312 312 312 312 312 312 313 313 313 313 313 316 322 320 317 317 315 314 310 313 322 323 321 320 319 317 317 312 314 310 308 309 312 311 310 308 307 310 315 312
312 311 311 311 311 311 312 312 311 311 311 311 311 312 312 312 312 312 316 315 312 313 309 314 313 313 316 320 316 319 322 317 315 311 313 311 307 311 310 311 310 309 309 308 312 312 312
312 312 311 311 311 311 311 311 310 310 310 311 311 311 311 311 311 314 316 313 315 315 310 310 312 311 313 318 316 317 320 319 314 311 311 309 310 311 310 309 308 309 308 308 308 312 313
311 312 311 310 311 311 310 310 310 310 310 310 310 311 310 308 310 311 315 315 316 315 306 306 307 311 313 316 312 323 322 319 315 311 311 310 313 310 309 308 310 307 311 310 309 309 305
310 311 310 310 311 310 309 309 309 309 310 310 310 309 309 308 312 310 314 314 316 314 296 306 308 316 314 312 314 315 324 319 313 312 312 309 310 309 308 309 312 310 312 311 310 309 307
311 310 310 310 310 309 309 309 309 309 310 310 309 308 308 311 313 311 313 314 315 302 295 304 309 307 307 310 312 316 318 320 318 313 313 311 314 313 312 313 314 314 311 311 311 308 302
310 310 309 310 309 308 308 309 309 309 309 309 308 308 308 312 310 313 314 313 301 296 304 303 305 308 308 307 310 313 313 312 309 306 307 310 311 314 314 310 313 312 309 302 301 301 301
309 310 309 309 308 308 309 309 309 309 308 308 307 307 309 313 315 315 314 306 296 299 300 305 305 306 305 307 309 310 311 309 313 311 309 304 302 309 313 311 309 310 309 303 297 299 303
309 309 310 309 307 307 308 309 308 308 307 307 306 314 313 316 316 314 310 299 300 299 303 302 304 303 304 305 306 309 309 310 312 313 306 305 303 312 313 313 312 309 306 312 307 307 302
308 308 308 308 307 306 308 308 308 308 307 306 310 314 314 316 316 311 306 299 300 303 303 303 301 303 302 305 304 306 308 310 310 313 315 309 303 309 310 312 313 312 314 305 307 299 298
307 306 306 306 306 307 306 307 307 307 306 306 311 309 311 314 313 308 300 302 300 305 304 303 302 302 304 303 306 306 307 307 310 311 314 312 308 307 309 308 308 309 308 310 310 308 302
306 306 305 306 306 306 306 307 307 306 305 308 311 304 313 316 302 305 301 302 300 304 305 303 305 304 304 303 304 305 305 308 308 312 309 313 310 304 306 311 312 312 311 312 305 306 307
305 305 305 305 306 306 307 307 306 305 305 310 310 308 315 314 298 299 303 301 302 302 303 302 302 305 305 304 302 304 305 308 308 311 312 313 308 303 305 309 311 308 311 312 313 314 307
305 305 304 305 307 307 307 307 306 305 305 309 311 302 306 309 310 303 301 300 300 306 304 304 304 305 304 304 307 304 305 306 308 310 320 316 312 307 302 306 310 307 308 311 312 307 307
305 305 305 307 306 305 305 306 306 305 305 309 312 306 305 300 304 304 305 303 300 302 305 306 304 303 303 302 304 304 305 306 308 311 314 314 309 310 309 309 309 308 308 309 310 311 308
305 305 305 305 305 305 305 306 306 305 304 310 307 307 308 307 304 304 301 302 301 303 305 304 304 306 307 304 304 303 307 308 307 312 313 315 310 311 307 309 310 307 308 311 312 312 312
305 305 305 304 305 305 305 305 306 304 305 307 309 310 307 299 304 301 303 304 303 306 308 310 308 308 306 308 311 313 315 316 314 311 309 312 311 309 303 309 309 305 308 309 312 314 313
305 305 304 304 305 304 304 305 305 305 303 307 305 306 303 300 303 304 303 305 304 306 305 309 309 308 313 317 317 316 314 314 314 314 315 310 314 311 304 308 299 309 317 316 312 314 318
305 304 303 304 305 304 304 304 304 305 303 306 306 305 303 299 302 302 303 304 306 307 306 306 309 314 316 314 307 304 304 307 308 311 313 313 310 305 303 302 306 308 314 314 314 313 321
303 303 303 304 303 303 304 305 305 304 303 306 305 305 304 299 298 301 301 303 303 304 305 306 312 314 315 309 306 300 297 301 301 304 312 311 314 309 306 300 298 309 323 328 327 311 326
303 303 303 303 303 304 304 304 304 304 304 303 304 305 302 297 301 302 300 300 305 304 303 306 307 309 314 306 302 300 299 305 300 301 304 305 307 302 302 302 306 318 325 327 312 314 330
303 303 303 303 304 304 304 303 304 304 303 302 303 305 301 299 300 300 303 303 304 304 300 305 303 306 307 303 303 304 302 306 304 307 306 304 303 301 303 301 300 323 323 317 326 332 333
303 302 303 303 304 303 303 303 303 303 304 303 302 306 303 298 300 302 303 304 304 305 305 306 305 309 311 306 309 309 305 308 306 301 316 306 310 307 307 306 324 327 329 333 332 332 334

GFSGBSN_sfc_thetae_021.txt.gz
Theta_e
316 316 316 317 317 317 317 317 317 317 317 317 317 318 318 318 318 319 319 319 320 320 320 321 321 322 326 324 324 334 345 338 330 323 321 321 318 319 318 321 322 321 320 322 323 323 324
316 315 316 316 316 316 317 317 317 316 316 316 316 317 317 317 318 318 319 319 319 319 320 322 322 321 327 314 332 331 327 328 324 322 322 322 320 321 320 319 320 322 321 323 324 323 324
315 315 315 315 315 315 316 316 316 316 315 315 315 315 316 316 317 317 318 317 317 319 323 323 321 326 320 317 333 332 327 325 323 322 321 325 324 319 321 319 322 321 319 322 322 322 321
315 314 314 315 315 315 315 315 315 315 315 314 314 314 315 315 316 316 316 316 317 322 322 321 323 328 317 325 333 328 328 324 324 323 326 327 326 322 319 322 319 318 319 313 321 320 321
314 314 314 314 313 314 314 314 314 314 314 313 314 314 314 315 315 315 315 315 320 324 323 324 330 324 316 325 322 329 328 321 321 323 325 325 324 320 318 313 311 314 309 313 313 320 318
312 314 313 313 313 313 313 313 313 313 313 313 313 314 314 314 314 314 314 315 323 324 326 331 328 319 318 314 322 327 328 322 318 319 319 320 319 315 314 312 305 308 309 310 309 316 317
312 312 312 312 312 312 312 312 312 312 312 312 313 313 313 313 313 313 315 324 323 321 324 317 318 314 315 324 325 323 325 320 320 316 313 317 312 309 312 313 314 312 310 308 312 315 314
314 313 312 311 312 312 311 311 311 311 311 312 312 313 313 312 312 312 316 319 316 316 311 318 317 317 319 324 316 320 324 316 315 311 316 313 308 314 313 312 311 310 309 309 312 315 314
312 312 311 311 312 311 311 311 310 311 311 311 311 312 312 311 311 314 320 318 321 320 312 314 316 314 316 320 317 317 320 318 315 312 313 310 313 314 311 310 309 310 309 310 309 314 315
312 310 311 311 310 310 310 310 310 310 310 311 311 311 311 309 310 316 316 321 321 321 307 309 310 313 316 318 315 324 322 320 317 313 313 312 315 311 311 310 311 308 314 311 310 310 307
312 310 310 311 310 309 309 309 309 310 310 310 310 310 310 308 313 312 319 320 321 319 298 311 311 319 317 314 316 317 324 321 315 314 314 311 311 311 309 310 312 311 315 312 312 310 310
311 311 310 310 309 309 308 309 310 310 310 310 310 309 309 315 317 316 317 319 319 304 297 307 312 310 310 312 314 318 320 323 321 316 316 314 316 315 313 314 314 315 313 313 313 310 303
310 311 310 310 308 308 308 309 310 310 309 309 309 308 309 315 313 317 317 316 303 299 309 306 307 310 310 309 311 314 314 314 312 308 309 312 313 315 315 311 315 314 310 303 303 303 302
309 309 309 309 308 307 309 309 309 309 309 308 307 307 312 313 318 316 315 308 299 305 305 310 309 310 307 310 311 312 313 311 315 313 310 307 305 313 316 313 311 312 311 304 299 299 302
308 308 308 307 307 308 309 308 309 309 308 307 305 317 314 317 317 316 311 301 303 306 307 306 307 306 307 309 310 311 312 312 314 315 309 308 306 314 314 315 314 311 307 313 307 308 304
307 307 306 307 307 308 308 309 308 308 307 306 312 313 315 319 318 313 306 301 307 307 307 307 304 308 305 307 306 309 310 314 313 316 317 312 306 313 313 314 315 313 316 307 307 300 299
307 306 306 306 307 307 308 308 308 307 306 306 314 309 314 316 315 308 301 305 308 308 308 305 304 306 308 307 308 308 309 311 315 315 316 314 311 309 312 310 309 311 309 311 310 309 301
306 306 306 306 309 308 308 307 307 306 305 309 314 305 315 316 303 306 303 307 301 307 308 307 308 306 307 308 307 308 308 311 314 314 311 314 312 307 309 314 314 313 312 312 306 306 308
306 306 306 308 307 307 307 307 307 305 305 310 312 310 315 314 300 303 307 305 306 306 306 306 306 308 309 306 306 308 309 312 311 313 312 315 309 304 306 310 313 309 311 312 314 314 309
306 306 306 306 306 307 307 307 307 306 305 309 313 303 308 308 310 307 305 304 303 307 306 307 307 308 308 307 310 307 307 309 310 312 324 319 312 309 303 306 311 309 309 311 311 307 308
306 306 306 306 306 306 307 307 307 306 305 311 313 309 310 301 305 306 307 305 303 303 307 309 306 306 306 305 307 306 309 309 310 311 313 315 310 311 311 310 310 310 309 310 309 311 308
306 306 306 305 306 306 306 307 307 305 304 312 309 309 309 310 309 306 303 305 304 305 307 305 305 306 307 305 307 306 309 310 310 313 312 316 310 312 309 311 309 308 309 310 311 311 312
306 306 305 305 306 305 305 306 306 305 305 311 311 315 311 304 305 305 306 306 305 307 309 311 309 308 307 309 313 316 317 318 317 315 313 314 312 309 305 309 309 305 309 309 311 314 314
306 305 304 305 305 305 305 306 306 305 304 309 309 309 306 302 305 304 305 306 306 308 308 309 312 310 316 319 317 315 314 313 314 315 317 314 315 312 306 309 299 311 316 315 312 313 316
304 304 304 304 304 304 306 306 306 306 305 308 309 308 306 302 306 305 306 306 308 309 308 309 311 317 319 314 308 306 306 307 308 310 313 315 312 306 303 302 307 310 313 313 311 312 318
304 304 304 304 305 305 306 305 305 306 305 307 309 310 307 302 302 305 304 306 305 306 307 308 314 318 315 309 306 301 300 304 304 305 312 312 315 307 305 300 299 310 317 322 319 310 321
304 304 304 303 305 305 305 305 305 305 305 305 308 310 306 301 306 305 302 304 307 307 306 310 311 310 314 306 303 302 301 308 302 304 305 305 307 302 302 302 305 315 324 326 308 315 333
305 304 303 303 304 304 304 305 305 305 305 305 307 309 304 303 305 304 305 306 307 307 304 309 308 308 309 304 303 304 304 306 305 309 309 307 304 303 303 301 299 321 322 315 330 335 336
305 304 303 303 304 304 304 304 305 304 305 305 307 310 308 301 303 306 306 308 309 310 308 311 308 312 310 306 307 308 306 308 307 302 312 307 311 309 309 307 328 329 332 335 336 335 337

GFSGBSN_sfc_thetae_024.txt.gz
Theta_e
316 316 317 317 317 317 317 317 317 317 317 317 317 317 317 318 318 319 319 319 320 320 320 322 323 324 324 326 326 327 343 335 328 328 321 321 318 318 316 322 322 321 320 321 323 323 323
316 316 316 317 316 316 317 317 317 317 316 316 316 316 317 317 318 319 319 319 318 319 321 324 325 322 326 316 334 327 328 324 328 322 322 322 320 322 319 319 319 323 322 321 323 323 323
315 315 315 316 316 316 316 316 316 316 315 315 315 316 316 316 316 317 318 318 318 319 323 325 324 325 320 317 333 332 328 325 324 322 321 324 325 320 320 318 323 321 316 320 321 322 319
315 314 314 315 315 315 315 315 315 315 315 314 314 315 316 316 316 316 317 316 317 321 326 325 325 327 318 325 331 329 328 325 324 323 325 327 325 321 318 322 319 315 317 312 319 322 320
314 314 313 314 314 314 314 314 314 314 314 313 314 314 315 315 315 315 315 315 317 324 328 328 329 325 316 326 319 328 328 322 322 322 325 325 322 318 318 312 310 313 308 311 315 320 317
313 313 313 313 314 313 313 313 313 313 313 313 314 314 314 314 314 314 313 314 323 321 328 330 328 318 320 317 320 325 328 324 319 319 319 319 317 313 313 310 303 307 308 309 311 315 317
314 313 312 313 313 312 312 312 312 312 312 313 313 313 313 313 313 313 314 320 322 322 320 316 317 313 317 323 324 323 326 321 319 315 311 317 311 307 310 313 313 311 310 308 312 314 313
312 312 312 312 312 311 311 311 311 311 312 312 312 313 313 313 312 312 313 317 317 317 310 319 319 319 319 323 316 319 325 315 314 310 313 313 307 313 315 313 311 310 308 308 312 314 314
311 311 312 311 311 310 310 310 310 311 311 311 312 312 312 311 311 313 316 319 322 320 310 313 316 315 317 319 316 316 321 316 314 310 312 309 312 315 312 310 308 309 308 309 309 314 315
312 311 311 311 310 310 309 310 310 310 311 311 311 311 311 309 310 318 314 322 321 321 305 308 312 314 316 317 313 323 322 317 315 311 312 312 315 312 311 308 311 307 314 311 309 308 304
311 311 311 310 310 309 309 309 309 310 311 311 311 311 310 309 311 313 320 321 320 319 296 310 312 320 316 313 315 317 323 318 313 313 315 311 311 310 308 310 312 309 315 313 311 309 308
310 310 311 310 310 308 309 310 310 310 310 310 310 310 309 315 315 315 318 319 317 303 295 307 312 310 310 312 313 317 318 320 321 316 316 314 318 314 313 314 313 315 312 311 311 308 302
309 309 309 309 308 308 309 310 310 310 310 309 309 308 308 314 313 318 317 312 301 297 308 307 308 310 309 308 310 313 314 312 311 307 308 312 312 314 316 311 315 312 309 302 301 301 301
309 308 308 308 307 308 309 309 309 309 309 308 307 307 312 313 317 318 314 307 297 303 304 311 310 309 306 309 309 311 312 310 314 313 309 306 304 312 315 312 310 311 310 303 297 298 301
308 307 307 307 307 309 309 309 309 309 308 307 306 317 314 317 316 316 308 299 301 306 309 308 308 306 306 308 309 309 310 310 313 314 308 307 307 315 316 316 313 309 306 311 306 307 301
307 307 307 307 309 309 309 309 308 308 307 306 309 314 314 318 318 312 304 299 305 310 309 308 304 307 304 306 306 308 309 313 312 316 317 313 306 312 314 315 314 312 314 305 307 299 298
307 307 307 309 309 308 309 308 308 308 306 306 311 310 317 319 316 306 297 301 306 311 309 306 305 306 307 307 308 307 308 313 315 315 317 314 311 310 313 310 309 309 309 309 308 307 300
307 307 307 308 308 308 308 308 307 306 305 310 314 305 317 315 302 303 300 304 306 309 310 308 309 309 308 310 308 307 308 311 316 316 312 315 311 306 308 314 315 312 310 311 305 306 307
307 307 307 307 308 308 308 308 307 306 305 306 312 311 316 312 297 300 304 304 307 308 307 307 306 309 310 308 306 308 309 313 314 313 312 315 309 303 306 310 313 309 311 310 311 314 309
306 307 307 307 307 308 308 308 307 306 306 307 313 303 307 307 307 305 305 304 305 308 307 309 308 309 308 307 309 309 308 311 311 311 324 318 313 308 302 306 310 308 310 311 310 306 307
306 307 307 306 306 307 308 308 308 307 306 308 313 310 311 300 301 304 307 307 304 304 307 309 306 307 306 305 306 306 310 311 310 315 313 314 310 310 309 310 310 310 310 310 308 309 306
306 307 306 306 306 307 308 308 307 306 304 311 307 308 312 308 310 306 303 305 304 306 307 305 305 307 308 306 308 307 308 310 308 311 312 315 310 310 307 310 310 307 309 310 309 310 310
306 305 305 305 306 306 307 308 307 306 305 311 311 312 310 306 306 305 304 304 305 308 309 311 309 308 307 309 313 316 317 318 318 315 315 315 312 310 304 309 309 305 308 309 310 312 311
305 305 305 305 305 306 307 307 307 306 305 307 311 308 305 302 306 304 305 307 306 308 308 310 312 312 316 321 318 316 314 313 315 315 317 316 318 313 306 309 298 309 315 314 313 314 314
305 305 305 305 305 306 306 306 307 307 305 306 311 307 306 302 306 306 306 306 308 310 308 311 312 318 319 315 309 306 305 306 307 310 312 316 313 307 304 302 306 309 313 313 312 312 324
305 305 305 305 305 306 306 306 306 307 305 307 310 310 307 303 303 306 305 307 306 307 308 310 314 318 316 310 306 301 299 303 302 305 311 311 320 308 305 300 298 310 314 320 321 309 329
305 305 305 305 304 306 305 305 306 306 305 305 309 311 307 302 306 305 303 304 309 307 306 310 310 311 313 305 300 300 300 306 302 303 306 306 307 303 303 300 304 314 315 323 307 317 332
305 305 305 304 304 306 305 305 306 306 306 306 308 312 305 303 306 306 306 305 307 307 304 309 309 309 308 302 301 302 303 306 306 310 308 307 304 302 305 301 298 315 319 317 330 335 335
306 306 304 304 304 305 305 304 305 305 306 306 307 311 310 302 303 308 307 308 308 311 308 310 309 310 311 306 306 305 302 307 312 302 314 305 312 308 310 308 330 331 332 336 337 335 336

GFSGBSN_sfc_thetae_027.txt.gz
Theta_e
317 317 317 317 317 317 317 317 317 317 317 316 317 317 317 317 318 318 319 319 319 319 320 322 325 326 319 317 323 327 342 336 327 323 322 318 314 312 309 314 319 315 319 319 318 319 318
316 315 316 316 316 316 316 316 316 316 316 316 316 316 316 316 317 318 318 318 318 319 320 323 326 323 321 313 326 323 322 320 322 322 317 318 317 317 313 314 313 318 317 317 318 319 322
314 314 315 315 315 315 315 315 315 315 315 315 315 315 315 315 316 316 317 318 317 318 321 325 326 323 317 314 327 323 323 320 322 317 314 320 320 314 313 310 318 317 311 314 316 317 316
313 314 314 315 315 314 314 314 315 314 314 314 314 314 314 315 315 316 316 316 317 318 322 328 328 322 315 324 322 327 324 320 320 317 316 321 320 315 311 314 314 309 307 303 314 318 317
314 313 314 314 313 313 313 313 313 313 313 313 313 313 314 314 315 315 315 314 317 319 324 329 322 318 314 324 317 322 323 320 318 317 316 323 315 310 311 305 301 303 298 303 311 317 315
313 313 314 313 313 313 312 312 312 313 313 313 313 313 314 314 314 314 313 315 320 319 322 327 325 313 318 316 317 319 323 322 317 314 314 315 310 304 304 300 294 299 300 304 309 314 313
312 313 312 312 312 312 311 312 312 312 312 312 313 313 313 313 313 313 310 309 315 315 312 312 312 312 316 320 321 318 323 320 317 311 304 310 302 299 303 305 306 306 303 303 308 312 307
312 312 313 312 311 311 311 311 311 311 311 311 312 312 313 313 312 312 309 307 310 310 303 313 315 319 320 320 314 317 322 312 311 305 307 304 301 307 311 311 307 304 302 302 306 312 308
312 312 312 311 311 310 310 310 310 310 311 311 312 312 312 311 311 311 308 311 317 312 302 309 312 311 314 314 314 314 316 314 309 306 306 302 307 313 312 307 305 301 299 302 304 308 307
312 312 312 311 310 310 310 310 310 310 311 311 311 311 311 309 308 309 310 316 314 314 297 304 305 310 313 313 308 318 319 315 310 306 307 305 312 312 309 307 304 297 310 309 307 302 296
310 310 310 310 310 309 309 310 310 310 310 311 311 311 310 308 305 306 311 313 313 310 291 308 307 316 311 308 311 312 320 314 307 308 307 306 308 307 307 306 308 304 311 309 308 301 297
310 309 309 309 309 309 309 310 310 310 310 310 310 310 309 311 308 310 312 312 310 297 292 306 309 306 305 307 309 313 314 314 314 310 311 309 315 311 309 310 310 311 307 306 303 298 292
309 308 308 308 308 309 310 310 310 310 309 309 309 308 306 310 308 311 312 307 295 291 305 302 303 305 303 303 305 308 310 305 302 299 301 309 309 310 313 306 309 307 298 292 292 292 293
308 308 308 307 310 309 309 310 310 309 309 308 307 307 309 310 309 311 309 299 291 300 300 306 306 306 302 304 304 306 307 304 308 306 302 300 299 307 311 306 304 303 300 293 288 290 294
308 308 308 309 310 309 309 309 309 309 308 307 306 312 310 312 313 310 302 293 296 303 306 305 305 302 301 305 304 303 304 306 308 308 300 300 303 314 312 312 308 302 297 303 295 295 293
308 308 308 308 309 309 309 309 309 309 308 307 305 307 311 314 313 306 298 295 300 307 307 305 300 304 302 302 301 301 303 308 309 312 310 304 301 307 312 311 310 303 306 296 296 291 290
307 307 308 309 309 309 309 309 308 308 307 306 308 307 311 315 312 302 293 296 302 307 308 304 301 301 303 303 303 301 302 309 311 311 311 305 303 305 311 303 302 302 299 301 297 296 290
307 308 308 309 308 309 308 308 308 307 305 307 310 304 315 312 299 300 295 300 301 304 307 305 305 304 303 305 304 302 303 309 312 312 305 308 303 298 303 310 311 307 303 303 297 295 298
307 307 308 307 308 308 308 308 308 306 305 300 304 310 314 309 293 295 299 300 302 302 303 305 304 306 305 304 302 308 308 309 311 310 305 307 300 294 297 303 307 304 305 301 300 300 295
307 307 308 306 308 308 308 309 308 307 306 303 305 303 306 306 303 299 299 301 302 306 305 307 305 306 303 303 304 304 306 309 310 310 323 314 305 302 295 300 304 303 306 306 301 295 296
307 307 306 306 307 308 309 308 308 307 306 303 309 307 308 298 298 299 300 302 301 301 306 306 304 304 302 299 303 301 306 307 309 313 308 308 300 302 305 306 306 305 307 308 303 303 298
306 306 306 306 306 308 309 308 308 307 305 306 305 302 305 303 308 301 302 299 302 304 304 302 302 305 304 300 302 304 308 308 308 308 304 306 300 301 303 307 306 305 307 308 306 305 303
306 306 306 306 306 307 308 308 308 306 305 306 309 307 304 304 304 302 302 303 303 305 307 308 306 306 304 310 312 310 309 310 309 306 309 305 303 299 297 306 305 299 305 307 307 310 307
306 306 305 306 305 307 307 308 308 307 305 302 307 306 302 298 301 302 304 305 305 307 307 311 311 310 313 315 315 311 306 307 309 309 310 307 307 305 300 303 293 304 310 310 310 317 316
306 306 306 305 305 306 306 306 308 307 306 302 306 305 302 297 302 301 303 304 307 310 308 311 312 313 314 311 306 301 300 301 304 307 305 308 304 299 296 296 302 306 310 309 308 313 319
306 305 306 305 305 306 306 306 306 307 306 304 305 309 303 299 299 303 300 304 302 304 306 309 315 314 311 305 302 295 294 299 298 300 303 303 308 302 297 294 292 303 314 318 316 308 319
306 306 306 305 305 305 307 306 306 306 306 303 304 310 303 299 304 303 298 299 305 303 302 308 309 308 310 301 297 295 295 303 297 298 298 298 299 298 297 295 299 308 310 318 299 306 319
306 306 306 305 305 305 306 306 306 306 306 304 304 309 304 298 300 304 304 301 301 303 300 304 306 306 305 298 297 297 297 300 299 301 303 300 297 295 297 295 294 322 321 314 313 317 327
306 306 306 305 305 305 305 305 306 306 305 305 303 308 310 303 299 305 305 306 304 306 304 304 305 307 312 306 303 303 299 301 301 297 308 300 303 300 300 300 324 328 326 328 329 327 329

GFSGBSN_sfc_thetae_030.txt.gz
Theta_e
316 317 317 316 316 316 316 316 316 316 316 316 317 317 317 317 317 318 318 318 319 319 319 320 324 325 316 312 320 329 339 334 321 320 320 319 312 310 307 309 317 314 316 317 319 317 316
315 316 316 316 316 316 316 316 316 316 315 315 315 315 315 316 316 317 318 318 318 318 319 320 325 324 316 309 324 324 316 317 317 318 318 314 313 314 310 309 309 314 315 314 314 316 319
314 315 315 315 315 315 315 315 315 315 315 315 315 315 315 315 316 316 317 317 317 318 319 320 327 324 316 306 321 318 317 314 317 318 311 314 317 312 311 308 313 312 309 311 313 314 315
313 313 314 313 314 314 314 314 314 314 314 314 314 314 314 315 315 316 316 316 317 318 320 322 328 319 306 323 319 322 319 319 319 315 313 314 316 312 309 311 309 305 303 300 310 314 315
313 313 313 313 313 313 313 313 313 313 313 313 313 313 313 314 314 315 314 314 317 320 321 325 319 315 311 326 315 319 320 318 316 314 313 318 312 306 308 302 299 299 296 299 305 315 314
313 313 312 312 312 312 312 312 312 312 312 312 313 313 313 314 314 314 313 315 317 319 321 323 325 305 313 315 314 316 320 321 316 311 311 312 307 302 300 298 292 296 297 300 305 311 311
313 313 313 312 312 311 311 311 312 311 312 312 312 313 313 313 313 313 309 305 305 305 308 308 307 308 313 319 317 313 319 318 314 309 300 305 301 297 300 302 304 302 300 299 304 312 307
313 313 313 311 311 311 311 311 311 311 311 311 311 312 312 312 312 312 306 303 307 306 300 309 312 313 317 319 311 314 319 310 309 302 305 300 297 304 307 307 304 303 300 298 303 310 305
311 311 311 311 310 310 310 310 310 311 311 311 311 312 311 311 311 308 303 305 311 308 298 305 308 307 309 313 311 311 314 311 307 303 303 300 303 311 309 306 302 297 297 299 300 305 303
310 310 310 310 310 310 310 309 310 310 310 311 311 311 310 309 306 303 304 309 306 307 294 300 303 307 309 310 306 316 315 313 308 303 306 303 308 308 306 306 303 293 304 308 305 299 294
309 309 309 309 309 310 309 309 310 310 310 311 311 311 310 309 300 299 307 308 307 306 284 307 303 311 308 306 308 309 316 312 306 306 306 304 306 305 305 305 305 300 308 306 305 297 295
308 309 309 309 309 309 309 310 310 310 310 310 310 309 309 306 302 305 309 305 304 294 288 302 306 303 302 303 307 310 312 313 313 308 306 306 312 309 307 308 307 309 304 301 299 294 290
309 309 308 309 309 309 309 310 310 310 310 309 309 308 305 307 301 305 304 301 291 288 301 298 298 301 299 299 303 304 307 304 300 297 298 305 307 309 311 304 306 303 295 289 289 290 290
308 309 308 309 308 308 309 310 310 309 309 309 307 307 304 306 304 304 301 295 286 296 296 301 300 299 298 299 300 302 304 301 303 303 299 297 297 306 310 304 301 299 296 290 286 287 292
308 308 308 308 308 309 309 309 309 309 308 308 306 302 302 304 307 303 297 288 290 297 303 301 300 297 297 300 300 299 301 302 304 303 298 297 300 310 310 308 306 299 296 299 293 292 291
308 308 308 308 308 309 309 309 309 309 308 306 298 299 300 308 306 299 293 291 294 303 303 301 296 298 295 299 296 296 298 305 306 307 305 301 296 304 310 309 307 302 303 294 291 288 288
308 308 308 308 308 309 309 309 309 308 307 307 301 300 306 307 303 296 289 290 296 303 303 299 296 297 299 300 299 294 297 305 309 308 305 301 298 301 306 300 300 300 297 295 293 291 288
307 308 308 307 308 309 309 309 308 307 306 301 297 298 307 305 293 290 289 294 299 299 301 299 300 299 300 302 300 301 298 302 309 309 302 302 298 295 299 307 308 302 299 295 293 291 292
307 308 307 307 308 308 309 308 308 306 306 297 293 301 306 302 287 287 292 297 298 297 298 297 299 302 301 300 297 303 304 307 310 307 305 303 295 292 296 299 304 301 303 297 295 293 291
307 307 307 307 307 309 309 308 308 307 306 297 296 298 298 298 294 292 289 295 297 305 300 300 300 301 298 298 300 298 301 308 308 308 320 310 298 295 292 295 301 300 303 303 297 292 292
306 307 306 307 306 309 309 309 308 307 307 299 298 299 297 293 293 293 291 295 295 296 302 301 298 299 296 292 296 301 304 305 308 310 305 302 297 298 299 303 303 303 304 304 300 299 296
306 307 306 306 306 308 308 308 308 307 306 300 296 294 296 295 298 297 294 293 296 298 299 298 298 301 304 300 300 299 303 303 302 308 299 300 296 298 296 306 305 303 305 306 305 307 302
306 307 307 306 306 307 308 308 308 306 302 295 299 300 297 296 295 295 297 299 300 301 303 309 306 302 304 305 307 306 302 303 304 304 303 303 297 294 291 303 304 297 302 304 307 311 308
306 306 306 306 306 306 307 308 308 307 304 294 296 297 294 293 295 295 298 300 303 303 304 308 308 304 308 311 310 306 302 303 303 301 306 303 301 300 296 300 290 302 309 317 314 315 315
306 306 306 306 306 306 307 307 308 307 306 295 297 296 293 290 296 296 297 298 303 302 303 306 309 308 307 305 300 296 296 296 300 301 300 306 299 295 294 292 298 303 311 309 307 310 316
307 306 306 307 306 305 307 307 307 307 306 296 296 299 294 291 292 298 294 296 295 295 299 305 309 308 306 299 297 292 290 293 294 297 300 300 301 296 293 290 290 300 312 316 315 303 317
306 306 306 307 306 306 306 306 307 307 306 299 296 299 294 289 294 295 293 293 297 298 297 299 301 304 303 295 293 291 291 297 292 292 291 292 292 293 292 291 296 305 308 314 297 299 317
307 306 306 306 305 306 306 305 306 307 306 301 297 300 297 289 292 297 298 293 294 296 296 300 301 302 302 294 293 292 291 294 293 295 294 294 291 292 292 291 290 318 320 306 310 317 318
307 306 306 305 305 306 306 305 305 306 306 304 293 300 302 296 294 297 301 302 299 298 298 297 299 297 306 303 301 300 294 295 294 291 300 295 297 295 295 295 313 318 318 320 320 321 322

GFSGBSN_sfc_thetae_033.txt.gz
Theta_e
315 315 316 316 316 316 316 316 316 316 316 316 316 316 316 317 317 317 318 318 318 319 319 319 321 325 314 309 316 330 343 332 318 318 317 315 310 309 305 307 310 312 314 315 317 315 314
314 314 314 315 315 315 315 315 315 315 315 315 315 315 315 316 316 316 317 318 318 318 319 319 321 325 313 302 321 323 314 314 314 316 315 314 310 312 308 308 307 311 311 312 312 314 316
313 314 313 314 314 314 314 314 314 314 314 314 314 314 314 315 315 316 316 317 317 318 319 319 322 323 313 303 319 316 311 311 315 315 312 312 313 310 310 307 310 308 306 309 310 311 312
313 313 313 313 313 313 313 313 314 314 314 314 313 314 314 314 314 315 315 316 316 318 320 321 325 319 309 317 316 317 314 317 317 314 312 313 313 309 308 310 307 302 301 299 308 310 311
312 313 313 313 313 313 312 313 313 313 313 313 313 313 313 313 314 314 314 314 316 320 321 324 316 316 307 323 315 317 318 316 315 314 311 316 311 304 306 300 298 298 294 297 301 309 311
312 312 312 312 312 312 312 312 312 312 312 312 312 313 313 313 314 313 313 315 316 319 320 322 323 299 308 311 315 315 319 318 315 310 309 308 303 300 298 297 292 294 295 297 299 308 309
313 313 311 311 312 311 311 312 311 311 311 311 312 312 313 313 313 313 309 303 304 302 305 303 303 303 309 316 316 311 317 315 312 307 298 302 299 295 297 300 301 300 298 297 301 306 307
311 311 311 311 311 311 311 310 310 311 311 311 311 312 312 312 311 311 305 303 304 301 298 306 308 311 314 315 310 311 317 309 307 300 303 299 295 301 305 305 303 300 297 297 300 306 303
310 309 310 310 310 311 310 310 310 310 310 310 311 311 311 311 310 305 300 303 306 303 297 302 306 305 306 311 308 310 313 310 305 301 300 297 301 307 306 304 302 296 295 297 298 302 302
309 309 309 309 310 309 309 310 310 310 310 310 310 311 311 309 303 300 302 306 305 301 292 297 300 305 307 309 305 316 314 312 308 303 303 301 305 305 304 304 302 294 301 304 303 298 293
309 309 309 309 309 309 309 309 309 309 310 310 310 310 310 308 300 299 303 305 303 302 283 301 300 308 303 306 305 307 313 309 305 303 301 301 303 305 304 304 304 300 305 303 302 295 292
309 309 308 309 309 309 309 309 309 310 310 310 310 309 309 304 299 304 306 301 302 292 285 299 303 300 300 301 304 307 308 311 310 305 303 303 308 308 307 307 305 306 302 298 296 292 289
309 308 308 308 308 308 309 309 310 310 310 310 309 308 305 305 296 302 301 300 289 286 297 297 295 296 296 298 300 302 303 301 299 294 294 303 304 309 310 303 304 301 294 288 288 289 289
308 308 308 309 308 308 309 309 310 309 309 309 307 308 305 305 301 302 299 295 283 292 294 299 299 295 296 297 298 300 301 299 302 302 297 295 296 306 308 302 299 296 295 289 285 286 290
308 308 308 308 308 308 309 310 309 309 309 307 306 299 300 303 306 300 296 287 288 294 301 299 298 294 293 297 298 297 297 299 302 303 296 295 298 308 309 307 305 298 294 296 290 288 289
308 308 308 307 307 308 309 310 309 309 308 307 297 299 298 305 304 298 292 289 291 299 301 298 293 295 293 295 295 294 295 302 302 305 303 299 295 301 307 306 304 300 301 293 290 286 286
307 308 307 307 307 308 308 309 309 308 307 305 300 299 304 305 299 294 287 288 294 300 300 296 294 294 296 297 295 292 295 301 305 304 303 299 296 298 303 299 299 298 295 293 291 290 286
307 307 307 307 307 308 308 309 308 307 306 299 296 295 303 300 291 286 288 292 298 296 297 296 297 296 296 298 296 298 295 300 306 305 301 300 295 293 298 303 305 300 296 294 291 291 289
307 307 307 307 307 308 308 308 308 307 305 297 293 296 306 299 288 286 289 294 296 294 295 294 295 299 298 296 295 300 301 305 306 304 301 301 294 291 295 298 301 300 299 296 292 290 289
307 307 307 307 306 307 308 308 308 307 306 296 297 297 296 295 291 290 288 291 294 302 298 298 297 297 296 296 298 298 300 305 306 309 320 308 293 294 293 295 299 298 301 299 294 291 290
307 307 307 306 306 306 308 308 308 307 306 299 298 296 296 292 292 292 291 292 292 293 299 299 294 297 295 291 296 299 303 306 308 313 303 300 296 295 296 301 301 301 302 302 297 296 294
307 307 307 306 306 306 309 308 308 307 305 299 293 292 295 292 295 295 294 290 293 294 295 297 294 302 301 298 299 297 299 300 301 306 298 298 296 295 295 303 303 302 303 304 304 307 301
306 306 307 307 306 306 308 309 308 306 301 294 296 298 295 295 293 291 292 294 296 298 300 308 305 302 301 304 306 304 303 301 303 302 304 302 295 292 290 301 300 294 301 304 309 311 307
306 306 306 307 306 306 306 308 308 306 304 294 294 295 294 292 293 293 296 298 298 299 301 307 305 301 306 308 307 303 299 298 302 300 303 301 300 296 294 295 287 298 314 312 312 313 312
306 306 306 307 307 306 306 306 307 307 306 293 294 294 291 289 294 295 296 295 300 299 302 305 305 304 303 303 298 295 295 296 299 300 301 301 297 293 292 291 295 305 312 306 305 308 315
306 306 306 306 307 306 306 306 306 307 306 294 294 296 292 290 292 297 294 294 292 295 297 302 306 303 302 297 296 289 289 293 293 298 297 299 297 296 291 289 289 298 309 317 309 297 317
307 306 306 306 306 306 306 306 306 307 306 297 294 295 292 289 291 294 293 293 292 293 294 298 300 304 301 294 292 290 291 297 293 292 292 290 291 291 292 290 295 302 311 312 293 295 316
307 306 306 306 305 306 306 306 306 306 306 300 294 296 295 289 291 295 298 294 294 293 292 296 299 303 303 293 293 291 290 292 291 293 292 292 289 289 290 288 288 318 320 303 304 313 315
307 306 305 305 305 306 306 306 305 305 305 303 290 296 297 293 293 296 299 301 299 298 294 296 298 297 303 300 298 297 293 293 291 289 299 294 295 292 293 293 311 315 315 317 315 317 318

GFSGBSN_sfc_thetae_039.txt.gz
Theta_e
314 314 315 315 315 315 315 315 315 315 315 316 316 316 316 316 317 317 318 318 319 319 319 320 321 322 322 310 315 334 343 334 319 321 319 317 315 315 313 313 314 316 316 317 319 320 323
313 314 314 314 314 314 314 315 315 315 315 315 315 315 315 315 316 316 317 318 318 318 318 319 321 322 314 305 321 328 316 316 318 321 319 317 314 316 314 313 312 313 312 313 315 318 320
313 313 313 313 313 314 314 314 314 314 314 314 314 314 314 315 315 316 317 317 317 318 319 320 321 323 314 309 322 321 316 317 319 320 318 317 316 315 315 313 314 312 312 315 316 317 317
313 312 313 313 313 313 313 313 313 314 314 314 314 314 314 314 314 315 315 316 316 318 322 321 322 323 310 318 323 318 317 320 321 321 319 320 317 315 314 314 311 309 310 309 311 313 315
312 312 312 313 313 313 312 312 313 313 313 313 313 313 313 314 314 314 314 314 317 320 324 325 324 320 308 321 318 321 322 321 320 320 318 317 317 312 312 310 310 308 307 305 308 314 312
311 311 312 312 312 312 312 312 312 312 312 312 312 313 313 313 314 314 313 315 318 321 322 324 321 308 310 312 317 317 321 322 319 315 313 314 312 311 310 310 305 305 304 305 305 310 312
311 310 310 311 311 311 311 311 311 312 312 312 312 312 313 313 313 312 313 312 311 310 310 310 308 304 307 316 318 315 321 320 316 313 307 308 307 304 307 308 307 306 305 303 307 308 310
310 310 310 311 311 311 311 311 311 311 312 311 311 312 312 312 312 312 309 307 305 305 304 308 307 308 312 315 310 314 320 314 312 307 307 306 303 306 307 307 306 306 304 304 307 309 310
310 309 310 310 310 310 310 310 311 311 311 311 311 311 312 311 311 308 305 307 309 306 303 306 307 308 310 314 310 311 317 314 310 306 305 303 305 307 306 306 306 306 304 304 306 308 308
309 309 309 310 309 310 310 310 310 310 310 310 310 311 311 309 305 305 307 308 307 307 300 301 303 307 310 312 309 316 318 315 310 306 305 305 308 307 307 306 307 305 307 305 306 307 303
309 309 309 309 309 309 309 310 310 310 310 310 310 310 310 309 303 303 307 308 307 305 290 301 304 311 309 309 310 311 316 315 309 307 307 304 306 306 305 308 309 307 308 308 306 306 305
308 308 309 309 309 309 309 309 309 310 310 310 310 309 309 305 304 306 307 306 308 298 289 299 305 304 305 307 307 310 312 315 314 308 308 307 310 309 309 309 308 309 307 306 306 305 300
308 309 308 308 308 309 309 309 310 310 310 310 309 308 306 307 302 306 306 308 298 291 300 299 300 303 303 303 305 307 308 308 305 302 302 305 307 311 312 307 308 308 306 300 297 298 298
308 308 308 308 308 308 309 309 309 310 309 309 307 307 308 308 308 307 307 303 291 295 296 301 302 302 300 303 305 304 305 304 306 306 303 300 299 308 312 311 308 306 306 301 292 296 300
308 308 308 308 307 308 309 309 309 309 309 308 306 306 306 307 309 308 305 296 295 295 301 300 302 299 300 301 302 304 304 304 307 308 303 302 302 310 311 310 310 305 305 306 301 299 300
308 308 308 308 307 308 309 309 309 309 308 307 304 308 306 308 310 305 301 294 296 298 301 300 297 300 298 300 300 301 301 305 305 308 312 307 302 307 309 310 308 309 308 303 304 297 295
307 307 307 307 307 308 309 309 309 308 307 305 306 304 307 307 304 304 296 296 296 300 301 299 299 298 300 299 300 299 301 304 306 307 310 309 306 305 308 306 306 305 305 303 305 302 299
307 307 307 307 307 308 309 309 308 307 306 301 303 302 311 303 300 295 296 296 297 299 300 299 300 300 300 300 301 300 301 303 307 309 305 309 307 303 304 308 307 307 307 308 302 301 301
307 307 307 307 307 308 309 309 308 306 306 301 304 305 311 305 294 295 296 296 298 298 298 298 299 301 302 301 299 304 303 307 308 308 308 308 305 300 303 306 307 307 305 305 306 307 304
307 307 307 307 307 308 308 308 308 307 306 304 306 301 304 302 298 298 297 297 296 301 299 301 300 301 301 301 305 304 306 308 310 309 319 314 307 306 299 304 307 305 305 305 308 304 303
307 307 307 306 307 307 307 308 308 307 306 304 302 300 300 299 299 300 300 298 296 296 300 302 302 301 301 300 303 306 308 310 310 313 309 313 308 305 305 304 306 307 306 304 306 308 305
307 307 307 306 307 307 308 308 308 307 305 304 300 300 300 300 299 298 297 298 297 299 299 299 300 303 302 301 306 305 307 308 309 311 308 308 307 307 304 305 306 305 307 307 307 306 307
306 306 306 306 307 307 308 308 308 306 304 302 302 303 300 298 298 298 298 297 297 299 303 303 304 307 305 305 310 311 311 308 310 311 312 308 306 305 302 306 306 303 307 309 313 314 312
307 306 306 307 307 307 307 307 308 306 303 301 300 300 299 298 299 299 298 298 298 300 300 305 308 308 308 310 312 309 308 307 308 310 312 310 308 306 302 304 296 307 318 315 314 316 317
307 306 306 306 307 307 307 307 307 307 305 302 301 300 299 297 299 298 298 298 299 303 302 305 308 308 309 309 307 305 305 305 305 307 309 312 309 302 302 298 304 311 314 314 311 311 320
307 307 306 306 306 306 307 307 307 307 305 302 301 300 299 296 297 298 297 297 295 297 304 305 309 310 308 308 305 301 297 300 300 303 306 309 312 307 303 299 298 309 312 320 313 305 319
308 307 305 305 305 306 306 306 307 306 305 302 302 300 299 296 298 299 298 296 297 296 299 302 304 307 309 305 303 300 299 302 299 300 301 304 305 303 303 301 303 309 317 319 302 306 318
308 308 305 304 305 305 306 306 306 306 305 301 300 300 300 298 299 299 299 298 298 297 295 300 304 307 308 301 302 301 301 301 301 301 301 301 301 302 302 300 298 321 323 309 315 324 324
309 308 306 304 304 305 305 306 306 305 305 302 296 300 301 300 299 301 303 304 302 301 298 298 303 304 305 306 305 304 302 303 300 299 307 302 306 305 304 304 317 322 323 328 328 325 325

GFSGBSN_sfc_thetae_042.txt.gz
Theta_e
315 315 315 315 315 315 315 316 316 316 316 316 316 316 317 317 317 318 318 319 319 319 319 320 322 323 326 318 323 335 343 332 324 325 321 321 319 319 318 320 320 320 320 321 323 322 324
314 314 314 314 314 314 315 315 315 315 315 315 315 315 316 316 317 318 318 318 318 318 319 320 322 321 320 311 325 330 321 320 323 324 321 321 319 321 319 319 319 319 319 319 321 322 323
313 314 314 314 314 314 314 314 314 315 315 315 315 315 315 315 316 317 318 317 317 318 320 322 323 326 317 313 325 328 323 322 325 324 321 321 321 319 320 318 319 318 318 320 320 320 320
312 312 313 314 314 313 313 314 314 314 314 314 314 314 315 315 315 316 316 316 316 319 322 323 323 327 313 321 328 324 327 324 326 327 324 323 322 320 319 320 318 318 319 314 317 316 319
312 312 312 313 313 313 313 313 313 313 313 313 313 314 314 315 315 315 315 315 318 321 324 325 327 321 311 322 319 325 327 321 323 325 323 321 321 318 317 316 316 317 313 311 312 316 316
311 311 311 312 312 312 312 312 312 313 313 313 313 313 314 314 314 314 314 316 320 320 324 328 325 315 315 314 320 322 326 325 321 320 318 318 317 314 316 315 308 311 311 312 310 314 314
311 311 311 311 312 311 312 312 312 312 312 312 312 313 314 314 313 313 316 320 317 317 317 314 313 311 311 319 322 321 324 322 320 317 311 314 310 308 313 316 314 313 312 311 312 314 313
310 310 310 311 311 311 311 311 311 312 312 312 312 312 312 313 312 312 316 315 311 311 309 315 314 314 316 318 313 318 324 316 314 310 312 310 307 311 312 312 311 312 312 311 312 315 314
310 309 310 310 310 311 311 311 311 311 311 311 312 312 312 312 311 314 315 312 315 314 310 311 312 312 313 316 312 315 320 317 312 309 309 307 309 311 310 310 310 313 312 310 309 313 314
309 309 309 310 310 310 310 310 310 311 311 311 311 311 311 309 310 311 315 315 315 315 305 306 307 311 313 315 311 319 321 317 312 309 309 308 311 309 310 309 311 308 313 310 309 309 307
309 309 310 309 310 310 310 310 310 310 310 311 311 311 310 308 313 310 314 315 317 314 295 305 307 316 314 312 313 314 321 318 311 310 309 307 308 308 309 309 312 310 312 311 311 309 308
309 309 309 309 309 309 309 310 310 310 310 310 310 309 309 312 314 311 314 314 315 303 294 303 309 307 308 311 311 315 315 319 318 312 311 310 314 312 312 314 314 314 312 312 311 309 303
309 309 309 309 309 309 309 310 310 310 310 310 309 308 309 314 310 313 313 314 302 297 304 302 305 308 307 307 308 311 311 311 308 305 306 309 310 313 315 312 313 313 310 302 301 301 302
308 308 309 308 308 308 309 310 310 310 310 309 308 307 310 314 317 315 314 307 297 301 301 305 305 306 304 307 307 308 309 308 312 310 308 304 301 310 315 313 310 311 310 303 297 299 303
308 308 308 308 308 308 310 310 310 310 309 308 306 316 316 317 316 316 310 300 299 301 304 303 305 303 304 306 305 307 307 308 310 312 306 304 304 312 314 315 315 311 307 312 305 307 302
308 308 308 308 308 308 309 310 310 309 308 308 313 318 313 315 318 311 306 299 302 303 305 305 301 304 302 305 304 305 306 309 308 312 315 310 304 311 313 315 314 314 315 305 306 299 298
307 307 307 308 308 308 309 310 309 309 307 307 314 309 311 315 312 308 300 302 302 304 305 303 303 302 304 304 306 305 306 308 311 310 314 312 310 309 312 311 310 311 310 311 310 308 302
307 307 307 307 308 308 309 309 309 307 306 306 313 305 313 314 303 305 302 302 297 303 305 304 304 304 303 304 305 306 305 308 311 313 309 313 311 305 307 313 314 314 312 312 306 305 306
307 307 307 307 307 308 309 309 308 306 306 312 314 310 314 312 298 300 302 301 302 301 302 302 301 304 306 305 303 306 308 310 310 311 310 313 308 304 305 310 313 310 312 314 314 314 307
307 307 307 307 308 308 309 309 308 307 307 311 314 303 306 308 309 302 300 300 299 303 302 303 303 305 304 304 308 307 309 311 313 312 319 317 310 308 302 307 311 309 310 311 312 306 308
307 307 307 307 307 308 309 309 308 307 307 310 313 307 307 301 302 306 305 303 299 299 303 305 303 303 303 303 305 306 311 312 314 313 313 314 308 310 309 310 310 310 310 309 310 311 307
306 307 307 307 308 308 308 309 308 307 305 312 309 308 309 309 307 306 300 304 302 303 303 301 302 305 306 304 306 308 311 313 312 314 314 315 309 310 307 309 309 307 310 311 311 311 311
306 306 306 307 307 308 308 308 308 306 306 309 311 312 308 302 306 304 305 304 302 304 306 306 305 305 307 309 310 315 317 316 318 316 315 314 310 310 303 308 308 304 309 311 312 314 313
307 306 306 306 307 307 308 308 308 306 305 311 308 309 306 304 306 306 302 303 304 305 305 309 311 310 313 317 317 318 315 314 315 318 321 316 315 312 305 309 299 311 317 315 314 316 318
307 307 306 306 306 307 307 307 307 307 305 310 310 307 305 302 306 304 303 303 307 309 308 308 312 314 317 314 311 310 309 310 311 314 317 319 315 309 306 304 309 312 317 316 315 314 321
308 308 305 305 306 306 307 307 307 307 305 312 308 311 307 301 302 303 303 304 304 307 309 310 314 319 314 313 310 304 301 305 306 309 315 317 321 311 308 303 300 313 319 322 319 310 322
308 308 306 305 305 306 307 307 307 307 305 308 308 309 307 301 305 304 304 302 304 306 308 310 308 313 317 309 305 303 302 307 302 304 307 310 311 307 307 305 308 317 320 320 306 312 324
309 308 307 304 305 305 306 307 306 306 305 305 308 308 305 303 304 303 303 304 304 305 304 307 309 312 313 307 305 306 304 306 307 308 308 307 306 306 309 304 302 322 321 313 323 330 329
309 309 307 305 305 305 306 306 306 305 305 305 304 308 308 304 304 308 307 308 307 306 303 307 309 308 308 310 311 309 306 308 308 301 312 306 313 309 311 310 323 327 329 332 333 330 331

GFSGBSN_sfc_thetae_045.txt.gz
Theta_e
315 316 316 316 316 316 316 316 316 316 316 317 317 317 317 318 318 318 319 320 320 320 320 321 323 324 324 323 325 333 343 331 326 327 323 322 321 322 319 323 323 323 323 323 324 323 324
315 315 315 315 315 315 315 316 316 316 316 316 316 316 316 317 318 318 319 319 319 319 320 322 324 322 327 314 331 332 325 324 326 325 323 323 322 325 322 322 322 325 323 322 323 323 323
313 314 314 314 315 314 315 315 315 315 315 315 315 315 316 316 317 318 318 318 318 319 320 323 326 326 319 316 325 332 327 324 326 326 322 323 324 322 325 322 326 324 320 322 322 321 320
312 313 313 313 314 314 314 314 314 314 315 315 315 315 316 316 316 317 317 316 317 319 323 326 325 327 318 323 327 326 329 325 327 327 326 326 326 322 322 326 323 320 321 315 320 319 320
312 313 313 313 313 313 313 313 314 314 314 314 314 315 315 315 316 316 315 315 317 322 325 329 328 327 315 320 319 323 327 323 324 325 326 324 323 320 323 318 317 319 312 313 315 318 317
312 312 312 313 313 313 313 313 313 313 313 314 314 314 314 315 315 314 314 315 323 321 325 330 327 317 318 314 321 323 326 325 322 321 320 319 318 315 317 316 309 313 313 315 312 316 316
311 311 311 312 312 312 312 312 313 313 313 313 314 314 314 314 314 313 316 324 320 321 321 315 317 315 314 319 323 320 324 322 321 319 313 317 312 310 314 317 317 316 315 313 315 316 315
311 311 311 311 311 312 312 312 312 312 312 312 313 313 314 313 313 313 316 318 316 315 311 317 316 317 318 319 315 319 324 317 316 312 315 313 308 313 315 316 316 314 313 313 316 316 315
310 310 310 311 311 311 311 311 311 311 312 312 312 313 312 312 312 315 319 317 321 320 311 313 316 315 316 317 314 316 320 318 314 311 312 310 311 314 312 312 312 313 312 313 312 315 317
310 310 310 310 310 311 311 311 311 311 311 312 312 312 311 309 311 316 317 320 321 320 306 309 310 313 316 316 312 319 322 318 314 311 312 311 314 310 310 309 313 310 315 314 312 310 307
310 310 310 310 310 310 310 310 311 311 311 311 312 311 311 309 313 313 319 320 321 320 297 310 311 319 317 312 315 315 322 318 312 311 312 309 310 309 309 310 313 310 315 312 312 311 311
310 310 310 310 310 310 310 310 311 311 311 311 311 310 310 316 318 316 318 320 319 304 296 306 311 309 310 312 313 316 316 320 319 314 314 312 315 313 311 313 314 315 313 313 313 311 304
309 309 309 309 309 309 309 311 311 311 311 311 310 309 310 316 314 318 318 316 304 299 309 305 307 310 309 309 310 312 312 311 310 307 308 310 310 314 315 312 315 313 310 304 303 302 302
309 309 309 309 309 309 309 311 311 311 310 310 309 308 313 315 319 318 317 309 299 305 306 309 308 309 307 310 309 310 310 309 313 312 308 306 303 310 315 313 312 310 310 305 300 300 303
308 308 309 309 309 309 310 310 310 310 309 309 307 318 317 319 318 318 311 301 302 306 308 305 308 305 307 309 309 309 309 310 312 313 308 306 306 314 314 316 315 313 308 313 308 309 305
308 308 308 309 309 309 310 310 310 310 309 308 314 315 316 319 319 313 307 300 306 308 308 308 304 307 304 307 307 307 308 311 311 314 316 312 306 312 313 316 316 314 317 307 308 300 299
308 308 308 308 309 309 310 310 310 309 308 307 314 312 316 318 315 308 302 305 308 310 308 306 306 306 307 307 308 307 307 311 312 313 315 313 311 310 314 311 310 311 310 312 311 309 303
308 308 308 308 309 309 310 310 309 308 306 307 313 307 315 316 304 306 305 309 297 307 308 307 307 308 307 308 307 308 307 310 314 314 309 314 311 306 310 315 316 315 313 312 306 306 309
308 308 308 308 309 309 310 310 309 307 307 314 313 313 316 313 301 304 308 306 306 305 306 306 305 307 309 307 305 309 310 313 313 312 312 314 309 305 306 311 314 312 314 315 315 314 309
308 308 308 308 308 309 310 310 309 308 307 312 314 305 308 308 309 307 305 304 303 307 305 306 306 308 306 306 310 308 309 313 313 313 323 318 312 309 304 308 312 310 310 312 312 308 309
307 308 307 308 308 309 310 310 309 308 308 312 313 310 312 302 304 306 307 305 303 303 306 307 305 305 305 304 306 307 310 313 315 315 314 314 309 311 311 311 312 311 311 311 310 312 308
307 307 307 308 308 308 309 310 309 307 306 314 311 309 311 313 309 306 302 305 304 305 306 304 303 306 307 305 307 308 312 312 313 316 315 315 309 311 308 311 311 309 311 312 311 312 312
307 307 307 307 308 308 309 309 309 307 306 313 316 316 312 306 308 306 306 306 305 307 308 309 308 306 306 308 313 314 316 318 319 319 316 315 312 310 305 309 309 305 310 312 313 314 314
307 307 307 307 307 308 308 309 309 307 305 314 312 313 308 305 307 307 306 306 306 307 307 310 309 309 313 320 319 316 314 315 317 317 320 317 317 313 306 309 299 310 316 315 314 315 317
308 308 307 306 306 307 308 308 308 308 306 314 313 312 309 305 310 308 306 306 308 311 309 309 312 317 321 317 310 307 307 310 312 315 318 319 317 310 305 304 308 312 315 315 313 312 319
308 308 307 306 306 307 308 308 308 308 306 311 312 314 310 305 305 308 306 308 307 308 310 311 317 321 319 312 307 303 301 305 305 309 317 318 321 313 309 302 300 311 318 322 320 310 322
309 309 308 306 306 306 307 308 307 307 306 308 313 314 311 304 308 307 307 306 309 309 309 314 313 315 320 309 305 303 303 308 303 305 309 310 313 309 308 306 309 317 322 324 310 313 325
309 309 308 306 305 305 306 307 307 306 306 307 311 312 309 306 307 307 307 307 308 309 307 311 312 315 314 308 306 305 305 307 307 311 312 309 308 306 308 306 302 322 321 315 325 329 327
310 309 309 307 305 305 306 306 306 306 306 305 309 313 311 306 307 310 309 309 309 309 307 312 314 314 314 312 311 313 307 311 310 304 315 308 315 311 312 313 325 330 333 336 335 332 331

GFSGBSN_sfc_thetae_048.txt.gz
Theta_e
315 316 316 316 316 316 316 317 317 317 317 317 317 317 318 318 318 319 319 320 320 320 321 321 323 325 321 323 323 327 351 341 323 322 323 322 320 320 317 320 322 320 324 324 324 323 322
315 315 315 315 315 315 316 316 316 316 316 316 316 317 317 317 318 319 319 319 319 319 320 322 324 324 325 314 331 328 326 324 323 324 323 323 321 323 320 321 321 324 324 323 322 323 322
314 314 314 315 315 315 315 316 316 316 316 316 316 316 316 317 317 318 318 318 318 319 320 322 326 325 319 316 325 331 327 323 326 324 322 324 324 321 322 319 325 324 319 321 321 322 319
313 314 314 314 314 314 314 315 315 315 315 315 315 315 316 316 316 317 317 317 317 319 322 325 329 324 316 325 326 324 329 326 325 326 325 327 326 321 320 323 322 318 319 312 318 321 319
313 313 313 314 314 314 314 314 314 314 314 315 315 315 316 316 316 316 315 315 317 321 325 328 327 324 317 324 318 321 325 322 324 324 326 325 322 318 319 315 314 316 311 312 314 322 317
312 312 313 313 313 313 313 313 313 313 314 315 315 315 315 315 315 315 314 316 325 322 324 328 326 317 319 315 319 322 325 324 321 322 320 319 316 312 314 313 306 309 308 313 312 318 316
312 312 312 313 312 313 313 313 313 313 313 314 314 314 314 314 314 314 313 320 319 320 318 316 317 315 316 319 323 320 323 321 320 318 312 316 310 307 311 315 315 314 313 312 315 320 314
311 311 312 312 312 312 312 312 312 313 313 313 313 313 314 314 313 313 314 319 317 317 310 317 319 317 320 320 314 317 322 316 315 310 314 312 308 313 314 315 314 314 312 313 317 318 315
311 311 311 311 312 312 312 312 312 312 312 312 313 313 313 312 312 313 317 318 322 321 310 312 315 315 315 317 313 314 319 317 313 310 310 309 311 315 312 311 311 312 311 311 311 315 316
310 311 311 311 311 311 311 311 311 312 312 313 312 313 312 310 311 318 314 322 322 321 305 308 311 315 316 316 311 318 321 317 314 310 311 310 314 312 311 309 310 307 313 313 312 310 305
310 310 310 311 311 311 311 311 311 312 312 312 312 312 311 310 311 314 320 322 321 318 295 311 312 320 316 312 314 314 320 318 312 312 312 309 310 309 308 309 311 310 314 313 312 309 308
310 310 310 310 310 310 310 311 311 312 312 311 312 311 310 316 316 316 318 320 318 303 295 307 312 310 310 312 312 316 314 319 318 312 314 311 316 313 311 312 313 314 311 312 312 309 302
310 310 310 310 310 310 310 311 311 311 311 311 310 309 309 315 314 320 318 315 302 297 309 306 307 310 309 308 309 312 311 310 308 305 306 311 310 314 314 309 312 312 308 302 301 301 300
309 309 310 310 310 310 310 311 311 311 311 310 309 308 312 314 317 319 315 307 297 304 305 311 309 310 306 309 309 309 310 308 311 310 307 305 303 309 313 310 310 311 309 303 299 299 301
309 309 309 309 310 310 311 311 311 310 310 309 307 317 315 320 317 316 309 299 301 306 310 309 309 305 306 309 309 309 308 308 311 312 307 305 306 314 313 314 312 310 306 311 306 307 303
309 309 309 309 310 310 311 311 311 310 309 308 311 313 316 319 319 313 305 299 305 310 310 309 303 307 304 306 307 307 307 311 310 314 315 310 305 312 313 314 314 312 315 306 306 301 299
308 309 309 309 310 310 310 311 310 310 308 307 310 311 318 319 317 308 301 303 307 311 311 306 305 305 306 306 308 307 307 311 313 312 315 312 309 309 312 309 309 310 309 312 310 308 300
308 309 309 309 309 310 310 310 310 308 307 308 313 307 318 316 303 305 303 308 308 310 311 308 308 307 307 308 307 308 307 310 314 314 309 313 309 305 307 314 316 313 311 311 304 307 308
308 308 308 309 309 310 310 310 309 308 307 311 312 312 317 313 299 301 306 307 311 309 308 308 305 308 309 307 305 309 310 313 314 312 311 313 308 302 305 310 314 311 311 313 314 315 309
308 308 308 308 309 309 310 310 309 308 308 309 314 306 309 309 307 305 305 306 306 310 308 309 307 308 307 305 310 308 309 313 314 313 323 316 311 309 301 307 310 309 310 312 312 308 308
307 308 308 308 309 309 310 310 310 309 308 308 313 310 313 302 303 304 308 307 305 304 308 308 306 305 305 303 305 306 309 311 314 319 314 314 311 309 309 310 310 310 310 311 308 309 306
308 308 308 308 308 309 310 310 310 308 306 311 311 310 312 310 310 306 303 304 304 306 307 305 304 306 306 304 306 305 308 310 310 315 313 313 310 310 306 310 309 308 310 309 312 311 310
308 308 308 308 308 308 309 310 310 308 307 314 314 314 310 307 307 306 305 306 305 308 309 309 309 307 306 308 310 311 313 314 317 316 318 315 311 311 303 308 308 305 309 311 311 314 312
308 308 308 307 307 308 309 310 309 308 306 311 314 312 308 303 307 306 307 308 306 308 306 309 311 309 312 319 318 316 314 313 315 316 318 320 322 313 305 310 299 309 315 313 312 315 319
308 308 309 308 307 307 308 309 310 308 307 309 315 311 309 304 308 308 307 307 309 309 308 308 312 314 320 316 309 306 306 309 309 312 314 316 317 310 305 303 307 309 313 312 310 311 323
309 308 309 308 306 307 308 309 308 308 306 309 315 314 311 305 305 309 308 308 306 308 309 310 314 319 317 312 308 303 298 303 302 305 313 315 324 311 309 302 300 312 319 320 320 310 320
309 309 309 309 306 306 307 308 308 308 307 306 312 315 311 305 308 308 306 307 310 309 308 314 315 313 317 308 303 301 300 306 301 304 307 309 312 308 307 305 308 319 319 322 309 312 322
310 309 309 309 307 306 306 307 308 308 307 306 312 314 310 307 309 308 309 308 309 309 305 310 311 313 311 308 305 304 304 307 307 311 310 309 309 307 310 306 303 328 318 310 315 318 326
310 310 309 309 307 306 306 307 307 307 307 306 309 314 313 306 308 312 310 310 309 310 308 311 311 315 314 311 311 312 307 310 311 304 316 308 315 305 314 313 322 329 330 336 336 338 333

GFSGBSN_sfc_thetae_051.txt.gz
Theta_e
316 316 316 316 316 316 316 317 317 318 317 317 317 317 317 318 318 318 319 320 320 320 320 321 323 324 319 316 319 331 354 347 330 319 315 315 314 314 310 313 316 316 322 324 324 319 320
315 315 316 316 316 316 316 316 316 316 316 317 317 316 316 317 318 318 319 319 319 319 320 321 324 325 320 309 326 324 327 321 318 317 317 319 316 317 313 314 313 317 320 320 320 320 319
314 315 314 315 315 315 315 316 316 316 316 316 316 316 316 316 317 318 318 318 318 318 320 322 325 325 315 311 321 323 321 317 319 318 317 320 319 313 314 311 317 317 313 316 318 319 318
314 314 314 315 314 315 315 315 315 315 315 315 315 315 316 316 316 317 317 317 317 318 320 323 328 320 310 322 320 320 322 321 319 318 318 319 320 315 312 315 314 311 311 306 317 319 319
313 313 314 314 314 314 314 314 314 314 314 315 315 315 315 315 316 316 315 315 317 321 323 326 319 314 313 324 316 317 316 319 319 318 318 323 315 309 311 305 303 309 303 308 312 319 318
313 313 313 314 314 313 313 313 313 314 314 315 315 315 315 315 315 315 314 316 320 321 322 322 323 311 316 314 317 318 315 318 317 316 316 314 309 303 302 299 296 303 306 309 310 315 316
312 313 313 313 313 313 313 313 313 313 313 314 314 314 314 314 314 314 310 308 312 314 311 309 312 311 315 318 319 316 318 317 316 312 305 310 301 298 301 305 308 309 309 310 313 316 312
312 312 312 312 312 312 312 312 312 313 313 313 314 314 314 314 313 313 309 308 310 310 304 313 314 315 319 317 312 315 317 309 310 304 307 305 299 307 310 309 308 308 310 309 314 316 312
311 312 312 312 312 312 312 312 312 312 313 313 313 313 313 312 312 312 308 312 316 313 302 308 311 310 312 312 310 311 312 311 309 306 305 301 306 313 310 307 306 302 307 309 309 313 315
311 311 311 312 312 311 311 311 311 312 312 312 312 313 312 310 308 308 311 315 315 313 297 304 306 309 312 311 307 316 315 313 309 305 307 304 309 309 307 306 305 297 308 309 308 304 297
311 311 311 311 311 311 311 311 311 312 312 312 312 312 311 309 306 305 312 314 313 310 289 308 308 315 311 308 309 310 315 310 307 307 305 303 306 305 305 306 307 302 309 307 308 301 302
311 310 310 311 311 311 311 311 312 312 312 312 311 311 310 311 308 310 313 313 310 297 292 304 309 306 305 306 309 311 310 311 313 308 308 306 311 308 306 309 309 309 306 305 303 298 292
310 310 310 310 310 310 311 311 312 312 311 311 310 309 307 311 306 310 310 307 295 291 305 302 302 305 303 303 305 307 306 303 301 296 298 305 307 309 311 305 307 304 299 292 292 292 292
310 310 310 310 310 311 311 311 311 311 311 310 309 308 310 311 310 311 308 300 291 301 300 307 306 305 302 304 304 306 304 301 306 303 299 297 297 306 310 305 301 301 299 292 289 292 297
309 309 310 310 311 311 311 311 311 311 310 309 307 312 310 311 313 312 303 293 296 301 306 305 305 302 300 304 304 304 302 302 306 305 298 296 300 311 311 309 306 300 298 303 294 293 294
310 309 309 310 310 311 311 311 311 311 310 308 304 308 308 317 315 306 299 295 300 306 307 306 300 304 300 302 301 300 302 306 306 309 307 302 296 306 311 308 308 303 306 297 296 289 289
310 309 309 310 310 310 311 311 311 310 308 307 305 304 312 316 312 304 294 297 302 307 308 304 302 301 302 302 303 302 302 307 308 308 306 304 300 302 307 303 301 301 298 301 301 297 291
309 309 310 310 310 310 311 311 310 309 307 308 312 303 315 312 300 301 297 302 303 306 309 306 305 304 301 303 302 303 303 307 310 308 303 304 302 297 301 308 310 306 303 301 296 294 298
308 308 309 310 310 310 310 310 310 308 307 303 307 309 314 310 294 295 300 302 305 305 307 304 304 305 305 301 299 305 307 312 311 308 303 308 299 292 296 301 307 304 304 301 302 300 296
308 308 309 309 310 310 310 310 310 309 308 303 308 306 307 307 304 299 298 301 302 308 307 307 305 305 302 300 302 303 305 310 312 310 322 311 301 299 292 298 305 305 307 305 301 298 298
308 308 308 308 309 310 310 311 310 309 308 303 309 308 311 300 300 300 301 302 302 302 307 306 303 303 300 296 301 301 305 306 311 316 309 304 298 302 303 305 306 305 306 307 304 301 297
308 308 308 309 309 309 310 310 310 309 307 306 306 306 307 305 309 306 301 301 302 304 305 303 301 304 303 297 300 300 302 302 305 314 312 307 298 305 299 305 306 304 307 309 308 309 307
308 308 308 309 308 308 309 310 310 308 305 311 313 312 309 304 303 303 302 305 304 306 307 308 307 304 303 305 310 309 308 306 305 305 308 311 302 301 296 305 304 299 304 307 310 309 309
309 308 308 309 308 308 308 310 310 308 306 303 312 309 304 301 303 304 306 306 305 308 305 308 308 306 313 316 314 312 309 307 309 307 308 307 308 307 299 302 293 303 310 310 308 311 312
310 309 308 309 308 307 308 309 310 309 307 302 309 308 306 301 304 304 305 307 307 309 308 307 309 312 315 312 305 302 301 302 305 308 307 306 306 300 297 296 302 306 309 311 306 311 316
308 310 309 309 309 307 307 308 309 309 307 303 308 313 307 303 301 305 302 308 303 303 306 308 313 315 313 308 304 297 294 300 300 302 306 305 309 304 299 296 296 304 315 318 316 306 318
308 310 309 309 309 307 307 307 308 308 307 303 305 313 308 303 307 306 302 303 307 305 304 308 308 311 313 303 300 299 297 303 296 298 299 299 300 300 301 297 301 319 316 318 299 306 319
309 310 309 309 309 307 307 307 308 308 308 304 305 311 307 304 306 309 307 305 305 304 301 304 307 311 309 303 300 300 300 302 302 305 306 301 298 298 300 298 296 326 322 308 312 319 321
310 310 310 309 309 307 307 306 307 307 307 306 305 312 314 306 304 309 310 309 308 308 304 306 304 310 310 306 307 308 306 307 305 300 310 304 309 308 310 307 316 320 322 325 319 319 321

GFSGBSN_sfc_thetae_054.txt.gz
Theta_e
316 316 316 316 316 316 316 317 317 317 317 317 317 317 317 317 318 318 319 320 320 320 320 320 322 324 318 309 318 332 354 348 330 319 314 312 310 309 307 309 311 313 315 321 323 324 323
315 315 315 316 315 316 316 316 316 316 316 316 316 316 316 316 318 318 318 319 319 319 319 321 322 324 314 303 322 334 325 324 316 314 312 312 313 314 310 309 308 312 313 314 318 324 325
315 315 315 315 315 315 315 315 316 315 315 316 315 316 316 317 316 318 318 318 318 318 319 321 323 325 314 305 316 320 318 315 315 313 312 316 317 310 311 309 313 311 310 313 315 317 320
314 314 314 315 315 315 315 315 315 315 315 315 315 315 315 316 316 317 317 316 317 318 320 322 325 318 303 318 316 319 316 316 315 313 315 316 315 311 309 311 308 310 308 304 313 316 316
313 314 314 314 314 314 314 314 314 314 314 314 314 314 315 315 316 316 315 315 317 321 323 326 317 310 309 325 315 314 316 316 316 316 314 319 312 307 308 302 298 302 301 305 309 316 316
313 313 313 314 314 314 313 313 313 314 314 314 314 314 315 315 315 315 314 315 317 319 321 324 322 303 309 312 315 316 314 314 312 313 312 311 305 301 299 296 292 296 302 305 306 313 315
313 313 313 313 313 313 313 313 313 313 313 314 314 314 314 314 314 314 309 304 305 305 307 305 311 308 311 316 317 314 314 314 312 310 301 306 300 297 300 300 302 303 304 306 310 314 311
312 312 312 312 312 313 313 312 312 312 312 313 313 313 314 313 313 313 306 300 308 305 300 308 310 311 315 316 310 312 314 306 308 302 304 300 296 304 306 305 303 302 302 306 310 315 309
312 312 312 312 312 312 312 312 312 312 312 312 313 313 313 312 311 308 303 305 312 307 298 304 308 307 308 310 308 309 310 307 305 302 302 298 302 309 307 305 303 299 303 305 307 310 311
312 311 311 311 312 312 312 311 311 312 312 312 312 312 312 309 304 302 303 309 306 306 293 300 302 306 308 308 304 313 312 309 305 303 303 301 306 306 304 303 302 293 308 311 310 303 295
312 311 311 311 311 311 311 311 311 312 312 312 312 312 311 310 300 300 306 310 309 305 284 305 305 311 305 304 306 308 313 307 304 304 302 301 303 303 302 303 305 301 305 303 304 299 295
311 311 311 311 311 311 311 311 312 312 312 312 311 311 310 305 302 305 309 304 304 294 288 302 305 302 301 302 305 308 307 307 309 305 303 303 308 305 304 307 306 306 303 300 298 294 291
311 310 310 311 311 311 311 311 311 312 311 311 310 309 307 308 298 304 304 301 291 287 301 298 298 298 299 300 301 303 302 299 297 294 294 301 303 306 308 303 304 301 293 288 289 289 290
310 310 310 310 310 311 311 311 311 311 311 310 308 308 305 307 304 304 301 295 286 296 296 301 301 300 298 299 300 302 300 297 300 299 295 294 294 303 308 303 299 296 294 289 285 288 293
309 310 310 310 311 311 311 311 311 311 310 309 307 302 303 305 308 304 297 288 289 296 303 301 300 296 296 299 300 299 298 298 301 301 295 292 295 307 308 307 304 298 294 297 291 289 290
309 310 309 310 311 311 311 311 311 311 310 308 299 301 301 310 308 299 293 290 293 301 303 301 295 298 295 298 297 296 296 301 303 305 301 298 293 300 307 306 304 301 302 294 291 287 285
309 310 309 310 310 311 311 311 311 310 309 307 299 297 306 310 304 296 289 290 297 303 303 299 297 296 297 297 297 296 298 304 304 304 302 298 295 300 304 299 297 298 295 296 295 292 288
309 309 310 310 310 310 311 310 310 309 307 304 300 297 308 309 295 293 291 296 301 301 304 301 301 299 297 299 296 297 300 304 308 305 299 300 295 293 298 304 308 301 298 294 292 291 293
309 309 309 309 310 310 310 310 310 309 307 298 296 300 307 304 290 290 294 298 301 300 301 300 299 301 300 296 292 299 303 308 308 305 298 303 293 290 294 296 300 300 301 298 296 294 292
309 309 308 309 309 310 310 310 310 309 308 300 298 299 301 298 294 292 291 294 297 305 302 302 301 300 298 296 295 295 299 306 309 312 323 307 295 292 290 293 301 300 303 302 298 294 294
309 310 309 310 309 309 310 310 310 309 308 299 299 298 301 296 295 295 293 295 295 297 303 302 297 299 296 291 294 295 300 301 305 314 310 300 293 300 298 301 302 302 302 304 300 298 296
310 309 309 309 309 308 310 310 310 309 306 298 298 299 302 298 299 296 294 292 296 299 299 299 297 301 298 294 293 293 299 295 297 304 304 305 296 298 295 302 303 302 304 305 305 305 303
309 309 309 309 309 308 308 310 310 308 304 298 305 304 302 300 296 296 296 300 302 303 303 303 303 300 302 304 305 303 302 301 299 303 300 304 301 298 291 300 301 294 301 304 306 307 304
309 309 309 309 309 308 308 308 310 308 304 296 297 301 299 296 298 300 301 301 302 302 299 304 303 300 307 311 309 305 303 302 303 301 303 298 297 301 296 297 289 300 306 308 308 315 314
309 309 309 309 309 309 308 308 309 309 307 296 296 299 297 295 300 299 299 302 302 302 301 305 307 305 308 306 299 295 296 296 299 302 299 301 299 295 294 293 298 304 308 309 306 310 316
309 309 310 309 309 309 307 307 308 309 307 297 298 302 298 294 295 302 298 300 297 298 303 305 307 308 306 301 299 291 289 293 294 299 298 298 299 297 294 291 291 302 315 317 315 303 317
309 308 309 310 309 309 307 307 307 309 307 299 296 300 299 294 298 299 295 297 301 299 298 301 302 306 306 299 296 294 295 298 292 292 293 294 293 293 294 294 298 316 322 320 299 301 317
309 309 309 310 310 309 307 307 307 308 308 300 296 300 299 293 296 302 302 296 297 298 295 298 301 302 304 299 296 296 296 299 293 299 300 295 295 292 294 293 292 318 319 305 309 313 317
310 309 310 310 310 309 307 307 307 307 307 305 296 303 305 297 295 301 304 304 301 300 298 298 298 301 304 300 301 301 302 302 300 296 304 298 301 298 304 301 310 317 313 314 316 316 319

GFSGBSN_sfc_thetae_057.txt.gz
Theta_e
315 315 316 316 316 316 316 316 316 317 317 317 317 317 317 317 317 318 318 319 319 319 320 320 321 322 315 305 310 337 352 350 326 318 313 310 307 307 305 307 309 308 310 313 313 314 320
314 315 315 315 316 315 316 316 316 316 316 316 316 316 316 316 317 318 318 318 318 318 319 320 321 322 310 298 313 335 326 322 316 311 309 309 308 311 308 307 306 309 310 310 314 322 323
314 314 315 315 315 315 315 315 315 315 315 315 315 315 315 316 316 317 318 317 318 318 319 320 321 323 312 303 313 326 318 312 312 311 308 313 314 309 309 306 310 309 309 311 313 317 320
314 314 314 315 315 315 314 315 315 315 314 315 314 314 315 315 316 316 317 316 317 318 320 322 323 319 302 312 316 315 314 312 313 310 311 313 313 309 307 310 306 306 306 302 309 313 318
313 314 314 314 314 314 314 314 314 314 314 314 314 314 314 315 315 315 315 314 318 320 323 325 316 307 307 320 314 315 315 314 313 312 311 317 310 304 305 299 297 298 296 301 307 313 313
313 313 313 314 314 313 313 313 313 313 313 313 313 314 314 314 314 314 313 315 317 318 321 322 321 301 304 308 313 313 311 315 310 308 310 308 303 299 297 295 291 295 298 301 303 310 311
313 313 313 313 313 313 313 313 313 312 312 313 313 313 313 314 314 313 309 302 303 302 304 304 306 304 309 313 316 311 312 309 308 306 299 303 299 295 299 299 300 299 299 298 304 309 308
313 312 312 312 312 313 312 312 312 312 312 312 312 313 313 313 312 312 305 299 303 301 298 306 307 310 313 313 307 311 312 305 305 300 302 299 295 301 304 303 301 299 297 298 302 309 307
312 312 312 312 312 312 312 312 311 311 312 312 312 312 312 312 311 305 298 301 305 301 297 302 305 305 306 309 306 308 309 305 302 300 299 296 300 306 304 302 300 297 296 299 300 307 307
312 312 311 311 311 311 311 311 311 311 312 312 312 312 311 310 301 301 299 304 306 301 292 297 301 305 305 307 303 312 311 308 303 300 300 299 304 304 302 300 300 292 302 304 306 302 295
312 311 311 311 311 311 311 311 311 311 312 312 312 312 311 309 299 300 302 305 303 301 283 301 302 308 302 303 304 306 309 305 301 302 300 299 301 300 300 301 301 299 303 305 304 296 292
312 311 310 311 311 311 311 311 311 312 312 311 311 311 310 303 299 303 306 302 301 292 285 298 303 299 298 299 303 305 305 306 306 301 301 301 305 303 303 305 304 304 299 296 295 292 289
311 310 310 310 310 311 310 311 312 311 311 311 310 309 307 306 294 301 301 299 290 286 298 296 296 297 294 295 298 301 300 297 296 291 292 298 300 303 306 301 302 298 291 286 287 287 288
311 309 310 310 310 310 310 311 311 311 311 310 308 308 304 305 303 302 299 294 284 293 294 300 299 298 295 297 298 299 297 295 297 296 293 293 292 300 305 301 298 295 292 287 283 285 289
309 309 310 310 310 310 311 311 311 311 310 309 307 298 300 303 306 300 296 287 288 293 300 299 298 295 295 298 297 296 295 295 298 299 294 291 293 303 305 304 303 297 292 294 288 287 288
310 310 310 309 309 310 310 311 311 311 310 308 298 297 299 306 307 297 292 289 291 298 299 298 293 296 293 296 296 295 294 299 299 301 297 296 292 299 304 304 302 299 300 292 289 286 284
310 309 309 309 309 309 310 311 310 310 309 307 298 298 302 306 299 295 288 289 294 300 301 297 295 294 295 295 294 293 296 302 302 302 299 294 293 297 301 297 297 296 293 293 291 289 287
310 309 309 309 309 309 309 310 310 309 307 301 296 296 303 303 292 290 289 293 299 298 300 299 298 297 295 297 294 294 297 301 306 303 296 295 292 291 295 300 303 297 294 294 290 288 290
310 309 309 309 309 309 310 310 310 309 306 298 292 296 307 300 289 289 291 295 298 296 297 297 298 299 298 295 291 296 299 305 307 307 300 299 291 288 291 295 298 298 298 295 292 291 291
310 309 309 309 309 309 309 310 310 309 308 300 294 298 299 296 292 292 291 293 294 301 299 299 298 298 295 293 294 294 297 303 305 308 322 305 291 291 289 292 297 298 300 300 295 291 291
310 309 309 309 309 309 308 310 310 309 308 298 295 295 299 293 294 294 294 295 294 294 300 298 295 298 296 290 292 292 298 300 303 310 306 300 291 296 295 299 299 300 300 301 297 295 294
309 309 309 309 309 309 308 309 310 309 306 297 295 298 300 298 296 296 295 293 296 297 298 298 295 298 296 292 294 295 298 294 295 301 298 302 297 295 292 300 301 300 302 303 302 302 301
310 309 309 308 309 309 308 308 309 308 302 294 301 304 300 297 297 293 293 297 299 300 301 302 302 299 300 303 304 301 301 302 298 300 297 300 296 296 294 298 298 292 298 301 302 304 304
310 310 309 309 309 309 308 308 309 308 303 295 295 299 295 294 295 298 299 299 300 301 298 302 301 301 306 308 307 300 299 300 300 298 298 296 294 298 295 294 287 296 305 306 307 313 312
311 309 309 309 309 309 309 308 308 309 307 296 293 297 295 293 297 298 299 299 300 300 301 303 306 305 304 304 297 293 294 294 296 300 298 297 296 291 292 291 296 303 308 307 303 303 314
311 310 309 309 309 309 309 308 307 308 307 295 293 298 295 293 294 300 297 298 296 296 301 304 306 306 304 298 297 289 288 291 292 296 294 297 295 293 292 288 288 299 316 319 313 299 314
311 310 309 310 310 309 309 307 308 308 307 299 294 296 295 292 296 296 295 295 299 297 297 298 299 305 303 295 295 293 291 296 291 289 290 290 291 291 291 290 296 310 314 318 298 298 312
311 310 309 309 310 309 309 307 307 307 307 300 295 297 296 291 294 298 300 295 295 296 294 296 301 301 301 298 295 293 294 297 296 298 296 295 294 291 291 289 290 313 313 304 306 310 315
311 310 310 309 311 309 309 307 307 307 307 303 294 299 301 296 295 297 302 303 300 298 297 297 298 299 303 298 299 298 299 299 296 295 301 297 299 297 300 299 308 313 309 312 310 311 316

GFSGBSN_sfc_thetae_060.txt.gz
Theta_e
315 315 316 316 316 316 316 316 316 316 316 316 316 316 316 316 317 318 318 318 319 319 319 320 321 322 313 301 304 341 354 353 339 319 313 309 305 304 303 305 306 304 307 309 310 312 315
315 315 315 316 316 315 315 315 316 316 315 316 315 315 315 315 316 317 317 318 318 318 319 320 321 321 306 296 310 339 330 320 315 311 307 308 305 309 306 306 304 307 307 308 313 319 320
315 315 315 315 315 315 315 315 315 315 315 315 315 315 315 315 316 316 317 317 317 318 319 320 321 321 306 302 313 326 320 313 312 308 305 309 308 307 306 305 308 306 306 310 310 314 317
314 314 314 315 315 315 314 315 315 314 314 314 314 314 314 314 315 316 316 316 316 318 321 322 322 316 299 309 313 316 313 311 311 309 308 310 312 307 305 307 304 303 303 299 307 312 316
314 313 314 314 314 314 314 314 314 314 313 313 313 313 314 314 315 315 314 314 317 319 324 324 314 308 302 316 308 312 313 311 311 310 309 315 308 302 302 297 294 296 295 298 305 311 311
314 313 313 313 313 313 313 313 313 313 313 313 313 313 314 314 314 314 313 315 316 318 321 321 319 299 303 305 310 312 310 313 310 306 308 306 301 298 296 295 290 292 294 296 299 304 307
313 313 313 313 313 313 313 313 312 312 312 312 313 313 313 314 313 313 309 301 301 300 301 302 303 301 306 311 313 309 310 307 305 304 296 301 298 294 298 298 298 297 296 296 301 303 303
312 313 312 312 312 312 312 312 312 312 312 312 312 313 313 313 312 312 303 300 300 299 296 303 304 306 311 310 305 308 311 303 303 299 300 298 293 301 302 301 299 298 296 296 300 305 304
312 312 312 312 312 312 312 312 311 311 312 311 312 312 312 312 311 303 298 299 303 298 294 300 303 303 304 308 304 306 308 304 301 298 298 295 299 304 302 300 298 294 294 295 298 303 304
312 312 312 311 311 311 311 311 311 311 311 312 312 312 311 309 299 299 299 301 302 300 290 296 298 303 303 304 301 310 310 307 301 298 299 297 301 302 300 299 298 290 299 301 299 300 294
312 312 311 311 311 311 311 311 311 311 311 312 312 311 311 309 298 297 301 300 300 297 282 298 299 305 299 300 301 304 308 304 301 300 298 297 299 298 298 299 300 298 300 299 302 296 291
312 311 311 310 310 310 311 310 311 311 311 311 311 310 309 302 297 301 302 300 299 291 283 295 301 296 295 297 300 302 303 305 304 300 299 298 302 301 301 303 302 302 297 294 292 290 287
311 311 310 310 310 310 310 311 311 311 311 311 310 309 307 305 293 299 299 298 290 284 295 294 294 296 293 294 296 299 298 296 295 291 290 295 297 300 303 299 299 296 290 286 286 286 287
312 311 310 310 310 310 310 310 311 311 311 310 308 308 304 304 302 300 296 294 283 290 292 297 297 295 293 295 295 297 296 294 295 294 290 290 290 298 302 300 298 293 291 287 282 283 287
311 310 310 310 310 310 310 310 310 311 310 309 307 297 297 300 305 298 294 286 288 291 297 296 295 293 293 296 295 295 293 293 296 297 292 289 292 300 302 301 301 295 291 292 287 285 286
311 310 310 310 310 309 309 310 310 311 310 308 296 295 298 304 304 295 291 288 289 295 297 295 291 293 290 294 293 293 292 298 296 299 295 293 290 296 302 302 300 297 298 291 288 284 283
312 310 310 309 309 309 309 310 310 310 309 306 296 296 301 303 295 293 287 287 293 298 298 294 293 292 293 293 292 291 294 300 301 300 297 293 292 293 298 295 295 294 291 290 289 288 286
312 311 311 310 309 309 310 310 309 309 307 299 291 292 301 298 290 286 288 292 298 297 298 297 296 295 294 295 292 292 295 299 303 302 294 295 290 288 294 298 301 296 294 292 289 287 288
312 311 310 310 309 309 310 310 309 308 307 298 289 292 304 297 287 286 289 293 296 294 295 293 295 297 296 292 290 294 297 302 303 305 300 294 289 287 290 292 296 297 295 292 290 290 290
312 310 310 310 309 309 309 310 309 309 308 300 292 295 298 294 291 288 289 292 293 299 297 296 296 296 293 291 291 292 295 301 303 304 315 304 289 289 287 290 294 297 299 297 294 291 290
312 311 310 310 309 309 309 309 309 309 307 298 294 292 300 293 293 291 291 294 293 294 297 297 292 295 294 289 290 291 297 299 301 307 303 297 292 293 293 295 298 298 299 300 296 295 295
313 311 310 309 309 309 309 309 309 309 306 296 293 297 298 296 295 295 294 293 295 296 295 295 293 297 295 291 293 293 297 294 294 299 298 299 295 295 292 298 300 298 300 301 301 299 301
313 312 310 310 309 309 309 309 309 308 300 290 298 302 296 295 295 292 293 295 298 299 300 299 300 299 296 300 301 299 300 301 296 298 295 296 294 294 292 298 297 293 296 300 303 303 304
313 312 310 310 309 309 309 309 309 308 303 294 291 298 294 293 295 296 299 299 299 301 297 302 302 301 304 307 305 300 299 298 299 297 296 294 294 295 293 293 287 296 307 307 307 310 311
313 312 311 310 309 308 309 309 308 308 307 295 293 295 293 291 297 297 299 298 299 300 301 304 305 304 303 303 297 294 294 293 296 298 295 294 293 290 291 289 295 302 311 310 307 303 311
313 312 311 310 309 309 309 309 308 308 307 295 293 294 295 292 295 299 297 297 295 294 299 301 304 306 303 298 296 290 289 292 292 294 296 296 293 292 292 288 288 302 312 315 314 298 311
313 312 311 310 310 310 309 309 308 308 307 298 294 294 294 291 295 297 294 293 296 295 294 295 297 303 300 294 292 291 290 295 291 288 290 290 291 289 289 288 294 308 311 313 297 297 310
313 312 311 311 310 310 309 309 308 307 307 298 293 296 295 291 293 297 300 293 293 294 292 295 299 300 299 296 292 291 292 296 295 297 295 295 294 290 290 287 287 311 309 303 306 309 312
312 312 311 310 309 310 310 309 308 307 307 300 289 296 298 295 295 296 300 302 299 298 295 295 298 298 302 299 297 297 297 297 295 293 300 296 299 297 299 298 306 311 307 311 310 311 314

GFSGBSN_sfc_thetae_063.txt.gz
Theta_e
316 316 316 316 316 316 316 316 316 316 316 316 316 316 316 316 317 317 318 319 319 319 319 320 321 322 319 308 308 342 356 353 348 324 318 315 311 311 308 312 312 311 313 314 315 319 320
315 315 315 316 316 316 316 316 316 316 315 315 315 315 315 315 316 317 317 318 318 318 319 320 321 321 312 304 320 341 341 341 332 319 316 314 311 313 312 312 311 313 313 313 317 322 323
315 315 315 315 315 315 315 315 315 315 315 315 315 315 315 315 315 316 317 317 317 318 319 320 322 321 310 307 325 331 326 322 320 317 312 314 313 313 314 311 313 312 310 314 317 320 323
314 314 314 314 315 315 314 315 315 314 314 314 314 314 314 314 315 316 316 316 316 318 321 325 322 322 306 313 318 320 323 319 317 317 314 316 317 315 313 314 310 309 311 309 314 317 321
314 314 314 314 314 314 314 314 314 313 313 313 313 313 314 314 315 315 314 314 317 320 323 324 319 312 306 319 312 317 321 317 316 316 316 316 316 311 311 308 307 307 304 306 309 315 316
313 313 314 313 313 313 313 313 313 313 313 313 313 313 314 314 314 314 313 315 317 320 323 323 321 309 310 309 315 317 318 318 316 314 313 312 311 309 308 307 302 302 302 304 305 310 311
313 313 313 313 313 312 313 313 313 312 313 313 313 313 313 313 313 312 312 310 309 309 308 310 309 306 309 316 317 316 316 315 313 311 307 308 306 305 307 307 306 305 304 304 307 309 308
312 312 312 312 312 312 312 312 312 312 312 312 313 313 313 313 312 312 308 307 304 304 302 308 307 308 312 314 309 313 315 311 310 306 307 306 304 309 307 306 305 304 303 304 307 310 310
312 312 312 312 311 311 312 311 311 312 312 312 312 313 312 311 311 308 303 306 307 306 302 306 308 308 309 312 308 310 313 311 308 306 306 304 306 307 306 306 304 306 304 305 304 307 311
312 312 312 311 311 311 311 311 311 311 312 312 312 312 311 309 304 304 305 307 306 306 299 301 303 307 308 310 306 313 315 313 307 306 305 305 307 306 305 304 306 303 307 305 304 305 302
312 312 312 311 311 311 310 311 311 311 312 312 312 311 311 309 304 301 306 306 306 304 289 302 304 310 307 306 306 308 313 312 307 305 306 304 304 304 304 305 306 305 306 305 305 307 304
312 312 312 310 311 311 310 310 310 311 311 311 311 311 309 305 304 305 306 305 306 298 288 298 305 303 303 305 305 307 309 312 311 307 305 306 307 307 307 308 307 307 305 303 304 304 299
312 312 312 310 311 311 310 310 311 311 311 311 310 309 307 307 300 305 306 306 297 291 300 298 300 303 302 301 303 305 304 305 304 301 301 304 304 307 308 305 306 305 304 300 297 297 297
313 312 311 310 311 310 310 310 311 311 310 310 308 308 307 307 309 306 305 302 292 296 297 301 302 302 300 302 301 302 302 301 303 303 301 299 297 303 308 306 305 305 305 300 293 294 297
314 312 311 311 311 310 311 310 310 310 310 309 307 305 304 307 309 306 303 295 295 297 300 299 300 299 300 301 301 301 302 302 305 305 301 299 298 305 306 308 309 303 302 304 300 298 298
314 313 311 311 311 310 310 310 310 310 309 308 302 302 305 309 309 303 299 295 297 298 301 300 296 299 297 300 300 301 301 304 302 304 306 304 299 304 306 308 306 307 307 301 302 296 294
314 313 311 311 310 310 310 310 310 310 309 306 302 300 306 310 303 301 294 296 298 301 302 299 298 297 299 298 300 300 301 305 307 305 305 304 304 302 306 305 305 303 303 301 303 301 297
315 313 312 311 310 310 310 310 310 309 307 302 298 295 307 306 297 296 296 298 298 301 302 301 302 300 298 299 300 300 301 305 307 308 303 304 304 301 302 305 306 306 306 307 300 300 301
315 313 312 311 310 310 310 310 309 308 307 300 295 297 309 304 294 295 297 297 299 299 300 299 300 302 302 301 299 300 302 306 307 310 308 305 302 299 300 303 305 305 304 305 305 306 303
315 313 312 311 311 310 310 310 309 309 308 301 297 301 303 302 298 296 297 298 298 301 300 300 300 302 301 301 302 300 302 305 307 308 315 311 302 302 298 301 304 305 304 304 307 304 304
315 314 312 311 311 309 309 310 310 309 307 303 299 299 302 298 299 299 299 299 298 297 301 301 300 299 300 300 300 300 304 305 306 311 311 309 305 304 304 303 304 305 306 305 305 307 305
315 314 312 311 310 310 309 310 310 309 304 303 298 301 304 300 302 300 298 300 298 300 301 300 299 301 301 301 303 301 305 306 305 308 308 309 308 307 304 305 306 303 305 306 306 305 307
315 314 313 311 310 310 309 309 309 307 301 295 299 305 302 300 301 299 300 300 300 302 304 304 302 302 299 302 305 308 309 309 308 307 307 308 308 307 300 306 304 301 303 305 308 311 311
315 314 313 311 310 309 309 309 309 308 304 301 297 300 299 299 300 301 301 301 300 302 301 305 307 307 308 312 310 308 307 307 307 307 307 306 308 308 303 304 295 304 318 315 314 314 316
315 314 313 311 311 309 308 309 308 308 304 304 301 297 299 296 299 301 300 301 302 304 303 306 308 310 311 309 305 302 302 302 303 303 305 305 306 302 300 301 302 309 314 314 314 310 316
314 314 313 312 311 310 309 309 308 308 307 303 300 299 300 296 297 301 300 299 300 301 305 306 309 311 309 306 303 297 295 298 298 300 304 305 307 302 301 297 294 308 314 316 318 308 316
314 313 313 312 311 310 310 309 309 308 307 305 301 300 301 296 300 302 299 297 300 301 301 301 303 309 309 303 299 297 297 300 297 297 301 302 303 299 299 297 301 313 314 317 306 307 317
314 313 312 312 311 310 310 310 309 307 307 304 299 301 301 298 300 301 302 299 300 301 299 303 306 308 309 305 301 301 300 304 304 305 305 304 303 301 299 297 295 315 313 310 314 317 317
313 313 312 311 311 311 310 310 309 307 307 301 295 301 302 299 302 303 306 307 305 304 300 304 306 306 309 308 306 307 306 307 305 302 309 305 309 309 309 306 314 317 314 316 316 315 316

GFSGBSN_sfc_thetae_066.txt.gz
Theta_e
316 317 317 317 316 316 316 317 317 317 316 316 317 317 317 317 317 317 318 319 319 319 319 320 321 323 323 314 314 347 358 355 346 331 327 321 320 319 317 319 318 317 319 320 320 322 326
316 316 316 316 316 316 316 316 316 316 316 316 316 316 316 317 317 317 318 318 318 318 319 320 322 322 318 309 325 342 342 341 335 328 323 323 319 318 316 317 317 319 319 319 321 323 327
315 315 315 315 315 315 315 316 316 315 315 315 315 316 316 316 316 317 317 317 317 318 319 321 323 324 314 312 326 337 339 336 333 327 320 319 318 316 318 317 319 318 315 319 320 321 321
315 315 315 315 315 315 315 315 315 315 315 315 315 315 315 315 315 316 316 316 317 319 322 325 324 324 311 318 323 326 329 326 326 327 320 321 321 319 317 319 317 314 317 312 318 319 321
314 314 314 314 314 314 314 314 314 314 314 314 314 314 315 315 315 315 314 314 317 320 324 324 325 317 310 318 316 321 325 320 322 322 322 320 320 317 316 312 313 315 309 311 313 317 318
313 313 313 314 313 313 313 314 313 313 313 314 314 314 314 314 314 314 313 315 321 319 325 327 324 315 315 312 318 321 324 323 319 319 317 316 316 313 313 311 304 308 310 311 310 314 316
313 313 313 313 313 313 313 313 313 313 313 313 313 314 313 313 313 312 314 319 316 316 315 313 315 313 312 317 321 319 321 320 320 317 311 315 310 308 310 312 312 310 309 308 312 315 312
313 313 313 313 312 312 312 312 312 312 312 312 313 313 313 313 312 311 314 313 307 308 306 314 313 314 317 318 312 317 321 315 314 309 312 310 307 312 312 312 310 310 308 308 311 313 313
313 313 313 312 312 312 312 312 312 312 312 313 313 313 312 311 311 312 310 312 313 312 308 311 314 312 314 315 312 313 318 316 312 310 310 308 310 312 310 310 308 309 308 308 308 312 314
313 313 313 312 312 312 311 311 311 312 312 312 312 312 311 308 309 309 311 313 312 313 303 306 307 312 312 314 309 317 319 316 313 309 310 310 312 309 308 307 309 306 311 309 308 307 305
313 313 313 312 311 312 311 311 311 311 312 312 312 312 311 309 308 307 310 312 313 312 292 307 309 315 314 311 311 312 319 316 310 310 311 309 308 307 306 307 310 308 311 310 310 308 309
314 313 313 312 311 312 311 311 311 311 311 311 311 311 310 310 310 310 312 312 313 300 292 302 308 307 308 310 310 312 312 316 316 311 312 311 313 311 310 311 311 312 310 311 310 309 303
315 313 313 312 311 311 311 311 311 311 311 311 310 309 308 309 306 311 312 310 300 295 304 301 303 307 307 307 308 309 309 308 306 304 305 309 309 311 312 308 312 310 308 302 301 301 300
316 314 313 312 311 311 311 311 311 311 311 310 308 307 311 311 316 313 309 304 295 300 301 305 304 306 304 307 307 307 307 306 310 310 306 304 302 309 312 309 308 309 308 303 297 298 301
316 315 313 312 312 311 311 311 311 310 310 309 307 310 311 317 315 313 304 297 298 302 303 302 304 302 304 306 305 306 306 306 309 310 305 304 304 310 310 312 311 308 305 311 306 306 301
317 316 314 312 312 311 311 311 311 310 309 308 305 307 310 316 316 309 300 297 303 305 305 304 299 303 301 304 304 306 306 308 308 311 313 309 303 308 310 312 311 310 313 304 305 299 297
317 316 314 313 312 311 311 311 311 310 309 307 307 302 313 317 313 303 296 299 303 306 306 302 302 302 303 302 304 305 305 309 311 309 312 310 307 306 309 308 307 307 306 308 308 307 300
317 316 314 312 312 311 311 311 310 309 307 305 304 298 314 313 300 300 297 301 300 304 307 305 305 303 302 303 303 304 305 309 312 313 306 310 308 303 305 310 312 311 309 310 303 304 306
317 316 314 313 312 310 311 311 310 308 307 304 299 302 314 311 297 298 300 300 302 303 304 303 303 304 305 303 301 305 306 310 312 312 311 311 306 301 303 307 309 307 309 310 311 312 306
317 316 314 313 312 311 310 311 310 309 308 305 301 301 309 306 306 302 300 299 299 304 303 304 304 306 304 303 306 304 305 308 310 314 317 314 310 307 301 305 308 306 307 309 310 305 305
317 316 314 313 311 311 310 310 310 309 308 306 304 304 308 304 302 301 303 303 302 301 306 306 304 303 303 301 303 303 307 308 309 311 316 316 309 309 308 308 307 308 307 308 307 309 307
317 316 315 313 312 311 309 310 310 309 306 308 305 306 310 307 307 304 301 303 303 305 306 304 303 305 305 303 305 303 306 308 307 311 313 315 309 311 308 307 308 306 308 310 310 310 311
317 316 315 314 312 311 310 309 309 307 306 301 305 310 308 306 306 303 305 304 304 307 308 308 307 306 305 306 309 310 313 314 314 311 308 309 310 308 303 308 307 303 308 309 311 313 314
317 316 315 314 312 311 310 309 308 307 305 304 303 302 305 303 306 304 304 306 305 306 306 309 312 309 313 316 315 314 313 312 312 313 314 309 310 309 303 307 298 313 320 317 312 318 320
316 315 315 314 312 311 309 309 309 307 306 307 306 302 306 301 303 303 304 304 308 309 308 308 312 316 318 314 309 307 305 306 307 309 311 313 310 304 301 301 305 311 318 317 315 315 321
316 315 315 314 312 312 309 309 309 308 307 306 305 306 305 301 302 302 302 304 304 306 309 311 314 320 316 312 307 302 298 302 302 305 312 310 313 305 303 298 296 313 318 321 322 312 322
315 315 314 314 313 312 311 310 310 308 307 306 305 306 306 302 304 304 304 303 305 306 307 307 311 312 317 308 304 302 301 305 300 300 303 305 305 301 301 300 305 316 318 322 310 311 321
315 314 314 313 313 312 311 311 310 308 307 305 304 307 304 304 305 306 305 302 303 306 305 309 309 313 309 304 301 302 300 305 303 308 306 304 303 301 303 300 298 318 317 314 317 321 320
314 314 313 313 313 312 311 311 310 308 307 304 300 309 310 304 306 311 310 310 308 307 304 309 312 312 311 309 310 311 305 309 306 300 314 305 312 310 310 310 317 320 319 320 320 319 321

GFSGBSN_sfc_thetae_069.txt.gz
Theta_e
317 317 317 317 317 317 317 317 317 317 317 317 317 317 317 317 318 318 319 319 319 319 320 321 322 323 322 320 317 347 359 357 345 343 332 329 325 326 321 322 323 320 322 323 324 324 326
317 317 316 316 317 316 316 317 317 316 316 316 316 316 317 317 317 317 318 318 318 318 320 321 323 322 324 312 329 344 342 343 334 331 329 327 324 325 320 320 320 323 322 322 324 323 326
316 316 316 316 316 316 316 316 316 316 316 316 316 316 316 316 316 317 317 317 317 318 320 322 324 325 317 315 325 338 340 335 334 331 324 326 326 321 322 320 323 321 317 321 321 322 322
315 315 315 315 315 315 315 315 315 315 315 315 315 315 316 316 316 316 316 315 316 318 321 326 327 326 315 321 326 331 338 334 335 331 326 324 324 321 320 322 320 317 317 313 319 321 322
314 314 314 315 315 314 314 315 315 314 314 315 315 315 315 315 315 315 314 314 316 321 324 327 327 324 313 320 317 324 331 327 329 326 327 324 322 318 318 313 311 314 310 312 315 321 318
314 314 314 314 314 314 314 314 314 313 314 314 314 314 314 314 314 313 313 314 324 320 323 329 326 316 318 315 319 321 324 324 322 321 319 319 317 314 314 311 305 308 310 313 312 316 317
314 314 314 314 313 313 313 313 313 313 313 314 314 314 314 313 313 312 314 320 318 319 320 314 317 315 315 319 322 320 322 320 320 318 312 316 311 309 312 314 314 312 311 311 315 317 315
314 314 314 314 313 313 313 312 312 312 312 313 313 313 313 313 312 312 315 314 312 312 308 316 316 316 320 320 314 318 323 316 316 311 314 312 309 313 314 314 312 311 309 309 313 315 314
314 314 314 314 313 312 313 313 313 313 313 313 313 312 312 312 311 313 312 314 318 316 309 311 315 315 315 318 313 315 320 317 315 312 312 309 311 314 312 311 309 310 309 310 310 313 315
315 314 314 314 313 312 313 312 312 312 312 312 312 312 311 310 309 312 313 318 317 317 303 306 311 315 317 317 312 319 320 318 315 312 313 312 315 312 310 309 310 307 313 311 310 308 305
316 314 313 314 313 312 313 312 312 312 312 312 311 312 311 308 311 310 312 315 316 316 293 309 311 320 318 313 314 315 320 318 312 313 313 310 311 310 309 309 311 308 313 311 311 309 309
317 316 314 314 313 312 313 312 312 312 311 311 311 311 310 312 314 314 315 315 314 301 293 305 310 310 310 313 314 315 316 318 318 313 315 313 317 314 312 313 312 313 311 311 311 309 303
319 317 315 314 313 312 313 312 312 312 311 311 310 309 308 311 308 314 314 311 300 295 307 304 306 309 309 308 311 313 311 310 308 306 307 311 312 314 315 310 313 312 308 302 301 302 301
319 318 316 314 313 312 312 312 312 312 311 310 308 307 313 314 316 316 312 304 296 302 304 309 307 308 306 309 309 311 310 308 312 311 308 305 304 311 314 311 309 309 309 303 299 301 304
319 318 316 315 314 313 312 312 312 311 310 309 307 312 312 316 318 316 306 297 299 304 308 305 307 303 305 307 308 309 308 308 311 313 307 306 306 314 315 315 313 309 307 312 306 308 304
319 318 317 315 314 312 312 312 312 311 310 308 308 310 312 320 319 313 302 297 303 308 308 307 301 305 302 305 306 307 307 310 309 312 315 310 305 312 313 314 314 311 313 305 306 300 299
319 318 317 315 314 312 312 312 311 311 309 307 309 305 318 320 319 307 297 300 304 309 308 306 304 304 305 304 307 306 307 310 311 311 314 312 309 309 311 309 308 308 307 309 310 307 301
319 318 317 315 314 312 311 311 311 309 307 307 306 301 317 317 304 304 300 303 302 306 309 307 307 306 305 306 305 306 306 309 314 314 308 312 309 305 307 313 314 313 310 310 304 304 307
319 318 316 315 314 312 311 311 311 309 308 305 303 304 317 313 300 303 305 303 305 304 306 306 305 307 307 305 303 306 309 313 314 314 312 313 307 302 305 309 312 309 311 312 312 311 307
319 318 316 315 314 312 311 310 311 310 309 306 304 301 310 310 309 305 304 302 301 305 304 306 306 308 306 304 308 305 308 310 312 315 321 319 310 307 301 306 309 307 308 310 310 306 306
318 318 316 315 314 312 311 310 311 310 309 306 307 304 312 306 304 305 305 305 303 303 307 308 305 305 305 303 304 305 307 310 311 311 314 315 308 310 310 308 310 309 308 308 308 309 306
318 318 316 315 314 312 311 310 310 309 308 308 305 308 312 309 312 308 304 304 305 307 308 306 306 306 307 304 305 304 307 309 309 313 312 316 310 313 308 309 309 307 309 309 309 310 310
318 318 317 315 314 313 311 310 309 308 306 306 308 308 309 306 309 308 306 304 305 308 310 311 309 308 307 308 311 311 312 314 314 313 311 312 311 310 304 308 308 304 307 308 310 311 311
317 317 317 315 314 312 311 310 309 308 306 308 307 304 304 302 306 305 307 307 307 309 307 311 312 312 315 320 317 314 312 313 314 313 315 312 312 310 304 306 297 312 319 315 312 318 320
316 317 317 315 314 313 311 310 310 308 308 308 309 304 305 303 307 307 307 305 309 312 311 311 314 318 321 316 309 306 305 308 309 311 312 313 311 306 302 302 307 313 317 315 313 317 324
315 316 316 315 314 313 312 310 310 308 308 308 309 310 305 304 304 307 305 308 306 306 310 311 317 320 318 313 307 302 300 303 303 306 313 313 314 307 305 300 298 314 320 325 323 312 325
314 316 316 315 315 313 312 310 311 309 308 307 308 312 306 303 308 307 305 305 309 308 308 311 313 312 315 309 303 302 300 307 301 302 306 306 307 302 302 300 304 318 320 324 308 313 324
314 315 315 314 314 314 312 312 311 310 308 307 308 313 305 303 307 309 308 306 307 309 306 309 310 312 309 305 306 304 303 304 305 307 306 305 305 303 304 301 298 321 318 315 319 324 323
314 315 314 314 313 314 313 312 311 310 309 307 305 312 311 305 306 311 310 311 311 310 307 311 314 312 313 309 309 309 305 308 306 301 315 303 308 310 313 311 321 322 320 322 322 321 322

GFSGBSN_sfc_thetae_072.txt.gz
Theta_e
317 317 317 317 317 317 317 318 318 318 317 317 317 317 317 317 318 318 319 319 319 319 319 321 322 324 321 316 319 344 359 354 343 338 332 332 328 325 320 322 321 319 321 323 323 323 323
317 317 317 317 317 317 317 317 317 317 317 317 317 317 317 317 317 317 318 318 318 318 319 321 323 323 322 311 332 341 340 340 333 332 332 330 328 327 322 319 318 320 320 321 322 322 323
315 316 316 316 316 316 316 316 316 316 316 316 316 316 316 317 317 317 316 316 317 318 319 321 324 325 316 314 324 338 338 334 331 329 325 328 329 323 323 318 321 320 316 318 320 322 321
315 315 315 315 315 315 315 315 315 315 315 315 315 316 316 316 316 316 316 315 316 318 320 323 327 325 313 323 325 324 335 333 333 332 329 328 325 320 318 320 317 314 315 310 317 320 321
315 315 315 315 315 314 314 314 314 314 314 315 315 315 315 315 315 315 314 314 316 320 323 326 325 321 315 325 319 322 329 329 330 329 328 327 322 317 317 311 309 311 305 309 313 319 319
315 315 315 315 314 314 314 314 313 313 314 314 314 314 314 314 314 314 313 314 323 322 321 326 325 315 318 316 319 320 325 329 326 324 320 319 316 312 312 309 302 306 307 310 311 317 318
315 315 315 315 314 313 313 313 313 314 314 313 313 313 313 313 313 312 312 317 316 317 318 314 316 313 315 320 322 319 320 319 321 318 312 315 310 306 309 312 312 311 309 309 313 317 315
315 315 314 315 314 314 313 313 313 313 313 313 313 313 313 312 312 312 313 314 314 314 306 314 315 317 320 321 314 317 322 314 313 310 313 311 307 312 314 313 312 311 309 309 312 314 313
317 315 315 314 314 314 314 314 314 313 313 313 312 312 312 312 310 314 314 313 320 316 306 309 312 312 316 318 314 315 319 316 312 310 311 309 311 314 312 311 309 309 307 308 308 312 314
318 317 315 315 314 315 314 314 313 313 313 312 312 312 311 309 310 312 311 318 318 317 301 305 309 312 314 316 312 318 319 317 313 310 312 312 315 312 311 309 310 306 311 310 309 308 303
319 318 317 315 315 315 314 314 313 313 312 312 312 311 311 309 307 310 314 316 316 314 291 308 311 320 315 311 314 314 319 315 311 311 312 310 311 311 309 310 312 308 312 310 310 308 307
320 319 318 316 315 315 314 313 312 312 312 312 311 310 310 310 312 315 316 315 313 299 292 304 311 310 309 311 312 316 315 317 316 311 313 312 317 314 313 314 313 313 309 309 310 307 300
320 320 319 317 316 315 314 313 312 312 312 311 310 309 307 310 306 313 314 310 298 294 306 303 305 309 308 308 309 311 310 310 307 304 305 310 311 314 315 311 313 311 306 299 299 299 299
320 320 319 318 316 315 313 313 312 312 311 310 308 307 313 313 316 316 312 303 293 301 303 308 307 308 305 308 308 309 308 307 311 309 305 303 301 310 314 311 308 309 307 300 296 297 302
320 320 319 318 317 315 313 313 312 311 311 309 306 313 312 316 318 316 306 296 298 302 306 305 307 303 304 307 307 307 306 307 310 311 306 304 303 313 314 315 313 308 306 310 303 305 301
320 320 319 318 317 315 313 313 312 311 310 308 305 309 312 318 320 312 302 296 301 307 308 307 302 305 301 304 304 305 305 309 309 312 314 309 304 310 312 315 314 311 312 303 305 298 297
320 320 319 318 317 315 313 313 311 311 309 306 309 306 317 320 318 308 298 300 304 308 309 305 304 303 304 303 304 304 305 309 311 310 312 310 309 307 311 309 308 309 306 307 307 306 299
319 319 318 318 317 315 313 312 311 310 307 307 307 301 318 319 305 306 302 304 302 306 309 307 307 306 304 304 304 305 304 308 313 313 307 310 307 304 305 312 314 311 309 308 302 303 306
319 319 318 318 316 315 313 312 311 310 308 303 303 306 313 314 298 302 307 306 305 305 305 305 305 307 308 304 302 305 306 311 313 312 312 314 306 301 303 308 311 308 309 310 311 311 305
319 318 318 317 316 315 313 311 311 311 309 305 303 301 307 312 308 304 303 304 304 308 305 306 305 307 305 304 307 304 305 309 313 312 323 318 310 309 299 305 309 307 308 309 309 306 306
319 318 318 317 316 315 313 312 311 311 310 306 307 304 308 303 307 308 307 305 303 303 309 306 305 304 303 301 303 303 306 307 310 315 312 314 310 309 308 308 307 307 307 308 306 308 304
318 318 318 317 316 314 313 311 311 311 308 305 304 303 308 306 309 308 305 305 303 304 307 306 306 305 306 304 304 303 306 307 307 312 310 314 310 311 307 309 309 306 308 309 309 308 308
316 318 318 317 316 315 313 311 311 310 306 308 310 308 303 302 306 307 307 307 304 308 309 310 310 308 306 306 312 312 310 311 311 312 311 312 312 310 304 306 306 302 308 310 309 311 312
314 317 317 317 316 315 313 312 311 310 307 306 307 307 300 298 303 305 308 308 308 308 306 308 311 309 314 320 318 314 312 310 310 312 315 307 307 311 304 309 297 307 316 318 315 320 323
313 315 317 317 316 315 313 312 311 310 309 306 308 306 301 298 304 306 307 307 309 310 309 309 312 316 319 315 309 306 305 306 307 310 312 313 311 305 302 301 305 309 311 312 316 315 323
312 315 317 317 316 315 313 312 311 311 310 307 308 311 305 299 300 306 305 308 305 305 307 311 316 320 317 311 308 302 298 301 301 305 312 312 317 306 305 299 297 308 310 312 316 312 323
313 314 316 316 316 315 314 313 311 311 310 307 307 313 305 299 303 306 304 304 308 306 305 311 312 313 315 308 304 301 301 308 301 302 306 305 308 303 302 299 303 317 316 320 303 312 323
313 314 315 316 315 315 314 313 311 311 310 308 307 313 306 300 302 305 308 306 307 307 304 309 309 312 310 306 301 302 303 307 305 305 306 305 303 302 305 301 298 321 320 315 321 324 322
314 313 315 315 315 314 314 313 312 311 310 308 304 312 310 304 303 308 307 309 308 309 306 308 310 308 313 307 310 306 303 308 306 298 311 303 303 308 312 311 322 321 320 322 324 321 321

GFSGBSN_sfc_thetae_075.txt.gz
Theta_e
317 318 318 317 317 317 317 318 318 318 318 317 317 316 317 317 318 318 318 319 318 318 319 320 321 324 319 308 313 341 358 353 342 336 323 322 324 323 318 318 317 313 315 317 318 318 319
317 317 317 317 317 316 317 317 317 317 317 316 316 317 317 317 318 317 317 317 317 318 319 320 322 323 320 305 322 345 339 339 334 328 324 324 326 325 321 316 313 314 314 315 316 317 319
316 316 316 316 316 316 316 316 316 316 315 316 316 316 316 317 317 317 317 316 316 317 319 320 322 323 314 308 318 337 334 331 332 325 321 326 326 319 318 313 317 314 309 312 314 315 315
316 315 316 316 315 315 315 315 315 314 315 315 315 315 315 316 316 316 315 315 316 317 319 321 324 320 309 318 316 318 330 331 329 325 324 324 322 316 309 313 311 307 306 301 311 314 315
316 315 315 315 315 314 314 314 314 314 314 314 314 315 315 315 314 314 314 314 316 320 322 325 320 313 307 326 316 318 319 326 328 326 325 329 320 309 310 304 300 302 298 301 305 313 314
316 316 316 316 315 315 315 315 315 314 314 314 314 314 314 314 313 313 313 314 317 320 320 323 321 309 314 311 318 318 316 322 324 323 320 318 310 304 303 299 293 298 299 301 303 311 313
317 316 315 315 315 315 315 315 315 314 314 313 313 313 313 313 312 312 309 307 309 310 311 309 310 310 312 317 320 316 317 316 318 319 309 312 302 298 302 304 306 305 304 302 306 311 307
318 317 316 316 316 316 315 315 315 314 314 314 313 313 313 312 311 311 308 307 307 308 301 309 309 310 313 315 311 315 316 308 309 306 309 305 301 307 310 309 307 306 303 302 306 310 306
320 319 318 317 316 316 316 315 314 314 313 313 313 313 312 311 310 311 307 307 312 310 299 304 308 308 309 310 308 312 312 310 306 304 305 302 305 311 309 307 305 302 300 302 302 306 306
321 320 319 318 317 316 316 315 314 314 313 313 312 312 311 309 307 305 306 312 312 310 293 300 304 308 309 310 305 313 316 312 308 304 306 304 310 309 308 306 306 296 307 307 306 301 295
321 320 320 319 318 316 316 314 314 313 313 312 312 312 311 309 303 305 310 313 312 306 285 305 306 315 310 305 307 308 315 311 305 306 306 304 307 307 306 307 308 302 308 305 304 299 296
321 321 320 319 318 317 316 314 313 313 312 312 311 311 310 307 305 309 310 311 306 292 288 301 307 305 305 306 306 309 310 314 311 306 307 307 312 310 308 311 310 310 305 302 300 295 291
322 321 321 320 319 317 316 314 313 312 312 311 311 309 307 307 301 306 309 305 291 288 303 299 301 304 305 303 304 305 304 304 301 296 297 303 306 310 312 307 308 305 299 289 288 289 291
321 321 321 320 319 318 316 314 313 312 312 311 309 308 308 310 309 308 307 297 288 297 298 304 304 304 302 304 304 305 303 301 306 303 298 296 296 306 310 307 303 302 298 290 286 289 293
321 320 320 320 319 318 316 314 313 312 311 310 307 307 309 312 312 312 301 290 292 299 303 301 302 299 300 304 304 304 302 301 305 306 299 297 298 309 310 311 308 302 298 301 293 294 291
321 320 320 320 319 318 316 314 313 312 310 308 301 304 309 314 315 308 297 293 297 302 303 302 296 300 298 301 301 301 302 307 306 308 309 303 296 305 309 311 310 305 306 296 294 288 288
319 319 319 319 319 318 316 314 312 311 309 307 303 304 311 316 314 304 294 296 300 305 305 301 299 299 300 300 300 299 301 306 308 308 309 306 302 301 306 303 301 303 302 298 297 295 290
319 318 318 319 319 318 316 314 312 310 307 305 302 298 315 315 301 302 298 302 302 303 305 303 303 302 300 301 299 300 300 304 310 308 303 307 302 298 300 307 310 307 304 303 294 292 295
319 319 318 318 318 318 316 314 312 309 308 300 298 302 312 310 295 296 300 303 305 304 302 302 301 303 303 300 296 302 303 307 309 308 306 305 301 296 294 300 305 303 306 303 300 297 294
317 318 318 318 318 317 316 314 312 311 310 303 299 298 305 307 306 301 299 300 301 307 306 306 302 302 300 298 301 299 302 306 309 308 322 312 301 300 294 298 303 302 305 304 298 294 296
315 317 318 317 318 317 315 314 313 311 310 303 302 302 305 299 300 303 305 305 302 301 305 308 305 302 300 295 298 298 301 304 307 311 310 307 299 305 303 306 306 304 304 304 302 300 299
315 316 318 317 317 317 315 314 313 311 309 302 299 299 301 298 301 301 302 303 304 303 304 304 303 306 306 300 301 299 301 299 301 306 306 310 301 304 303 307 306 305 308 308 310 311 308
313 315 317 317 317 316 315 314 313 311 307 304 307 307 302 298 298 298 302 306 306 307 308 308 306 304 304 307 310 310 309 306 304 302 305 305 301 299 298 305 304 299 312 314 314 312 314
312 313 315 317 317 316 315 314 312 312 308 304 304 303 299 293 296 298 303 307 306 307 305 308 309 306 311 316 315 313 310 308 307 306 310 305 301 300 298 302 293 304 313 317 311 314 315
312 312 314 316 317 317 316 314 313 311 311 305 305 302 300 294 297 298 302 303 304 307 307 307 311 314 314 312 305 302 301 302 304 307 306 305 302 295 296 295 301 310 308 309 308 304 316
314 312 313 316 317 317 316 314 313 311 311 306 304 307 304 296 295 300 297 301 300 300 303 306 312 313 313 307 303 296 295 300 298 300 304 304 303 299 298 294 293 308 310 314 312 302 317
313 312 312 315 317 317 316 314 313 311 311 306 305 307 304 297 300 300 296 297 302 302 301 306 304 307 311 305 302 299 297 305 299 298 302 302 302 298 298 296 305 313 312 315 300 304 321
312 313 312 314 316 316 316 314 313 311 312 308 305 308 305 299 300 302 303 300 301 302 299 303 303 307 307 303 301 300 301 302 303 304 300 300 298 299 300 296 294 317 315 310 314 318 320
312 313 313 314 315 315 315 315 313 312 312 309 301 310 310 304 300 304 304 304 303 302 300 302 305 309 309 306 305 305 300 303 301 297 305 300 304 301 302 303 314 317 315 319 319 316 318

GFSGBSN_sfc_thetae_078.txt.gz
Theta_e
317 318 318 317 317 317 317 317 318 317 317 316 316 316 316 317 317 318 318 318 318 318 318 319 321 322 315 303 309 335 356 351 338 332 325 318 317 318 315 318 317 310 312 313 313 313 315
317 317 317 317 316 316 316 316 316 316 316 316 316 316 316 317 317 317 317 317 317 317 318 319 321 322 315 303 315 347 340 336 332 327 322 319 320 324 318 316 310 312 310 310 311 312 314
316 316 316 316 316 315 315 315 315 314 315 315 315 315 316 316 316 316 316 316 316 317 318 319 320 321 313 304 314 336 335 329 330 326 319 322 322 319 316 312 314 308 305 308 310 310 310
316 316 316 316 316 316 315 315 314 314 314 315 315 315 315 315 315 315 315 314 315 317 319 321 322 319 304 315 314 314 327 328 329 326 322 322 321 314 310 311 307 303 300 297 307 309 311
317 317 317 317 317 316 315 315 315 316 315 315 314 314 315 314 314 314 313 313 316 320 323 326 315 311 303 321 315 315 312 316 327 324 321 326 318 310 307 300 297 297 295 297 303 310 308
319 318 317 316 316 316 316 316 315 315 315 315 314 314 314 314 313 313 312 313 317 318 320 321 320 303 306 307 314 316 313 320 323 321 320 317 309 302 300 296 292 294 295 297 299 307 307
320 320 318 318 317 317 317 316 315 315 314 314 314 314 314 313 313 312 309 306 302 301 304 301 304 307 310 314 316 313 315 312 318 316 308 311 302 298 301 301 303 301 299 298 303 307 304
321 320 320 318 318 317 317 316 316 315 314 314 314 313 313 313 311 311 305 303 304 303 296 305 307 306 309 310 305 309 313 305 307 305 308 305 300 307 307 306 304 302 300 299 303 307 303
321 320 320 319 318 317 317 316 315 315 314 314 313 313 312 311 310 304 298 301 306 303 294 300 304 304 304 306 304 306 308 307 303 303 304 302 306 310 307 305 303 301 297 299 300 304 302
321 321 320 319 319 318 317 316 315 315 314 313 313 313 312 310 301 300 301 306 307 304 289 296 299 304 304 304 302 311 311 308 303 301 303 301 307 305 304 303 304 297 305 303 303 299 293
322 321 321 320 319 318 317 316 315 315 314 313 313 312 311 310 298 300 303 304 307 300 283 302 303 308 304 302 305 306 312 305 302 302 300 300 303 302 302 304 306 302 306 304 303 296 292
322 322 321 320 320 319 317 316 315 314 313 313 312 311 311 304 300 303 306 304 298 290 284 299 304 302 302 304 303 307 306 306 307 303 302 302 307 306 305 308 308 308 302 299 296 292 288
322 321 321 321 320 319 317 316 315 314 313 312 311 309 307 306 299 300 302 298 288 284 298 295 297 300 300 299 303 303 301 299 296 293 293 299 300 305 308 303 306 303 293 289 288 287 288
320 321 320 320 320 319 317 316 315 314 313 311 309 308 305 306 302 303 300 292 283 293 295 301 300 299 296 300 301 303 298 296 298 296 294 294 293 300 306 302 301 300 295 289 285 285 290
320 320 321 320 320 319 318 316 314 313 312 310 307 298 299 305 307 302 295 285 287 294 299 297 297 294 295 300 300 299 299 298 300 300 293 293 293 304 305 306 304 300 297 298 291 288 288
319 319 319 319 318 319 318 316 314 313 311 308 299 296 299 308 307 300 291 289 291 299 299 298 292 295 293 296 296 295 297 303 304 306 305 301 294 300 305 306 307 302 303 294 290 286 285
319 318 318 317 318 319 318 315 313 311 309 307 296 296 304 307 306 297 288 288 296 301 302 297 295 294 295 295 295 294 295 302 304 304 305 299 296 298 303 301 300 300 299 298 295 292 288
317 318 318 317 317 319 318 315 312 309 307 300 293 291 304 306 295 292 291 296 301 301 303 301 298 296 295 296 295 295 296 300 306 304 302 304 297 292 298 306 307 303 300 299 296 291 290
317 316 317 317 317 318 318 315 312 309 307 295 290 293 303 302 289 288 292 297 302 301 301 300 297 301 298 295 291 296 299 304 306 305 300 302 297 291 297 299 304 300 302 300 296 294 296
316 316 316 317 317 317 317 315 312 310 309 297 290 289 296 297 295 294 295 297 300 307 303 304 302 303 299 295 296 294 297 303 305 306 323 307 295 295 291 297 301 300 303 304 299 293 293
315 315 315 315 317 318 317 315 313 311 310 297 292 293 292 288 291 292 292 297 298 300 304 302 300 301 298 294 296 296 299 303 306 309 306 301 296 297 301 305 305 303 303 308 302 302 295
314 313 314 316 317 318 317 315 313 311 307 295 292 292 294 291 292 291 293 296 299 303 301 299 299 303 300 294 298 298 301 299 297 302 300 304 296 299 299 306 312 311 314 313 310 309 310
314 312 313 315 317 318 317 315 313 310 304 295 298 297 294 292 289 289 290 294 298 300 304 305 303 301 301 303 307 307 306 303 303 299 300 302 297 295 294 302 303 303 310 310 311 312 309
313 313 312 314 317 317 317 315 313 310 305 298 296 294 291 288 290 291 294 296 296 300 299 304 307 303 307 311 310 309 306 303 303 301 302 301 299 297 294 297 292 306 314 313 309 310 314
313 313 312 313 316 317 317 316 313 311 309 298 298 294 291 288 292 294 294 293 295 298 299 302 305 308 308 305 300 297 298 299 300 302 299 303 299 295 293 294 302 307 309 308 309 307 315
313 313 312 312 315 317 317 316 314 311 309 300 298 298 294 290 289 296 293 293 291 291 296 300 305 304 306 300 298 293 291 296 296 301 304 301 298 296 295 293 291 304 310 314 312 302 316
312 312 313 312 314 317 317 316 314 312 309 301 298 299 295 290 294 293 290 290 293 294 293 297 298 303 309 301 297 294 294 301 296 295 294 297 296 293 294 293 302 311 312 314 296 299 314
312 312 312 312 313 316 317 316 315 313 312 303 298 300 297 292 295 298 299 293 293 292 292 295 296 302 304 297 294 295 294 298 296 299 295 294 295 293 294 294 293 314 314 308 310 314 314
310 312 312 312 314 316 317 316 315 313 312 307 295 301 302 296 296 302 303 303 301 299 293 292 294 304 303 300 300 302 297 298 296 294 302 295 300 298 298 299 310 312 312 319 316 314 315

GFSGBSN_sfc_thetae_081.txt.gz
Theta_e
317 317 317 317 316 316 316 316 316 316 315 315 315 315 316 317 317 318 318 318 318 318 318 319 320 321 314 300 304 323 354 349 332 327 318 315 311 313 312 315 316 311 311 310 309 309 311
316 317 317 317 316 316 315 316 316 316 316 316 316 316 316 317 317 317 317 317 317 317 318 319 320 321 311 300 310 340 334 329 326 322 318 318 313 319 316 316 310 312 310 307 308 310 310
316 317 317 317 317 317 316 316 315 316 316 316 316 316 316 316 317 316 316 316 317 317 318 319 320 319 309 301 310 336 331 323 327 321 316 320 316 315 315 311 313 307 303 305 307 307 306
317 317 317 317 317 316 316 316 315 315 316 316 316 316 316 316 316 316 316 315 316 318 320 323 321 317 298 309 312 314 327 325 327 325 321 321 319 314 311 311 304 300 298 296 304 306 307
319 318 318 318 318 318 317 316 316 316 316 315 315 315 315 315 315 315 314 314 318 320 323 323 313 304 298 316 312 314 314 316 321 323 321 326 316 309 308 299 296 295 293 294 300 306 305
320 320 319 319 318 318 318 317 317 316 316 315 315 315 314 314 314 313 313 315 317 318 321 322 318 301 304 304 310 312 311 311 312 317 319 316 308 303 298 295 292 292 293 293 297 303 303
321 321 320 320 319 318 318 317 317 316 316 315 315 314 314 313 313 313 309 303 300 298 300 296 300 303 305 310 313 308 310 309 314 314 307 311 303 299 302 299 300 298 296 296 300 304 301
322 321 321 320 319 319 318 317 317 317 316 316 315 314 314 313 311 312 302 298 301 300 293 302 303 303 307 309 303 307 310 304 308 304 308 304 301 308 309 304 301 299 297 296 300 304 300
322 322 321 320 319 319 318 317 317 316 316 315 314 314 313 311 310 304 298 299 302 296 292 298 300 300 302 303 301 303 306 304 301 299 303 303 305 311 307 304 300 297 295 298 297 302 300
323 322 321 321 320 319 319 318 317 317 316 315 314 313 312 310 304 300 301 301 302 300 288 294 299 302 303 302 300 308 308 305 301 299 300 300 305 306 304 302 301 294 303 302 300 296 293
322 322 321 321 320 320 319 318 317 317 316 315 314 313 311 310 298 299 306 303 304 298 282 300 301 306 304 300 304 305 309 303 299 300 298 297 300 299 300 302 303 299 303 301 301 296 290
322 322 321 320 320 320 319 318 317 316 315 314 313 312 311 304 298 301 304 301 296 289 283 296 301 300 299 300 302 305 303 304 304 299 298 298 303 301 302 304 304 305 301 297 293 289 286
321 319 320 320 319 319 319 318 317 316 315 313 312 310 308 306 299 300 301 296 288 284 296 294 295 297 295 296 299 302 301 295 294 290 290 296 298 302 304 300 302 300 292 290 286 286 287
319 319 319 320 319 319 318 318 317 315 314 312 309 308 305 306 302 302 297 292 282 292 292 298 297 296 294 297 298 300 298 295 296 294 291 290 291 298 303 300 296 296 293 287 283 285 290
319 318 318 318 317 317 318 318 316 314 312 310 307 297 297 299 304 299 294 285 287 291 297 295 295 291 292 296 296 296 295 296 299 298 291 288 291 301 302 303 301 296 293 297 292 286 286
318 318 318 318 317 317 317 317 315 313 311 309 297 295 298 304 305 297 290 288 289 295 297 296 290 292 289 294 292 293 294 299 299 303 299 296 292 297 303 302 303 299 302 293 292 285 282
316 316 317 317 317 316 317 317 314 311 309 306 294 294 301 304 301 295 286 287 293 299 300 295 294 292 293 292 292 292 295 299 301 301 302 297 293 296 300 297 297 297 295 296 295 291 286
315 316 315 316 316 316 317 316 312 309 307 299 291 292 302 302 294 289 290 294 300 299 302 299 297 295 293 294 292 292 294 298 303 303 299 298 292 290 296 302 304 300 297 296 293 291 287
316 316 316 315 316 316 316 315 311 308 305 294 288 289 299 300 289 287 291 296 298 301 301 299 299 301 298 293 290 294 298 303 305 303 301 301 292 289 293 299 302 298 298 300 295 292 291
314 315 315 315 314 316 316 315 312 310 308 295 290 290 293 294 291 290 289 292 296 304 303 302 300 300 297 295 295 293 298 305 308 307 322 306 292 293 290 296 301 299 302 299 297 290 291
313 314 314 314 314 316 317 315 312 310 309 295 291 291 290 287 290 288 288 293 295 295 303 301 298 299 296 292 296 296 300 302 307 310 303 300 294 293 299 302 308 303 306 302 301 299 295
313 314 313 314 315 316 317 315 312 310 305 295 292 290 292 290 289 288 289 289 293 295 297 299 297 300 298 294 298 297 298 297 299 304 300 297 294 296 296 303 308 309 311 311 310 309 310
313 313 313 312 314 316 317 316 312 309 302 294 295 293 293 292 287 287 287 291 294 294 298 302 302 300 299 301 305 305 305 303 303 297 296 295 295 292 290 300 302 299 308 309 309 310 311
313 313 313 312 313 315 317 316 313 309 302 296 294 293 290 288 289 290 293 294 294 294 294 300 302 297 303 306 306 304 301 300 301 299 296 295 295 295 292 298 292 305 312 312 310 310 311
312 312 313 313 313 315 317 317 314 310 307 297 296 292 290 286 290 292 292 291 292 294 295 299 302 303 302 300 297 295 296 298 300 303 300 299 297 294 292 295 300 307 307 307 305 307 316
311 313 313 313 311 314 317 317 315 311 308 299 296 296 292 289 290 295 291 291 288 288 292 297 303 301 308 301 298 292 291 295 297 300 302 302 300 295 294 292 292 300 311 314 312 301 317
311 312 313 313 311 314 316 317 316 313 308 300 296 296 293 289 292 292 290 289 291 290 289 293 295 296 306 299 297 295 294 299 294 295 293 295 297 295 295 293 299 310 313 313 295 299 316
311 312 312 312 311 313 316 317 317 314 311 302 297 298 294 290 292 297 298 292 291 291 289 292 292 297 300 294 293 293 293 296 294 298 294 294 294 293 293 292 290 313 313 304 307 310 313
310 311 311 312 311 313 315 317 316 315 313 305 295 298 299 293 295 298 301 302 300 297 292 289 291 292 298 297 296 298 295 296 293 291 301 293 298 295 295 301 307 310 309 314 314 314 314

GFSGBSN_sfc_thetae_084.txt.gz
Theta_e
317 317 318 318 318 318 317 318 318 317 317 318 318 318 318 318 319 319 319 319 319 319 319 319 320 320 311 297 302 322 352 352 340 326 316 312 308 309 308 312 315 311 313 310 309 308 307
317 318 318 318 318 318 318 318 318 318 318 318 317 317 317 317 318 318 318 318 318 318 318 318 319 320 306 295 308 327 330 325 323 320 317 314 310 312 309 314 312 312 310 307 306 307 309
318 318 318 318 318 318 318 317 318 318 317 317 317 317 317 317 317 317 318 317 317 318 319 320 320 317 306 300 308 332 325 317 322 319 314 318 315 312 313 310 311 308 300 303 305 306 305
319 319 319 319 319 319 318 318 318 318 318 317 317 317 317 316 316 317 316 316 317 319 322 324 321 314 296 306 310 312 314 316 323 322 317 318 318 311 311 310 303 299 297 295 303 304 305
320 320 320 320 320 320 319 318 318 318 318 317 317 317 316 316 316 315 314 315 318 320 324 323 311 300 297 314 308 310 314 310 313 320 320 326 315 308 306 299 296 294 293 293 298 304 303
322 321 321 321 321 320 319 319 318 318 318 317 317 316 316 315 315 314 313 315 317 318 321 322 317 300 304 303 307 310 309 310 308 311 315 315 308 302 297 296 293 292 291 293 294 301 301
322 322 322 322 321 320 320 319 319 318 318 317 317 316 315 314 314 313 309 300 298 297 299 295 297 300 303 307 310 306 308 306 306 311 304 309 301 297 302 300 300 298 295 295 297 302 299
323 323 322 322 321 321 320 319 319 318 318 317 317 316 315 314 312 312 301 298 297 296 292 300 300 301 304 305 301 304 308 301 305 300 305 301 298 305 308 303 300 298 296 294 298 302 298
323 323 322 322 321 321 320 319 319 319 318 317 316 315 314 312 311 304 298 298 300 297 290 297 299 299 301 301 299 301 304 302 300 299 302 298 301 309 307 303 300 297 294 296 296 299 299
323 322 321 321 321 320 320 320 319 318 317 316 316 315 313 310 305 299 301 299 301 298 288 294 298 301 303 300 299 306 306 304 299 296 298 298 306 305 303 302 302 295 301 301 298 294 290
322 321 320 320 320 319 319 319 319 318 317 316 315 314 312 310 299 299 304 300 300 295 282 298 300 306 303 297 302 305 307 301 298 298 297 295 298 298 299 301 302 299 303 300 299 293 289
321 320 319 318 319 319 319 318 318 318 316 315 314 313 311 303 298 301 302 299 295 288 282 294 299 297 296 298 300 303 303 302 302 297 296 297 301 300 300 302 302 303 298 295 290 288 286
319 319 319 319 319 318 318 317 318 317 316 314 312 310 308 305 299 301 300 295 287 283 294 293 293 295 292 294 297 299 298 296 291 287 287 293 296 298 302 297 299 297 291 285 285 285 286
319 319 318 318 317 317 316 316 317 316 314 313 310 308 305 305 301 301 295 292 282 290 290 296 295 294 291 295 295 296 296 294 296 292 288 287 288 296 300 298 295 294 292 287 282 283 287
318 318 318 318 317 316 316 316 316 315 313 310 307 296 296 299 302 298 293 286 286 289 295 294 293 290 290 294 294 294 293 294 296 296 290 287 290 299 300 300 300 294 291 295 290 285 286
316 316 316 317 316 316 316 317 316 313 311 309 294 293 297 303 302 295 289 287 287 293 295 294 289 291 288 292 291 290 292 296 297 300 297 294 291 296 302 300 301 297 299 292 291 287 284
316 315 316 315 315 316 316 316 314 311 309 305 293 295 300 301 300 295 286 285 291 298 298 294 292 291 292 291 290 289 291 298 299 301 299 296 293 295 298 296 295 297 293 295 295 292 286
315 316 315 315 314 316 315 315 312 309 306 298 290 292 300 300 294 287 289 292 298 298 300 298 296 294 292 292 290 290 291 295 303 305 297 297 291 290 296 302 302 300 297 295 291 289 291
315 314 315 315 315 314 315 315 312 308 304 293 288 288 298 299 289 287 290 294 296 298 299 299 297 300 298 293 291 294 297 304 306 305 297 299 290 288 292 298 302 299 301 297 295 292 291
315 314 313 314 314 314 316 316 312 310 307 294 290 290 292 292 289 288 287 290 294 301 300 301 298 299 296 294 294 293 299 304 308 306 319 305 294 294 289 294 299 299 301 303 292 288 289
315 314 314 313 314 314 315 316 313 310 307 294 290 290 289 287 289 287 287 290 292 292 297 300 297 297 295 291 295 294 299 301 305 311 304 298 291 294 297 299 302 303 307 309 299 294 293
315 314 314 313 313 314 316 316 313 310 305 295 291 290 290 288 288 286 288 287 291 293 292 297 295 299 297 294 297 295 297 296 298 301 298 296 294 295 296 301 302 304 304 304 309 309 310
314 313 313 313 312 313 315 317 313 308 301 293 292 292 292 291 287 287 286 289 292 292 295 298 299 297 296 299 302 302 302 302 302 296 295 293 292 290 289 297 300 299 305 306 309 309 308
314 313 313 313 312 313 315 317 313 309 302 295 293 292 290 288 287 288 291 293 292 292 291 296 297 295 301 303 303 301 298 298 299 299 298 293 292 291 289 293 286 301 310 311 309 311 313
314 313 312 312 313 312 314 317 315 310 305 296 294 292 290 286 289 291 291 290 291 291 292 295 299 301 299 300 297 295 295 295 298 302 298 296 292 290 288 289 295 306 305 304 304 306 314
313 312 312 312 312 312 313 317 316 311 307 299 296 294 292 288 289 294 290 291 287 285 290 294 299 298 304 300 297 290 289 293 295 299 301 301 296 292 291 289 290 301 309 312 312 300 315
313 312 311 312 312 312 313 315 317 313 307 299 295 295 292 289 291 291 290 289 290 288 286 289 293 292 302 294 293 290 293 298 293 292 293 294 295 291 293 291 299 310 312 314 296 298 314
312 311 311 312 312 313 313 316 318 315 310 302 297 297 295 289 291 295 296 292 291 290 287 289 289 292 295 294 293 292 293 294 292 294 293 291 291 291 291 292 291 310 312 304 307 312 314
312 311 311 311 312 311 312 314 317 315 312 306 297 298 297 292 292 297 299 300 298 296 292 289 288 289 290 295 294 295 295 295 291 289 298 293 297 295 295 296 307 309 309 313 314 315 316

GFSGBSN_sfc_thetae_087.txt.gz
Theta_e
319 319 319 320 320 320 320 320 320 319 319 319 319 319 319 319 320 320 320 320 320 319 319 319 320 320 316 305 307 338 355 353 346 336 323 318 314 313 310 315 319 318 320 321 322 314 313
320 320 320 320 320 320 320 320 320 320 319 319 319 319 319 319 319 319 319 319 318 318 319 320 320 320 313 304 312 335 338 336 331 327 321 319 316 316 313 313 315 319 317 317 314 313 313
320 321 320 321 321 321 320 320 320 320 319 319 319 318 318 318 319 318 318 318 317 318 320 322 321 317 309 309 322 323 329 324 327 324 318 322 320 317 319 315 318 315 311 314 314 315 313
321 321 321 321 321 321 321 320 320 320 319 319 319 318 318 318 318 318 317 316 317 319 323 324 322 318 307 312 313 314 316 317 322 322 318 322 323 318 315 317 311 308 306 306 311 310 312
322 322 322 322 322 322 321 320 320 320 320 319 319 318 318 317 317 316 315 315 317 320 323 323 317 308 305 317 312 316 321 312 315 324 326 325 322 316 315 309 308 306 304 304 306 310 309
323 323 323 323 323 322 321 321 320 320 320 319 318 318 317 316 316 315 314 315 316 320 321 323 318 307 310 307 310 313 316 315 312 313 319 317 317 312 310 309 300 304 302 302 303 309 310
324 324 324 324 324 322 321 321 320 319 320 319 318 317 317 316 315 313 312 307 305 305 305 303 303 303 306 310 311 310 313 311 310 312 305 313 306 304 309 311 310 307 305 304 306 309 306
324 324 323 323 322 322 321 321 319 320 319 319 318 317 316 315 313 312 308 303 301 302 299 303 303 303 306 307 304 309 311 306 308 304 310 307 304 310 313 312 309 308 306 305 308 307 308
323 323 322 321 320 320 320 319 319 319 319 318 317 317 315 313 312 309 304 303 307 304 299 302 304 303 306 306 304 306 309 307 305 304 305 302 305 310 310 309 307 308 307 307 306 309 307
322 321 321 320 319 319 319 319 319 319 319 318 317 316 314 311 309 306 307 306 307 304 298 299 304 306 308 307 304 310 310 308 304 303 304 304 308 306 307 306 309 304 310 309 306 305 301
321 320 320 319 319 319 318 318 318 319 318 317 316 315 313 311 307 306 307 307 306 302 290 301 304 311 308 305 306 308 311 307 303 303 303 302 303 305 304 305 308 304 308 306 305 304 301
320 320 319 319 319 318 318 317 316 317 317 316 315 313 311 306 306 308 307 307 302 296 288 298 303 302 302 304 304 307 307 308 306 302 303 302 305 305 306 308 308 308 305 303 301 301 295
319 319 319 319 318 318 317 316 316 317 316 315 313 310 308 308 306 308 307 304 296 291 299 296 298 301 299 300 302 303 302 304 300 297 298 301 302 305 305 303 305 305 302 295 294 294 294
318 318 318 318 317 317 316 316 316 316 315 313 310 308 307 308 309 307 304 302 291 294 295 300 300 300 297 300 301 301 301 300 303 303 299 296 296 301 305 303 303 303 302 296 290 292 296
317 316 316 316 316 316 316 316 316 315 313 310 307 304 305 308 307 306 304 296 294 295 298 298 300 297 298 299 299 299 300 299 302 305 299 298 298 307 303 306 306 301 299 305 298 297 294
317 317 316 316 315 315 316 315 316 314 311 309 302 302 306 307 309 303 300 293 295 298 299 299 295 297 295 299 297 298 298 302 302 306 308 302 298 306 307 306 305 305 306 298 299 292 290
317 316 316 315 315 314 315 314 315 312 310 306 302 304 308 306 307 305 296 296 297 302 301 299 298 297 298 297 298 297 297 303 306 307 309 305 301 303 306 304 303 302 301 301 301 300 294
317 316 315 315 315 313 314 315 314 310 306 302 300 301 307 307 303 297 298 298 298 302 305 303 302 300 299 299 300 297 297 304 309 309 304 306 302 299 301 307 308 306 304 304 298 297 300
317 315 314 313 314 314 314 315 313 309 305 301 298 298 307 306 298 298 298 298 300 302 303 304 303 304 304 301 299 301 302 308 309 308 306 308 301 296 298 304 307 305 307 311 307 303 300
317 316 315 313 313 314 314 315 313 310 308 302 300 299 303 301 298 297 296 296 298 303 302 304 304 305 304 302 303 302 302 306 309 308 318 310 303 301 295 299 303 301 304 311 308 300 300
317 316 314 314 313 313 314 315 314 311 307 302 300 297 296 297 297 296 295 295 296 297 301 304 304 303 301 300 301 301 304 305 307 311 310 307 302 301 303 304 304 303 305 308 306 309 303
317 316 314 314 313 313 314 316 314 310 305 304 300 299 298 298 295 295 294 296 295 297 297 301 301 302 303 301 303 301 304 305 303 307 306 308 302 304 301 303 303 302 306 306 307 308 309
317 316 314 314 313 312 313 315 314 309 304 302 300 300 300 296 295 296 296 295 295 296 299 300 301 299 301 304 305 305 306 307 307 305 304 303 302 301 297 302 301 299 307 309 305 308 310
316 315 314 313 313 311 312 315 315 308 305 304 301 301 300 298 296 296 295 296 296 297 295 298 300 298 306 306 310 311 308 306 305 305 306 304 302 302 297 301 292 307 313 309 307 310 313
316 315 313 312 312 313 312 314 316 310 304 305 302 301 299 297 297 297 297 297 297 298 296 297 301 306 305 310 306 303 303 304 306 306 307 306 302 300 296 296 300 308 308 305 305 306 312
315 314 313 312 312 313 311 313 317 311 306 307 304 302 301 298 298 299 296 296 296 296 296 298 303 305 311 308 305 298 296 300 300 303 309 307 307 301 300 294 292 306 309 315 313 300 311
315 314 313 312 313 313 312 313 316 313 307 305 304 303 301 297 300 299 297 298 297 295 294 296 299 299 308 306 301 299 300 302 298 298 300 302 304 299 300 298 304 312 314 316 300 303 315
314 313 312 311 312 312 312 312 315 315 309 307 304 304 302 298 299 300 300 299 298 298 296 298 298 299 300 303 302 302 301 303 301 302 302 300 299 300 301 298 296 314 313 306 313 319 318
314 313 312 312 312 312 312 312 315 316 311 307 302 303 304 300 300 302 304 305 304 304 301 300 297 297 299 305 305 305 303 305 300 297 306 301 305 303 304 305 313 315 314 319 321 319 321

GFSGBSN_sfc_thetae_090.txt.gz
Theta_e
321 321 321 322 322 321 321 321 321 321 321 321 321 321 321 321 321 321 321 321 320 320 320 321 321 321 323 314 314 335 353 352 344 333 328 324 321 320 313 315 316 315 317 319 322 323 322
322 322 322 322 322 322 322 322 322 322 321 321 321 320 320 320 320 320 320 320 319 319 320 321 323 320 319 309 318 331 339 338 334 331 323 323 319 320 316 315 314 316 317 318 320 320 320
322 323 323 323 323 323 323 322 322 322 321 321 321 320 320 320 320 320 319 319 318 318 321 324 322 322 314 312 325 332 333 327 326 324 319 322 324 321 319 315 320 319 314 316 317 317 316
323 323 323 323 323 323 322 322 322 321 321 321 320 320 320 319 319 319 318 317 317 319 323 324 322 321 311 318 319 317 319 318 320 322 321 321 322 322 319 320 317 313 314 309 315 315 315
324 324 324 324 324 323 322 322 321 321 320 320 320 319 319 318 318 317 315 315 318 320 323 323 324 316 310 318 315 319 321 316 317 322 325 324 322 318 317 311 308 311 307 309 311 315 313
324 324 325 325 324 323 322 322 321 320 319 320 319 319 318 318 317 315 314 316 320 319 323 324 322 313 315 311 315 316 319 318 314 317 319 320 318 314 313 310 303 306 307 310 308 313 314
325 325 325 323 322 321 321 321 320 320 319 319 319 318 318 317 315 314 315 315 314 312 313 308 309 308 311 315 316 314 316 315 315 313 309 315 310 307 309 312 312 310 308 308 311 315 312
324 323 323 322 320 319 319 319 319 319 319 319 318 317 317 316 314 313 315 309 307 309 306 310 309 309 312 313 309 313 316 310 310 306 311 310 307 311 311 311 311 310 308 308 312 314 311
323 322 321 321 320 319 319 319 319 319 319 319 317 317 316 314 312 316 311 310 314 312 306 308 310 310 311 312 309 311 314 312 309 308 308 306 308 310 309 309 307 308 307 308 308 312 315
322 321 320 320 320 319 319 318 318 318 318 318 316 316 315 310 313 316 313 313 316 313 305 304 308 310 313 313 308 314 315 312 310 307 308 308 311 308 307 306 308 304 310 310 310 308 304
321 320 320 319 319 319 318 318 318 317 317 317 316 316 314 311 314 314 314 316 315 310 297 305 307 315 314 309 310 311 316 312 307 307 307 306 306 306 305 306 309 306 310 309 309 307 306
320 320 319 319 319 318 318 317 317 317 316 316 315 314 312 314 315 316 316 315 311 302 295 301 306 306 306 308 308 311 311 314 311 307 308 307 311 309 308 310 310 311 308 308 308 305 299
319 319 318 318 317 317 317 316 317 316 316 315 313 310 310 315 313 315 315 311 302 298 303 300 302 305 304 304 305 307 307 307 305 303 304 308 308 310 310 306 309 308 305 298 297 297 296
318 317 317 316 316 315 315 315 315 315 315 313 310 308 310 314 316 315 314 306 297 298 300 305 304 304 301 304 304 305 305 304 308 308 304 302 300 307 311 308 305 306 305 299 293 295 298
317 317 317 316 316 315 315 315 315 314 314 311 307 318 316 317 317 315 309 301 301 300 303 303 304 301 302 304 303 303 303 303 306 310 303 302 302 310 311 312 309 305 302 308 302 303 299
317 317 317 316 315 315 314 314 315 315 312 310 312 314 317 315 318 313 305 298 302 305 305 305 300 302 299 302 302 302 302 306 305 310 312 306 301 308 310 312 312 307 310 301 301 294 292
318 317 316 315 315 315 314 314 315 313 310 308 312 310 314 315 315 311 302 303 304 308 308 304 302 301 302 302 303 302 301 305 309 309 311 310 306 305 309 307 306 307 305 306 303 300 294
317 317 316 315 314 314 314 314 314 311 308 309 310 307 315 316 308 309 306 304 300 307 310 308 307 305 303 303 303 302 302 305 311 311 305 310 306 301 303 309 311 311 306 307 302 299 303
318 317 316 315 314 314 314 314 314 310 307 309 308 309 318 315 303 305 305 303 305 306 307 307 306 307 308 305 301 304 305 309 310 309 307 310 305 299 301 306 308 307 307 309 309 308 305
317 317 316 315 314 314 314 314 315 312 308 308 308 304 310 313 310 305 303 302 302 307 306 309 308 309 307 305 308 304 305 308 310 310 317 313 306 303 298 302 306 304 305 308 308 300 300
317 317 317 315 314 313 314 314 316 313 309 309 311 306 304 305 305 305 304 302 300 301 306 309 307 307 305 303 304 304 307 308 310 314 311 311 304 305 305 306 306 305 304 305 307 308 304
317 317 317 315 314 313 313 314 316 312 307 312 307 306 308 308 304 303 298 302 300 302 303 304 305 306 306 305 306 304 306 307 305 309 309 312 304 306 303 305 305 303 305 306 309 310 309
317 317 317 315 314 313 312 314 315 311 306 313 312 311 307 301 303 302 303 302 301 302 304 305 305 305 304 307 310 309 310 310 309 309 309 309 306 304 299 304 304 300 304 309 311 313 313
317 317 316 315 314 313 312 313 315 310 306 313 313 311 307 303 304 303 301 301 301 302 301 304 305 304 309 313 311 312 312 312 313 313 313 309 308 307 301 303 294 307 317 313 311 313 314
316 316 316 315 314 313 313 313 315 311 307 315 315 310 308 303 306 303 303 303 304 305 303 303 305 309 312 308 306 304 306 309 309 311 311 312 310 304 300 298 302 309 314 309 309 310 315
314 316 315 315 313 313 313 312 314 312 307 314 316 315 310 304 306 305 303 303 302 303 303 304 308 310 309 308 304 300 298 303 302 306 314 312 313 307 303 298 293 309 313 319 316 305 314
312 314 315 314 313 313 313 312 314 313 308 312 316 313 310 305 309 307 304 304 306 303 302 305 304 305 309 304 301 299 299 306 301 300 303 306 307 304 303 301 304 314 317 319 301 306 319
311 313 314 313 313 313 313 312 314 316 310 311 314 315 308 306 308 308 308 305 306 304 301 306 304 304 303 301 302 304 302 306 304 306 304 304 303 305 304 299 297 318 316 309 317 323 323
311 312 314 313 312 312 313 313 314 316 312 310 311 312 309 306 308 311 311 312 309 309 306 307 305 302 305 306 307 308 305 310 304 300 311 305 306 304 307 305 316 320 318 322 324 321 320

GFSGBSN_sfc_thetae_093.txt.gz
Theta_e
323 323 323 324 324 323 323 323 323 323 322 322 323 322 322 322 322 322 322 322 321 320 321 321 321 323 323 318 318 338 352 350 338 345 328 327 324 323 318 318 317 315 317 318 320 320 321
324 324 324 324 324 324 324 323 323 322 321 321 322 322 321 321 321 321 321 320 319 319 320 321 323 322 319 311 322 331 337 336 334 334 328 327 324 324 319 318 317 318 317 317 318 318 319
325 325 325 324 324 324 324 323 323 321 320 320 321 321 321 321 321 321 320 319 319 319 320 323 325 323 319 315 325 329 334 332 333 331 324 325 325 321 321 317 321 319 316 317 318 319 317
325 325 325 325 324 324 324 324 323 322 320 319 320 320 320 320 320 319 319 317 318 319 322 326 325 324 316 322 323 320 324 326 326 323 322 324 322 320 319 321 318 315 315 310 316 318 317
326 325 325 325 325 323 321 322 321 321 320 319 319 320 319 319 319 318 316 316 318 322 325 324 326 324 314 317 318 322 323 318 320 322 324 324 321 315 316 313 311 312 306 309 312 319 316
325 325 325 325 323 321 320 319 320 320 320 319 319 318 318 318 318 316 315 316 323 319 324 326 324 317 318 313 318 320 322 321 317 318 319 319 318 313 313 310 303 307 308 310 310 316 317
325 325 324 323 322 321 320 320 320 320 319 319 319 318 317 317 316 315 316 322 316 316 318 312 313 313 314 318 320 318 319 318 317 315 310 315 311 308 311 313 313 312 310 309 312 315 315
324 324 323 322 321 320 320 319 319 319 319 319 319 317 317 317 315 314 316 314 312 313 310 314 313 314 316 317 313 316 319 313 312 308 312 310 307 313 314 313 310 309 308 309 312 314 313
323 322 322 321 320 320 319 319 319 318 318 318 318 317 316 315 313 318 316 314 319 318 310 312 314 313 314 316 312 313 317 315 312 310 311 308 310 313 311 309 308 309 308 308 308 312 314
322 321 321 320 320 319 319 319 319 318 318 317 317 316 315 312 313 321 317 319 320 317 308 308 311 313 315 316 311 317 318 314 312 309 310 309 312 310 309 308 309 305 311 310 308 307 303
321 321 320 320 319 319 318 318 317 317 317 317 316 316 313 310 318 319 320 322 319 316 300 308 310 318 315 311 312 314 318 315 309 309 310 308 308 308 307 308 310 307 311 309 309 307 307
320 320 319 318 318 317 317 316 315 315 315 315 315 314 312 318 321 320 321 320 316 305 299 305 309 309 309 312 311 313 314 318 315 311 313 310 315 312 310 310 310 311 309 309 309 307 300
319 319 318 318 317 317 316 315 315 315 315 315 314 312 311 318 317 320 319 316 306 301 307 305 306 308 307 307 308 309 309 310 307 305 307 309 310 313 312 308 311 309 306 299 298 299 298
319 318 318 317 317 316 316 315 315 315 315 314 312 310 315 318 321 320 318 310 301 305 304 308 307 308 305 307 307 307 307 307 311 309 306 304 302 310 313 310 308 308 306 300 294 296 298
318 318 318 317 316 316 315 315 314 314 314 312 310 322 319 322 323 321 312 304 306 305 306 305 307 305 305 306 305 306 306 306 308 310 305 303 303 311 312 313 312 308 304 308 302 303 298
319 318 318 317 316 315 315 314 314 315 314 311 314 318 319 321 323 318 308 303 306 308 308 308 304 305 302 305 305 305 304 308 306 311 313 308 302 310 311 313 313 311 312 302 302 295 293
319 319 318 316 315 315 315 314 314 314 312 311 316 313 319 321 320 313 305 307 306 310 310 307 305 304 305 304 305 305 304 307 310 310 312 309 307 307 310 308 307 308 307 305 307 305 297
319 318 318 316 315 315 314 314 313 313 309 312 315 309 321 321 309 313 307 307 299 308 312 309 309 307 306 306 306 305 304 307 312 311 306 310 307 302 304 311 313 311 306 305 303 298 301
319 318 318 317 316 315 314 314 313 313 309 314 312 312 321 318 305 309 310 306 307 307 309 309 308 309 310 307 304 307 307 311 312 310 308 310 304 298 301 307 310 308 307 306 310 308 304
318 318 318 317 316 315 314 314 314 314 312 312 312 308 314 314 313 308 307 306 305 309 308 309 310 311 309 308 311 307 307 310 312 312 318 313 306 304 299 303 307 303 305 309 308 303 303
318 318 318 317 317 315 314 314 314 316 313 313 315 312 311 306 310 309 308 306 304 304 309 310 308 309 308 306 307 306 309 310 312 317 312 311 305 307 307 307 306 306 305 305 305 305 300
317 318 317 317 317 315 314 314 314 315 311 315 311 310 316 309 310 307 302 305 304 305 305 305 307 308 309 306 307 305 309 309 307 310 309 312 305 307 304 306 306 304 306 306 306 306 308
315 317 317 317 316 315 314 313 314 315 311 316 319 316 310 306 308 306 306 306 305 306 307 308 307 307 306 307 312 313 312 311 310 308 309 311 308 306 301 306 305 301 305 307 307 312 310
314 315 317 317 316 315 314 313 314 314 310 318 318 315 309 305 308 307 306 306 304 306 305 307 308 306 310 315 314 313 312 312 312 314 315 311 310 308 302 305 296 306 315 312 309 311 314
311 313 316 317 316 315 314 313 314 315 312 316 320 314 311 305 308 307 307 307 307 308 307 307 308 311 314 311 306 305 306 309 312 312 314 314 310 304 300 300 305 308 311 314 311 310 318
309 310 313 316 316 315 314 314 314 315 311 315 319 320 313 307 307 310 307 307 305 306 306 308 312 313 311 306 305 300 299 303 303 307 314 315 315 308 304 299 296 310 317 321 318 307 319
308 309 312 315 316 315 314 314 313 315 311 313 320 322 314 308 311 311 307 306 310 307 305 308 309 309 311 304 301 300 301 308 302 300 302 305 307 305 304 301 305 315 318 322 304 308 319
307 309 311 313 315 314 314 314 313 315 314 313 317 323 314 309 311 312 312 309 309 308 304 310 307 308 306 303 302 302 303 306 304 307 306 303 304 304 306 301 298 318 318 310 319 321 320
306 308 311 311 314 313 314 314 313 315 315 312 313 319 319 311 311 316 316 316 314 313 310 310 309 309 309 305 309 308 304 305 306 301 310 305 309 306 308 308 319 321 321 325 324 320 321

GFSGBSN_sfc_thetae_096.txt.gz
Theta_e
325 326 326 325 325 324 324 324 323 322 321 320 321 322 322 322 322 322 323 322 321 321 321 321 322 323 323 316 315 335 353 347 333 336 336 329 323 321 317 319 319 315 316 317 318 318 318
326 326 326 326 325 325 324 324 324 323 322 320 320 321 321 321 321 321 321 321 320 320 320 321 323 323 317 309 325 338 336 329 327 333 332 326 323 324 320 318 316 318 317 316 318 318 318
326 326 326 326 325 324 323 323 323 322 322 320 320 320 320 320 320 320 320 320 319 320 320 322 325 323 318 317 324 328 331 331 328 329 325 327 326 321 320 316 319 318 314 316 317 317 317
326 326 326 325 325 323 322 321 321 321 321 320 320 320 319 319 319 319 319 318 319 320 322 324 327 323 317 324 324 322 326 328 330 331 327 325 324 319 316 318 316 312 312 307 314 316 318
326 326 325 325 324 323 321 321 321 320 320 320 320 319 319 318 318 318 317 316 319 323 324 327 323 321 317 322 317 321 322 317 320 323 323 321 319 315 315 309 306 310 305 308 310 316 316
326 325 325 324 323 322 321 321 320 320 319 319 319 319 318 318 317 316 315 318 328 322 322 325 325 318 320 315 319 320 322 321 318 317 316 316 317 312 311 308 300 304 306 308 308 314 315
325 325 324 323 322 321 321 320 320 320 319 319 318 318 318 317 316 315 315 321 317 316 319 315 314 315 316 319 321 319 320 318 317 315 308 314 310 308 310 312 312 310 308 307 310 314 312
324 323 322 322 321 321 320 320 319 319 319 318 318 317 317 316 315 314 317 315 314 315 308 317 315 315 318 318 313 317 320 313 312 307 311 309 305 311 313 313 311 310 307 306 310 312 312
323 322 321 321 321 320 319 319 318 317 317 317 317 317 316 315 313 317 319 315 321 319 309 315 315 315 315 316 313 314 317 316 312 310 310 308 310 314 311 310 307 308 306 306 306 310 312
321 321 321 320 319 318 318 317 317 316 316 315 315 316 315 313 314 321 319 321 321 319 306 309 310 314 315 316 312 318 319 314 311 308 310 309 312 310 309 307 309 304 310 308 307 305 300
320 320 320 319 318 318 317 317 316 316 315 315 315 315 314 312 317 319 320 322 320 317 299 310 312 319 315 311 313 314 319 315 309 309 310 307 309 308 307 308 310 306 310 308 307 305 304
319 320 319 319 318 317 317 316 316 315 315 315 315 314 313 319 321 322 321 320 318 304 299 306 311 310 310 312 312 314 314 317 316 311 313 312 316 313 312 312 311 311 308 307 307 305 299
320 319 319 318 318 317 316 316 315 315 315 315 314 313 312 317 317 321 321 317 305 301 310 307 307 310 309 308 309 309 309 309 308 304 306 309 311 314 313 309 312 311 307 299 297 297 297
321 319 318 318 317 317 316 315 315 314 314 314 312 311 317 320 322 322 318 310 301 308 307 310 309 309 306 309 309 308 307 306 311 308 305 303 301 310 313 310 307 308 306 299 293 293 296
320 320 319 318 317 316 315 315 314 314 314 313 310 321 321 323 324 321 313 304 306 307 309 307 307 305 307 308 307 307 308 307 309 310 304 302 302 310 312 313 311 307 303 309 302 302 298
320 320 319 319 317 316 315 315 314 314 314 312 315 318 319 323 322 318 309 302 308 310 309 309 304 307 304 306 305 306 306 309 307 311 312 307 300 308 310 313 312 309 312 303 304 296 293
320 320 319 318 317 316 315 314 314 313 313 311 317 315 321 324 320 312 304 308 309 311 311 308 307 306 307 306 307 306 306 309 311 310 311 308 306 305 308 306 305 307 307 308 306 302 297
320 320 319 318 318 316 316 314 313 312 311 314 316 310 322 323 308 312 309 310 302 309 312 310 310 308 306 307 306 306 306 308 312 311 306 310 305 300 302 309 312 311 308 306 300 299 302
319 319 319 318 318 317 316 314 313 312 312 315 312 314 323 319 304 308 313 309 310 307 309 309 309 311 311 308 305 308 309 313 312 310 308 309 303 297 300 306 310 307 308 309 308 306 301
316 318 319 318 318 318 317 315 313 313 314 314 313 309 316 316 314 309 307 307 307 311 309 309 309 311 309 307 310 307 308 312 313 311 320 314 306 303 298 302 306 304 305 307 306 300 300
314 316 318 318 318 318 317 315 314 313 315 315 316 312 314 307 309 310 311 308 305 305 310 310 308 308 307 305 307 307 309 310 313 317 312 309 302 305 305 306 306 305 304 305 303 304 302
312 314 316 318 318 318 317 316 314 313 313 315 313 311 313 310 311 309 306 306 305 306 307 306 305 307 309 307 308 304 308 309 308 310 308 309 303 306 304 307 307 304 306 306 306 306 305
310 312 316 317 317 318 317 316 314 313 313 315 321 320 313 308 308 307 308 308 307 309 309 309 307 306 305 308 310 311 311 311 309 306 306 307 306 305 300 306 305 301 308 309 309 308 310
309 311 312 315 317 317 317 315 315 313 313 317 317 317 309 305 308 308 309 309 307 308 305 308 309 307 310 313 312 311 310 310 310 310 312 312 311 308 301 304 295 307 314 311 311 314 316
308 309 311 312 315 318 316 315 315 314 314 316 317 316 310 305 309 308 309 308 310 310 307 308 309 311 313 309 304 302 303 306 309 313 314 316 312 304 300 299 304 304 307 306 308 310 317
307 308 309 310 313 317 316 315 314 314 313 315 316 320 314 307 306 310 308 309 306 306 307 308 313 315 312 306 302 297 297 302 302 308 315 315 314 306 303 296 295 304 309 313 316 306 317
309 307 308 309 312 315 316 315 314 314 313 314 316 323 316 308 311 312 307 307 311 309 306 309 310 309 312 304 299 298 299 305 300 302 303 307 307 304 303 299 304 313 316 319 303 307 318
309 308 307 309 311 313 316 315 314 314 315 314 313 322 315 309 311 313 313 310 309 309 304 308 307 309 307 302 301 301 301 305 305 308 305 305 303 303 304 301 297 318 316 309 315 321 319
308 309 306 308 310 312 315 314 314 314 316 314 310 319 319 312 310 315 315 317 315 314 310 311 309 310 311 305 306 308 305 307 307 300 313 304 306 302 307 306 319 320 320 322 323 321 322

GFSGBSN_sfc_thetae_099.txt.gz
Theta_e
327 327 327 326 325 324 323 322 322 322 322 322 321 321 321 321 321 322 322 322 322 321 321 321 321 323 321 312 310 336 349 347 335 329 325 329 326 318 312 313 315 312 313 314 315 314 314
327 327 326 325 325 324 322 322 321 321 321 321 321 321 321 321 321 321 321 321 321 320 321 321 322 323 314 304 325 333 329 327 325 328 328 329 324 320 315 314 311 313 312 313 314 314 315
327 326 326 325 325 324 322 322 322 321 321 321 320 320 320 320 320 320 320 320 320 320 320 321 323 323 314 312 323 332 330 325 323 322 322 325 323 316 315 310 315 312 307 310 312 312 311
326 326 325 325 324 323 322 322 322 321 321 320 320 320 319 319 319 319 319 318 319 320 322 324 327 320 309 323 320 320 320 322 326 323 322 324 316 310 309 311 309 305 303 298 308 311 313
326 325 325 324 324 322 321 321 321 320 320 319 319 319 319 318 318 318 317 316 319 322 324 327 317 313 313 322 314 315 314 313 314 320 321 322 313 306 308 302 298 300 296 299 304 312 311
325 325 325 324 323 322 321 320 320 319 319 318 318 318 318 318 317 316 315 316 324 323 320 323 321 311 318 315 315 316 316 317 314 312 312 311 306 303 303 298 292 296 297 301 302 309 310
325 324 323 323 322 321 320 319 319 318 317 316 316 316 316 317 316 315 311 314 310 310 311 311 310 315 315 316 318 315 317 314 312 309 302 307 299 299 304 306 306 305 303 302 305 309 305
324 323 322 322 321 320 319 318 318 317 317 316 316 316 316 316 315 314 313 309 308 309 302 311 312 313 315 314 311 315 316 308 308 302 306 302 298 305 309 308 306 304 302 301 305 308 305
323 322 321 321 320 319 318 318 317 317 317 316 316 316 316 315 314 316 316 312 316 312 301 309 314 311 310 311 310 312 313 311 307 305 305 301 305 311 308 305 304 300 298 299 300 304 304
322 321 320 320 319 318 318 317 317 317 316 316 315 316 315 313 313 315 315 316 315 313 297 307 307 310 311 310 307 317 316 312 307 303 305 303 309 308 306 304 303 294 305 304 302 299 292
321 320 320 319 319 318 317 317 316 316 315 315 315 315 314 313 311 314 314 315 314 310 294 308 307 315 308 306 309 312 317 310 305 305 304 302 305 305 305 305 307 301 306 303 302 297 293
321 321 320 319 319 318 317 316 316 315 315 314 314 314 314 314 312 317 321 315 311 298 295 305 309 307 305 307 309 312 311 312 312 307 307 306 312 309 307 310 309 309 304 303 302 295 287
321 321 320 319 318 318 316 316 315 315 314 314 313 313 312 315 310 317 318 311 298 295 311 303 303 305 304 304 306 308 308 303 300 296 298 304 307 309 311 305 308 305 297 290 289 289 288
321 321 320 319 318 317 316 315 315 314 313 313 312 312 315 317 317 318 313 304 296 306 304 308 306 305 302 304 305 307 303 301 306 303 298 297 296 305 309 304 301 301 296 290 285 287 292
321 320 320 319 318 317 316 315 315 313 313 312 311 317 318 319 320 318 307 298 301 305 306 305 305 303 303 305 305 304 303 302 304 305 296 295 297 308 308 309 306 301 296 300 293 294 292
321 321 320 319 318 317 316 316 315 313 313 312 310 314 317 321 320 312 303 299 304 308 308 306 300 304 301 303 302 302 302 304 305 308 305 300 294 303 308 308 307 301 307 296 296 288 286
318 320 320 319 318 317 317 316 314 312 312 312 313 312 317 319 315 307 298 302 307 311 310 305 302 302 303 303 303 301 302 307 308 306 305 300 298 298 303 299 298 300 299 299 297 295 288
316 318 320 319 318 318 317 316 314 311 311 314 313 307 318 318 305 306 302 308 307 308 309 308 308 306 304 304 302 303 303 306 309 307 301 303 296 293 297 304 307 303 302 300 292 291 292
314 316 318 319 318 318 317 316 314 311 312 311 308 311 321 316 299 302 307 308 310 307 306 306 305 309 308 304 300 305 307 311 311 307 302 304 295 290 294 300 305 302 303 301 300 298 293
311 313 315 317 318 318 318 316 314 312 313 312 309 307 313 314 311 306 305 306 305 311 308 309 306 306 304 303 305 303 305 311 311 309 320 310 298 295 290 295 301 299 302 303 298 294 294
310 312 314 315 317 318 318 317 315 313 312 312 313 310 311 304 306 306 306 306 304 302 308 308 305 306 303 299 302 302 306 307 310 317 308 302 294 297 299 302 303 303 302 303 300 301 295
309 310 312 314 316 318 318 317 315 313 311 311 307 310 311 307 308 306 304 305 305 305 305 304 303 305 304 300 301 300 303 302 302 306 302 301 295 298 298 304 305 302 305 307 307 306 305
308 309 309 311 314 316 318 317 316 313 311 311 318 317 312 306 306 305 304 306 306 307 308 308 306 303 302 304 305 304 303 303 303 300 299 298 297 296 294 303 302 297 305 306 308 308 309
308 308 308 310 312 314 318 318 316 313 311 311 312 312 308 302 304 304 306 307 306 308 305 307 306 303 307 309 307 305 304 303 304 304 304 299 299 301 297 298 290 302 310 310 307 310 311
307 308 308 308 310 312 314 318 316 315 313 311 313 310 309 302 305 305 306 306 308 309 307 307 308 309 309 305 299 297 298 299 302 305 307 311 305 299 295 294 299 305 308 306 306 306 313
307 307 307 307 309 311 313 317 316 314 313 311 312 314 310 305 303 308 305 306 303 303 304 307 312 311 308 302 297 292 290 296 298 305 310 310 310 302 298 292 292 303 310 316 313 299 314
308 307 308 307 308 310 312 315 317 315 312 311 312 316 313 307 309 309 304 304 308 305 303 306 308 307 308 299 295 293 293 299 295 299 299 302 302 298 298 296 300 311 311 315 300 302 314
308 307 309 307 308 309 311 314 317 315 314 312 311 315 312 307 308 311 310 306 307 306 301 306 305 306 303 298 296 297 296 300 300 304 300 300 297 297 300 295 294 316 315 306 310 314 317
308 308 308 308 306 308 310 313 316 315 315 314 308 315 316 311 308 313 313 313 310 311 307 307 305 306 306 302 302 302 299 303 300 297 309 299 303 300 300 299 312 316 313 319 316 313 317

GFSGBSN_sfc_thetae_102.txt.gz
Theta_e
327 326 326 325 324 324 323 322 322 322 321 321 321 321 321 321 321 321 322 322 321 321 321 321 321 322 319 308 307 327 347 346 330 324 320 320 323 320 312 312 312 308 310 311 311 311 312
326 326 326 325 324 324 323 322 322 322 321 321 321 321 320 321 321 321 321 320 320 320 320 321 321 322 311 301 316 335 327 326 324 322 324 324 324 322 313 311 307 310 308 307 309 310 311
326 325 325 324 324 323 322 322 322 321 321 320 320 319 319 320 320 320 320 320 319 319 320 321 322 322 314 309 319 329 324 319 320 321 320 323 322 310 307 306 310 306 302 305 307 307 307
325 325 324 324 324 323 322 322 321 320 320 318 317 317 317 317 319 319 319 318 318 319 321 322 324 320 304 320 317 326 324 324 323 319 320 322 320 308 304 308 305 302 298 294 304 307 308
325 324 324 324 323 322 321 320 320 319 318 317 317 317 317 317 318 318 317 317 319 322 324 326 315 311 309 326 312 312 317 315 312 320 318 323 314 304 306 300 296 296 293 295 300 308 306
325 324 323 323 322 321 320 319 319 319 318 318 317 317 317 317 317 316 316 317 321 321 321 323 321 308 314 315 312 313 312 312 310 309 310 309 304 299 298 297 291 294 294 296 298 306 305
323 323 322 322 321 320 319 319 319 318 318 317 317 317 317 317 316 316 312 309 303 303 306 308 308 312 314 315 315 312 314 312 310 306 299 303 297 294 298 300 304 301 298 298 303 306 301
323 321 321 321 320 319 319 318 318 318 317 317 316 316 316 316 315 314 309 304 304 306 300 308 309 309 313 313 308 311 314 306 305 300 302 299 295 302 304 305 304 303 299 298 301 304 300
322 321 320 320 319 319 318 318 317 317 317 316 316 315 315 315 314 311 308 306 310 305 296 304 309 308 308 309 307 309 310 308 304 300 300 296 301 308 306 303 301 297 295 296 297 300 299
321 320 319 319 319 318 318 317 317 317 316 315 315 315 314 313 308 309 311 311 309 307 295 303 304 308 308 307 304 314 312 309 305 300 302 299 305 305 303 303 301 293 303 302 300 296 291
321 320 320 319 319 318 318 317 317 316 315 314 314 314 314 313 305 306 315 314 311 305 291 308 304 312 305 305 306 309 314 307 303 303 301 300 303 303 303 303 305 299 304 301 300 295 290
321 321 320 319 319 318 317 316 316 316 315 314 314 314 313 310 305 309 313 310 306 297 293 303 305 302 301 303 306 309 309 309 308 304 303 303 308 305 304 307 306 307 301 299 297 292 288
322 321 320 319 319 318 317 316 316 315 315 313 313 312 312 313 302 309 308 305 296 292 305 300 299 300 299 301 303 305 303 300 297 293 293 301 304 306 307 301 304 302 295 289 286 287 287
322 321 320 319 318 317 316 316 316 315 314 312 311 311 312 313 310 310 306 300 292 303 300 303 302 301 298 300 302 303 301 298 303 299 295 293 294 302 306 302 298 298 295 288 283 284 290
319 320 320 319 318 317 316 316 315 315 313 312 311 308 309 313 315 309 302 293 295 299 304 302 301 298 299 303 301 302 299 299 302 300 294 292 295 304 306 306 302 298 293 296 291 291 289
316 318 319 320 319 317 316 316 315 314 312 312 305 306 308 316 313 305 297 294 297 304 304 303 296 299 296 299 299 298 299 302 303 304 300 296 291 299 306 305 303 298 300 294 292 285 285
314 315 315 318 319 317 317 316 315 313 311 311 307 303 310 311 308 299 292 294 302 308 306 301 299 297 299 299 298 298 298 304 305 303 303 298 294 296 300 296 296 297 294 296 293 291 286
311 311 313 316 318 318 317 315 314 311 310 309 304 299 313 310 300 295 294 301 306 305 305 302 303 302 300 301 298 299 300 303 307 304 300 299 293 289 295 302 305 299 298 295 290 290 290
309 310 311 312 315 318 317 316 314 311 310 305 299 301 312 308 293 292 298 304 305 304 303 301 301 303 302 298 296 301 303 308 309 304 299 299 292 287 291 294 300 297 299 296 294 292 290
309 309 310 311 314 315 317 316 314 312 311 305 301 298 304 304 300 298 297 299 301 308 304 304 302 302 299 297 298 298 301 308 309 307 321 306 292 291 287 292 296 295 299 302 297 288 291
309 308 309 309 312 315 315 317 315 313 311 306 302 301 301 296 299 299 297 299 300 300 303 301 299 301 298 292 296 297 300 303 306 314 303 298 291 292 295 298 299 299 300 303 298 298 295
308 308 308 309 309 312 314 317 316 313 310 305 298 302 303 300 300 299 298 296 301 303 300 302 298 301 298 293 294 293 295 294 297 300 295 296 291 292 292 299 300 299 306 306 306 305 306
307 307 308 308 308 310 312 316 316 313 308 303 307 306 303 300 298 296 296 300 302 303 303 303 301 298 298 299 300 298 297 297 298 295 294 293 291 289 287 295 297 295 302 305 307 307 307
307 307 307 308 308 309 311 314 317 314 309 303 304 303 299 297 298 298 303 304 302 303 300 304 302 297 302 304 301 300 298 297 298 298 296 293 291 292 290 293 288 298 308 309 307 308 311
306 306 307 307 307 308 310 313 316 315 313 304 306 302 300 295 300 302 303 301 302 301 301 302 305 305 303 300 294 292 292 293 297 299 298 297 293 292 293 291 297 304 306 306 303 303 313
306 306 307 307 307 307 309 311 314 316 313 308 306 309 300 297 298 306 302 301 296 296 299 302 307 306 302 296 293 286 286 290 291 295 305 305 303 300 297 291 289 300 310 314 312 297 312
308 307 306 307 307 307 308 310 313 316 313 307 307 310 305 300 304 303 299 298 301 297 296 298 302 302 300 292 290 288 288 293 289 290 292 297 297 296 298 293 298 308 313 315 296 298 312
308 308 308 307 307 307 307 309 312 316 315 309 305 309 303 299 302 306 307 301 300 299 295 298 298 299 298 293 292 291 289 293 295 298 298 295 293 293 294 290 290 313 314 304 305 310 314
308 307 307 308 307 307 307 308 311 314 315 313 305 311 312 302 303 308 310 311 308 307 300 298 298 297 299 295 296 295 294 295 294 292 301 296 300 297 296 295 305 310 313 315 315 313 314

GFSGBSN_sfc_thetae_105.txt.gz
Theta_e
326 326 326 325 324 324 323 322 322 322 321 320 319 319 318 319 319 321 321 321 321 320 320 321 321 322 317 304 305 325 350 349 327 319 315 315 318 316 313 312 311 307 307 307 309 307 307
326 325 325 324 324 323 322 322 322 321 319 318 317 317 318 318 319 319 320 320 320 320 320 320 321 321 308 297 311 330 323 319 318 321 320 319 323 323 313 307 304 307 306 305 305 307 307
325 325 324 324 324 323 322 321 321 320 320 319 319 318 318 319 320 320 320 319 319 319 320 321 321 320 311 303 317 328 317 314 319 319 319 323 322 313 307 302 307 304 301 302 305 304 304
325 324 324 323 323 322 321 320 320 320 319 319 319 318 318 318 319 319 319 318 318 320 320 321 323 318 301 315 316 322 319 320 321 317 317 318 318 310 302 305 304 300 296 293 302 304 305
324 323 323 322 322 321 320 320 319 319 319 318 318 318 317 317 318 318 317 317 322 322 324 324 313 309 307 324 313 314 321 318 317 317 317 322 313 305 303 298 295 296 291 294 299 306 304
323 323 322 321 321 320 320 319 319 319 318 318 317 317 316 317 317 316 316 317 324 321 322 323 320 306 312 312 313 311 313 318 308 307 307 308 302 299 296 295 290 293 292 294 296 302 304
322 322 321 320 320 320 319 319 319 318 318 317 317 316 316 316 316 315 312 306 302 301 304 302 307 310 311 315 314 310 312 310 307 304 298 301 296 294 296 298 299 299 296 296 301 305 300
322 321 321 320 320 319 319 319 318 318 318 317 316 315 315 315 315 314 308 304 302 304 299 305 306 307 310 310 306 308 311 305 304 298 300 297 294 300 302 301 299 298 296 297 300 303 299
321 321 320 320 319 319 318 318 318 317 317 317 315 315 315 314 313 310 308 305 307 305 295 302 306 305 306 308 305 306 309 305 302 299 298 295 300 305 303 301 298 295 294 294 296 298 298
321 320 320 320 319 319 318 318 317 317 317 316 315 314 314 312 306 306 309 311 310 304 295 302 303 308 306 306 303 311 311 307 302 299 299 297 302 304 302 301 299 291 300 300 299 295 291
321 321 320 320 319 319 318 317 317 317 316 316 315 314 313 312 303 303 310 308 308 304 290 306 303 309 303 302 304 307 311 305 301 301 300 299 301 301 300 301 302 298 302 300 300 294 290
322 321 320 320 320 319 317 317 316 316 316 315 313 313 313 309 304 308 309 306 304 296 291 301 303 301 299 300 304 307 306 307 306 302 301 300 306 303 301 305 304 304 300 296 293 290 287
319 320 320 320 319 319 317 316 316 316 315 314 312 311 311 312 303 307 306 304 295 292 302 299 297 299 296 298 301 303 302 298 296 294 292 299 301 303 305 300 302 299 292 287 287 287 286
316 317 318 318 319 318 317 317 316 315 315 312 310 311 311 312 308 309 304 300 290 300 298 301 300 299 297 299 300 302 299 295 301 297 293 292 292 300 304 300 296 295 292 287 283 284 288
312 314 316 316 317 317 317 317 316 315 313 311 310 307 307 310 313 306 300 292 293 298 301 301 299 296 297 300 299 300 297 298 300 298 292 291 293 303 305 303 300 295 290 293 290 288 286
311 311 313 313 315 317 317 317 316 315 312 310 305 304 306 312 311 302 295 293 295 302 303 300 294 297 294 297 297 297 297 301 301 302 299 295 290 297 304 302 301 296 299 293 290 284 283
310 310 310 311 313 315 317 316 315 314 310 309 304 303 309 308 304 298 291 292 299 306 305 299 297 296 297 297 296 295 297 302 303 302 300 296 293 294 298 295 294 295 294 294 291 289 285
309 309 309 310 310 313 315 316 314 312 309 306 299 298 308 307 298 291 292 297 303 304 303 300 301 300 297 298 296 297 298 301 306 303 297 297 291 288 293 299 302 297 295 293 288 288 288
309 308 309 309 309 313 314 314 314 311 309 304 296 298 309 306 294 292 297 301 303 303 302 299 299 302 300 296 293 299 301 306 306 303 297 298 290 286 290 294 297 295 296 294 292 289 288
308 308 308 308 309 309 313 313 314 313 310 303 299 297 302 301 297 296 295 297 299 306 302 301 299 300 297 295 297 296 299 305 308 307 315 305 290 290 287 291 294 294 296 297 294 287 288
307 308 308 308 308 309 310 313 315 314 311 303 300 299 300 295 298 297 296 297 298 298 303 301 299 297 295 290 292 293 296 298 302 310 301 296 291 292 293 295 296 296 297 299 299 296 294
307 307 307 307 308 308 309 312 313 314 309 302 295 300 301 299 297 297 296 295 298 300 298 299 295 298 296 292 293 291 293 293 294 297 294 293 290 291 290 296 296 296 298 303 304 304 303
306 306 307 307 307 307 308 310 312 313 307 300 303 302 301 299 296 295 295 298 300 300 301 301 299 296 296 297 299 299 298 296 296 294 292 292 290 287 285 292 295 291 298 302 303 305 304
306 306 306 306 307 307 307 309 311 313 308 304 301 300 298 295 296 297 301 302 301 301 298 302 301 296 301 302 300 296 295 295 296 295 294 290 289 289 285 290 285 296 307 307 305 308 309
306 306 306 306 307 307 307 308 310 312 312 306 307 304 302 295 298 300 301 300 300 299 299 300 304 304 300 297 293 290 291 291 294 297 298 293 289 287 287 289 295 302 305 304 301 302 311
307 306 306 306 306 306 307 307 309 311 312 309 307 309 303 297 296 304 301 300 295 294 297 300 305 304 299 293 291 286 285 287 289 293 301 300 294 292 293 289 289 299 310 312 310 296 310
308 308 308 306 306 306 306 307 308 310 311 309 306 310 305 301 305 302 298 297 299 296 294 296 301 300 297 291 289 287 287 292 288 287 290 293 295 293 292 292 298 307 312 314 295 295 309
309 308 308 308 307 306 306 306 308 310 312 309 303 309 303 299 302 304 305 300 299 297 294 297 297 296 295 291 290 290 288 291 292 295 294 294 292 290 292 291 290 312 311 301 302 308 312
309 308 308 308 307 308 306 306 307 309 312 313 304 311 310 300 298 305 308 309 307 305 299 297 296 295 297 293 293 293 292 293 293 290 298 292 297 294 296 297 305 308 309 312 312 312 315

GFSGBSN_sfc_thetae_111.txt.gz
Theta_e
325 324 324 323 323 322 322 322 322 322 321 321 321 321 321 321 320 320 320 320 320 319 319 319 318 320 320 308 307 337 350 347 337 322 316 314 314 316 316 318 316 313 313 312 313 312 311
324 323 323 323 322 322 322 322 322 321 321 321 321 321 320 320 319 320 320 320 320 319 318 318 319 321 313 304 315 336 331 325 323 319 316 319 318 324 319 314 310 311 311 310 311 311 311
323 323 323 323 322 322 321 321 321 321 321 320 320 320 320 319 319 319 319 319 319 320 320 320 321 321 311 307 323 329 323 319 322 322 318 322 330 321 315 312 310 309 307 309 309 310 310
323 323 322 322 322 321 321 321 321 321 320 320 320 320 319 319 318 318 318 318 322 322 320 322 323 321 308 315 326 322 320 321 321 322 322 323 325 318 313 311 309 306 306 304 309 310 310
322 322 322 322 322 321 321 321 320 320 320 319 319 319 319 318 317 317 317 318 324 324 323 324 320 316 313 324 319 320 321 319 323 322 322 322 318 312 311 307 305 306 301 302 305 309 309
323 323 323 323 322 321 321 320 320 319 319 319 319 318 318 317 316 316 316 318 324 324 324 325 322 312 317 313 317 314 322 319 314 313 312 312 312 312 308 307 299 300 301 303 302 307 308
323 323 322 322 322 321 320 320 320 319 319 318 318 318 317 316 315 315 315 313 311 310 310 306 309 312 314 315 316 313 319 319 312 311 306 307 306 304 305 305 304 303 301 301 305 307 305
322 322 321 320 320 320 319 318 319 319 319 318 318 317 316 315 314 314 314 312 310 310 305 308 307 308 311 313 309 311 316 310 308 305 305 306 304 306 305 304 302 302 302 303 306 305 306
321 320 320 318 318 318 318 317 318 318 318 317 317 317 315 313 313 313 313 312 313 309 304 307 308 308 310 311 309 310 313 310 307 304 304 303 305 307 306 305 303 303 303 303 302 305 305
317 317 317 318 318 317 316 317 317 317 317 317 316 316 313 311 314 311 313 313 312 310 305 306 309 310 310 310 308 313 314 312 307 304 304 304 306 306 306 305 304 303 305 304 303 303 300
313 313 313 315 316 316 316 316 316 316 316 316 316 315 312 312 313 311 310 313 312 310 296 307 308 314 309 308 308 309 313 311 306 305 306 303 305 304 304 305 306 303 306 305 304 303 301
311 311 311 312 313 314 315 315 315 315 316 316 315 314 312 312 311 314 314 313 312 304 295 303 307 306 306 307 307 309 310 312 310 306 306 305 309 308 306 307 306 307 305 303 303 302 297
310 311 311 311 311 311 313 314 315 314 315 315 314 311 312 314 313 315 314 313 303 299 306 302 303 305 304 305 306 306 306 306 304 301 301 305 305 307 308 305 306 306 303 297 296 296 295
310 310 310 310 310 309 311 314 314 314 314 314 311 310 313 315 317 316 312 309 298 301 301 305 303 304 303 304 305 304 303 304 306 304 303 300 298 305 308 305 303 302 301 297 290 293 295
309 309 309 309 309 309 310 312 313 313 314 313 309 314 315 315 317 312 310 300 301 301 304 303 303 302 302 304 304 305 304 303 305 306 302 300 299 306 307 307 306 302 302 302 298 297 296
308 308 309 308 309 308 309 310 312 313 313 311 309 309 313 314 315 310 306 297 302 305 306 304 300 302 300 302 303 304 303 305 304 306 307 304 300 304 305 307 308 306 306 299 302 292 290
308 308 308 308 308 308 308 309 311 312 312 309 309 309 315 313 311 309 302 301 302 307 306 304 302 301 302 302 303 302 302 306 307 306 308 305 303 302 305 303 302 303 302 301 301 299 293
308 308 308 308 308 308 308 308 309 310 310 308 307 303 314 313 308 300 303 302 301 306 307 304 305 304 303 302 302 303 303 305 309 308 304 304 304 300 301 304 305 304 303 302 297 295 299
308 308 307 307 308 307 308 308 309 310 310 307 305 305 315 312 303 304 304 304 305 305 306 305 303 304 304 303 301 303 304 307 309 308 306 306 302 297 299 302 304 302 303 303 301 300 296
307 307 307 307 308 307 307 307 309 309 310 308 305 303 311 309 305 304 303 302 302 307 305 306 304 304 304 302 304 303 303 305 306 309 312 311 302 301 296 299 303 300 301 303 301 295 296
307 307 307 307 307 307 307 307 309 309 310 308 304 303 304 304 305 304 303 302 301 302 306 305 304 302 302 301 301 301 302 303 304 310 306 307 300 302 301 302 302 301 300 301 299 299 297
308 307 307 307 307 307 307 307 307 308 309 308 304 305 307 306 304 303 300 302 301 303 303 302 301 303 302 301 302 301 302 302 302 304 304 303 299 300 298 301 300 298 300 300 300 301 301
309 308 308 308 308 307 307 307 307 307 308 307 307 307 306 302 303 302 303 303 302 304 305 305 304 302 301 302 305 305 307 305 305 303 301 300 300 297 293 297 297 294 299 300 302 307 308
309 309 308 307 306 306 306 307 307 308 308 308 307 306 302 300 302 304 303 304 304 304 303 305 306 303 305 309 306 305 305 304 303 303 302 301 298 298 295 296 289 299 310 310 308 310 313
310 309 308 308 307 306 306 306 307 308 308 308 309 306 304 299 302 303 304 304 306 306 304 304 306 308 309 305 303 300 301 301 300 304 305 301 300 297 294 294 297 301 309 308 305 306 312
309 309 308 308 308 307 306 306 306 306 308 309 310 311 304 300 299 304 304 305 303 304 304 305 308 311 306 304 301 296 294 297 296 299 305 300 301 298 298 293 291 304 311 315 314 303 313
309 309 309 308 308 307 306 306 306 306 307 308 309 311 305 299 304 305 303 303 306 303 302 303 305 306 305 302 298 296 295 299 294 295 297 303 304 299 299 298 302 309 313 316 300 303 313
309 308 308 308 308 307 307 305 305 306 307 308 308 311 306 300 302 306 307 306 305 304 301 305 304 302 304 300 298 298 297 299 297 300 302 301 300 301 301 298 295 313 314 306 312 317 316
309 309 309 309 308 308 307 307 305 305 305 308 304 312 310 302 302 307 308 309 308 309 306 306 304 302 306 303 303 303 300 300 300 296 306 300 304 301 304 303 311 315 315 319 319 318 319

GFSGBSN_sfc_thetae_114.txt.gz
Theta_e
324 324 323 323 323 322 322 322 322 322 322 322 322 322 322 322 322 321 321 321 321 320 319 319 319 319 323 315 313 335 350 348 337 324 322 319 318 318 316 318 319 316 316 316 317 317 317
323 323 323 323 323 322 322 322 322 322 322 322 321 321 321 321 321 320 320 321 320 320 319 318 319 321 321 309 321 331 330 332 330 323 320 320 318 323 321 318 315 316 315 315 316 315 315
323 323 323 323 323 323 322 322 322 322 321 321 321 321 321 321 320 320 320 319 321 321 321 321 321 325 316 313 327 330 327 325 326 324 319 322 329 327 321 315 316 315 311 314 314 315 314
323 323 323 323 323 323 322 322 322 322 321 321 320 320 320 320 319 319 319 319 323 322 321 322 323 326 314 320 331 326 324 324 326 326 325 328 330 324 318 318 315 311 312 309 313 314 314
323 322 323 322 322 321 321 320 320 320 320 320 320 320 319 319 318 317 317 318 324 324 324 324 327 323 314 322 322 327 325 322 326 327 326 325 325 319 317 313 310 311 308 307 309 313 313
323 323 322 322 321 321 320 319 319 319 319 319 319 319 318 318 317 316 316 318 324 324 327 328 326 319 320 317 320 322 327 324 318 320 319 319 318 315 313 311 306 305 306 308 307 311 312
322 322 321 320 319 319 318 318 318 319 318 318 319 318 318 317 315 315 318 322 319 318 316 312 315 316 318 319 320 319 323 322 317 315 311 313 310 310 309 311 310 308 307 306 309 311 311
319 318 318 318 319 318 318 317 317 317 317 317 318 318 317 316 314 315 320 317 314 315 312 314 313 313 316 317 313 316 323 315 313 310 311 310 309 311 311 310 309 309 307 308 310 311 311
314 314 314 315 315 316 316 316 316 316 316 316 317 317 316 314 314 319 319 315 319 318 313 313 314 313 315 316 313 314 318 315 312 309 309 309 310 312 311 309 309 309 308 307 307 310 313
313 312 312 313 313 314 315 315 316 316 315 315 316 316 315 311 318 321 319 319 322 319 311 309 312 314 315 316 312 317 319 315 312 309 309 309 312 310 310 308 310 307 310 308 308 307 305
312 312 312 312 312 311 312 314 315 315 314 315 316 316 313 311 322 318 318 323 321 316 301 310 312 319 315 312 314 313 318 315 310 309 310 308 308 308 308 307 310 308 311 309 309 307 307
311 311 311 311 311 311 310 312 314 314 314 314 315 314 312 320 323 320 322 322 318 308 300 306 311 310 310 311 311 314 314 316 315 310 310 309 313 311 310 310 310 311 310 311 309 307 301
310 310 310 310 310 310 310 310 312 313 313 314 313 312 314 321 321 325 325 319 308 303 309 306 308 310 310 309 310 310 310 310 308 305 306 309 309 312 312 309 312 311 308 302 300 301 300
310 310 310 309 309 309 309 310 311 312 313 313 311 310 317 322 324 324 321 312 302 306 306 310 309 310 308 309 309 308 308 308 310 309 307 304 302 309 311 309 307 307 307 301 294 297 301
309 309 309 309 309 309 309 309 310 311 312 312 310 323 324 324 325 321 315 305 306 307 308 307 308 307 307 309 309 309 308 308 309 311 306 305 304 310 310 312 311 308 309 308 303 305 300
309 309 309 308 308 308 308 309 310 311 311 311 317 317 323 324 325 318 311 302 308 310 310 309 305 307 306 307 308 308 308 310 309 311 314 310 304 309 309 311 311 310 311 304 307 297 295
309 308 308 308 308 308 308 308 309 310 310 310 317 311 321 324 321 315 305 307 308 311 311 308 307 306 307 306 308 307 307 310 311 311 314 312 308 307 309 309 307 307 306 306 305 303 297
308 308 308 308 308 308 308 308 308 309 308 314 316 306 322 324 311 314 307 309 302 310 312 309 310 309 308 308 307 307 307 310 312 313 308 312 309 304 306 310 310 309 307 307 301 300 303
308 308 308 308 308 307 308 307 307 308 308 311 310 311 325 321 304 306 310 309 310 309 309 309 308 309 310 308 305 307 309 311 313 312 311 312 307 301 304 307 310 306 308 309 308 306 301
308 308 308 308 308 309 308 307 307 308 308 312 312 306 316 319 317 310 307 307 307 311 309 310 309 310 309 307 310 307 308 309 311 312 314 313 308 305 299 303 307 304 305 307 306 301 301
310 309 308 308 308 308 309 309 307 308 309 313 315 309 312 310 311 312 310 308 306 306 310 311 309 308 308 306 307 306 308 308 309 310 311 310 304 306 306 305 305 304 304 304 303 304 300
310 310 309 309 308 308 308 308 308 308 307 314 309 310 315 310 311 310 304 308 306 307 308 307 307 307 308 307 308 306 307 308 307 310 309 309 303 305 302 304 304 301 303 304 303 304 303
310 310 310 309 308 308 307 308 307 307 308 313 315 316 311 304 306 306 307 308 307 309 310 310 309 308 307 308 310 311 312 311 311 309 308 306 304 302 298 302 301 298 302 303 304 306 307
309 310 309 308 309 307 307 307 308 307 307 309 313 313 306 300 305 304 306 307 307 309 308 310 311 309 311 315 313 312 311 311 311 310 310 306 306 303 298 301 292 304 311 311 308 311 314
309 309 309 309 308 307 306 307 308 306 308 311 310 309 307 300 304 304 306 306 309 311 309 310 311 313 316 312 307 305 305 306 307 307 310 310 308 301 298 298 301 303 309 309 308 308 314
309 309 309 309 308 308 306 306 306 307 307 310 312 315 306 302 302 305 305 306 304 305 307 309 314 317 314 309 305 299 297 301 300 303 309 309 311 304 301 296 293 308 314 317 316 304 315
310 309 309 309 308 308 307 305 305 306 306 307 311 314 308 302 305 307 305 306 309 306 304 308 309 310 313 306 301 299 299 304 298 299 302 303 304 300 300 298 301 313 316 317 302 307 317
310 309 309 309 308 308 308 307 305 305 306 308 308 313 307 302 305 307 309 307 309 309 305 310 307 308 307 302 301 302 301 303 302 304 303 301 301 301 302 300 297 317 315 308 315 320 319
310 310 310 309 309 308 308 307 306 305 305 306 305 313 314 305 304 310 311 312 312 312 309 310 309 309 310 305 305 305 302 304 304 298 309 301 306 303 304 306 316 316 315 319 320 320 321

GFSGBSN_sfc_thetae_117.txt.gz
Theta_e
324 324 324 324 324 323 323 323 323 323 323 323 323 323 323 323 323 322 322 321 321 321 321 321 321 321 323 321 318 338 352 344 333 333 324 322 319 319 316 319 320 318 318 318 318 318 317
324 324 324 324 323 323 322 322 322 322 322 322 322 322 322 322 322 321 321 321 321 321 321 321 321 321 326 314 328 335 330 328 329 326 324 322 319 321 321 320 318 319 316 316 317 317 317
323 323 323 323 322 322 321 321 321 321 321 321 321 321 321 321 321 321 320 320 322 323 322 321 321 327 322 317 331 332 332 331 329 326 321 323 324 323 324 318 320 317 313 316 316 316 316
324 323 322 323 321 321 321 320 320 320 320 320 320 320 320 320 320 320 319 319 323 322 322 323 324 328 317 326 333 328 329 326 329 328 327 326 332 328 322 321 318 315 315 311 315 315 316
323 323 322 321 320 320 319 319 319 319 319 318 319 319 319 319 319 318 317 318 325 324 324 325 329 330 315 324 324 327 327 324 326 327 327 326 325 321 319 314 313 313 309 309 311 315 314
320 319 319 319 319 319 319 318 318 317 317 318 318 318 318 318 318 317 316 317 324 323 327 330 329 322 322 319 322 326 328 326 323 323 321 321 320 316 316 314 307 309 309 310 309 314 314
316 316 316 316 316 316 316 317 317 317 317 316 317 317 317 318 317 315 317 325 322 322 321 318 319 320 320 323 324 321 326 323 320 318 314 317 313 311 313 314 313 311 310 309 311 314 312
314 314 314 314 314 314 314 315 316 316 317 316 316 316 317 317 315 315 320 320 318 319 316 319 318 319 321 321 316 319 324 318 315 312 314 312 310 315 314 313 311 311 310 310 313 314 313
313 313 313 313 313 313 313 313 315 315 316 315 316 316 316 315 314 319 322 319 325 324 316 316 318 318 318 320 316 316 321 319 314 312 312 311 314 314 313 312 311 312 310 311 310 313 315
312 312 312 312 312 312 312 312 313 314 314 314 315 315 315 313 317 324 322 324 327 324 313 311 313 316 318 319 314 321 322 318 314 312 312 312 315 312 312 310 312 310 313 311 310 309 306
312 311 312 311 311 311 311 311 312 313 313 314 314 315 314 311 325 323 322 327 326 322 304 314 314 322 320 316 317 316 322 318 313 312 313 310 311 311 310 311 312 311 313 311 311 310 309
311 311 311 311 311 311 310 310 311 312 313 313 313 313 313 323 328 325 328 327 323 309 302 310 314 312 313 315 315 317 316 319 318 313 313 312 315 313 313 313 313 314 312 313 313 311 304
310 310 310 310 310 310 310 310 311 311 312 312 312 311 313 325 325 328 328 323 311 305 314 310 310 313 312 311 312 313 312 311 310 307 308 311 311 314 314 311 314 314 311 304 303 303 304
310 310 310 310 309 309 309 309 310 310 311 311 310 310 318 326 329 328 325 315 305 310 310 313 312 313 310 313 313 313 312 310 314 312 309 307 305 312 314 312 310 311 309 303 298 299 303
309 309 310 309 309 309 309 309 310 310 311 310 309 322 323 328 329 328 318 308 308 311 313 310 312 309 310 311 311 312 311 311 313 314 308 308 307 314 313 314 313 311 307 312 305 306 302
309 309 309 309 308 309 309 309 310 310 310 309 317 318 318 328 328 323 312 304 311 314 313 312 308 311 308 311 309 311 311 313 311 314 316 312 306 313 313 314 314 312 314 304 308 299 298
309 309 309 310 309 309 309 309 309 309 308 308 319 313 325 328 326 316 307 309 311 314 314 311 310 310 310 310 311 311 311 313 313 314 316 314 311 310 312 311 309 311 309 310 309 305 300
309 309 310 311 309 308 308 308 308 308 307 313 318 308 325 325 312 313 309 310 303 312 315 313 313 312 311 311 310 310 309 312 316 316 311 315 311 307 310 314 314 313 309 310 304 303 306
309 309 309 310 310 310 309 309 308 307 307 309 313 312 322 319 306 308 312 310 311 311 312 312 310 312 313 311 308 311 311 315 315 314 313 315 309 303 306 311 313 309 311 311 310 309 303
311 310 310 310 310 310 309 309 308 308 308 312 314 308 316 316 314 312 311 310 309 313 312 313 312 312 311 310 312 310 310 313 314 314 319 314 309 306 302 306 309 307 309 310 308 303 304
311 311 311 310 309 309 309 309 309 308 308 313 316 312 315 312 312 312 311 311 308 308 312 313 311 311 310 308 309 309 312 312 312 311 311 312 306 308 308 308 308 306 306 306 305 307 303
310 310 311 311 310 309 309 309 309 308 307 316 309 312 316 310 313 313 305 309 308 308 310 310 309 312 311 309 311 309 311 312 311 313 311 314 307 308 304 306 306 304 305 306 306 306 305
310 310 310 309 309 309 309 309 309 307 307 313 315 315 309 306 309 307 308 310 309 311 312 313 312 311 310 311 314 316 316 315 314 312 311 311 308 305 300 305 304 300 304 305 306 307 306
310 310 310 310 309 309 308 308 309 307 306 312 314 312 308 303 305 306 307 309 310 311 310 312 312 311 315 319 317 316 314 313 313 313 313 309 309 306 300 303 294 306 311 310 308 309 312
309 310 310 310 310 308 307 307 308 308 307 310 316 312 309 303 305 306 306 308 310 311 311 312 314 316 320 316 309 307 306 308 309 311 311 312 308 302 299 300 303 305 310 309 308 309 314
310 310 310 310 310 309 308 307 306 308 307 309 313 317 310 304 305 307 305 308 306 307 309 311 316 319 317 311 306 301 299 304 303 307 312 311 312 304 303 298 296 308 316 317 315 303 318
310 310 310 310 309 309 309 308 306 307 307 307 311 316 310 304 307 307 305 307 311 308 305 309 311 312 315 307 302 301 301 306 301 302 304 305 305 302 301 299 302 310 318 318 301 307 319
310 310 310 310 310 309 308 308 307 306 306 306 311 315 310 306 307 309 310 308 308 309 305 312 310 310 308 304 302 302 302 304 304 307 306 304 303 302 304 301 298 319 316 309 316 321 320
310 310 310 310 310 309 309 308 308 306 306 305 306 315 314 307 307 312 312 313 312 311 311 313 311 311 312 306 305 306 302 305 306 300 311 302 307 304 306 308 317 319 317 318 320 319 320

GFSGBSN_sfc_thetae_120.txt.gz
Theta_e
324 324 323 323 322 322 322 321 321 321 321 321 321 321 322 323 323 323 322 321 322 322 322 322 321 322 321 318 322 340 348 342 324 325 327 323 319 318 314 318 320 317 318 319 318 318 317
323 323 322 322 321 321 321 320 320 320 320 320 320 320 320 321 322 322 321 321 321 324 323 321 322 322 321 318 332 337 328 323 322 324 326 322 319 320 317 318 318 319 317 316 317 317 317
324 324 323 322 321 321 320 320 320 320 319 319 319 320 320 320 321 321 321 320 321 325 323 322 322 325 327 319 331 331 327 325 327 327 322 323 323 320 323 319 321 318 313 316 316 317 316
321 320 320 320 320 319 318 318 319 319 319 318 318 318 319 319 320 320 319 319 321 324 323 323 323 324 320 327 332 329 331 328 330 328 325 327 324 324 324 324 317 314 315 310 315 315 316
317 317 317 317 317 317 317 317 317 318 318 318 318 318 318 318 319 319 318 318 323 325 324 325 326 327 319 330 325 327 328 324 325 326 326 327 326 322 320 313 311 314 308 311 312 316 315
316 316 316 316 316 315 315 315 316 317 317 317 317 317 317 317 318 317 316 317 324 324 325 329 328 323 323 317 324 326 327 326 323 323 321 319 318 315 315 312 305 309 308 310 309 314 314
315 315 315 315 315 315 314 315 314 315 316 316 316 316 316 316 317 316 319 326 321 322 324 323 320 323 321 324 324 323 326 324 322 319 314 318 313 310 314 314 313 312 310 309 312 315 312
314 314 314 314 314 313 313 314 314 314 315 315 315 315 316 315 315 315 318 320 318 321 314 322 321 322 323 323 316 319 325 318 317 311 315 313 309 315 316 314 312 311 309 310 313 315 313
313 313 313 313 313 313 313 313 313 314 314 314 314 314 314 314 314 320 324 320 326 326 315 320 319 318 320 320 316 317 320 319 315 312 313 310 313 316 313 312 311 311 310 310 310 313 315
312 312 312 312 312 313 312 313 313 313 313 313 313 314 313 311 317 326 323 325 327 325 311 313 314 318 320 319 314 322 321 319 315 312 314 312 316 313 312 311 312 309 314 312 310 308 304
312 311 311 311 312 312 312 312 312 312 312 312 313 313 312 312 322 323 324 328 326 323 302 314 314 323 320 315 317 317 322 319 312 313 313 310 312 311 310 312 313 309 313 311 310 308 308
311 311 311 311 311 311 311 311 311 312 312 312 312 312 311 318 324 329 328 328 324 308 301 311 315 313 313 315 316 318 317 319 319 314 314 313 317 314 313 315 314 314 311 312 312 309 302
310 310 310 310 310 310 310 311 311 311 311 311 311 310 311 318 322 329 327 324 309 304 316 311 311 313 312 311 312 313 312 311 309 306 307 311 311 314 314 311 314 313 310 302 301 302 301
310 310 310 310 309 309 310 311 311 310 310 310 309 309 317 323 327 327 324 315 304 312 312 315 313 313 309 312 312 312 311 309 313 312 308 307 305 312 315 312 310 311 309 302 297 298 301
310 310 309 310 309 310 310 310 310 310 309 309 308 319 322 327 329 326 317 306 308 312 315 312 312 309 310 312 312 312 311 310 313 314 308 306 307 315 315 315 313 310 307 312 306 306 301
311 310 311 311 310 310 310 310 310 310 309 308 312 316 318 325 326 321 311 303 310 315 315 313 307 311 307 310 310 310 311 314 312 315 316 312 306 313 314 314 314 311 314 304 305 299 297
311 311 311 311 311 310 310 310 310 309 308 308 316 317 322 326 324 315 306 308 312 315 315 311 309 309 311 310 312 310 310 314 315 314 315 313 310 309 313 310 309 309 309 309 309 306 299
311 311 311 311 311 310 310 310 309 308 307 311 315 309 325 326 310 311 307 311 306 314 316 312 312 312 311 311 310 310 310 314 317 316 311 314 311 305 308 315 316 313 311 310 302 302 305
311 312 312 311 311 310 310 310 309 307 307 308 310 312 321 320 304 307 312 311 313 311 311 311 310 312 313 311 309 311 313 316 316 315 312 315 309 303 305 309 313 310 311 312 310 309 303
311 311 312 312 311 310 309 309 309 308 307 309 312 309 314 314 313 309 310 312 310 313 311 314 312 314 312 310 313 310 311 315 316 314 322 317 310 306 300 304 309 307 309 311 309 303 303
311 311 311 312 312 311 310 310 309 308 307 310 316 310 315 311 314 312 311 310 309 309 313 313 311 310 310 307 309 309 312 313 314 315 314 312 305 307 307 308 308 307 306 307 305 305 301
310 310 310 311 312 311 310 310 309 308 306 313 312 311 313 312 311 313 310 309 309 309 311 310 309 311 311 308 310 309 312 312 311 313 311 312 307 308 304 307 306 303 305 306 305 305 304
310 311 310 310 311 311 311 310 310 307 306 312 315 316 312 306 307 307 307 308 309 311 312 313 313 312 310 313 315 316 317 317 315 313 312 312 308 306 301 306 304 299 304 305 306 308 307
310 310 310 310 310 310 309 309 309 308 306 308 313 310 307 303 305 305 308 309 309 312 311 313 314 312 316 320 319 317 315 315 313 312 314 311 312 308 301 303 294 304 310 310 308 309 311
310 310 310 310 310 310 309 309 309 309 308 306 312 310 308 304 306 307 307 308 311 312 311 312 316 317 319 316 310 307 307 308 308 310 311 312 309 303 299 299 302 305 310 309 308 308 315
310 310 310 311 310 310 309 309 308 309 308 306 312 316 310 303 304 310 307 308 306 307 308 310 316 318 316 310 307 301 298 302 302 306 312 311 316 305 302 296 294 307 315 317 316 305 318
310 310 310 310 310 310 310 309 308 308 308 305 308 315 309 304 307 308 306 306 311 310 305 309 311 311 315 307 302 300 299 305 300 301 305 306 307 302 301 299 302 309 312 319 303 308 319
311 310 310 310 310 310 309 309 309 308 307 306 307 316 310 306 308 310 310 306 308 310 307 310 310 309 308 305 304 303 301 303 303 308 306 305 304 302 304 299 297 319 316 310 318 321 319
310 310 310 310 310 310 309 309 309 308 307 306 305 315 315 308 307 312 312 313 312 311 308 309 310 312 312 308 307 305 302 304 306 299 312 304 309 306 308 308 319 320 318 321 321 318 319

GFSGBSN_sfc_thetae_123.txt.gz
Theta_e
324 322 322 322 322 321 321 321 321 320 320 320 320 320 321 321 322 322 322 322 321 322 323 322 322 322 317 311 317 334 349 345 326 320 318 322 318 312 308 310 313 311 312 312 312 313 311
321 321 320 320 321 320 320 320 320 320 320 320 320 319 320 320 321 321 322 321 320 323 324 322 322 323 316 313 331 338 325 321 317 318 321 322 316 316 311 311 311 315 312 311 311 314 315
318 318 317 318 318 318 318 318 318 318 319 319 319 319 319 319 320 320 321 320 320 325 323 323 323 323 321 318 332 331 321 316 317 316 320 322 318 312 312 312 320 313 306 310 311 312 311
317 317 317 317 317 317 317 317 317 316 317 318 318 317 318 318 319 319 319 319 320 326 324 323 324 319 316 329 326 325 321 319 321 320 322 321 320 313 312 320 316 308 304 299 309 311 311
316 316 316 316 316 316 316 316 315 316 317 316 317 317 317 317 317 317 317 318 320 328 325 325 319 317 317 328 322 323 324 322 322 321 320 325 318 313 315 308 304 303 300 302 306 312 310
315 315 315 315 315 315 314 315 315 315 316 316 316 316 316 316 316 316 316 318 324 322 324 326 325 315 323 315 321 322 322 323 320 319 317 315 309 305 305 301 296 300 302 305 304 308 308
314 314 314 315 314 314 313 314 314 314 315 315 315 315 315 315 315 315 314 318 314 314 317 315 316 320 323 323 322 320 322 319 319 314 307 312 303 301 306 308 307 306 304 304 308 311 307
313 313 313 313 313 313 313 313 314 314 314 314 314 314 314 314 313 313 312 315 312 313 308 318 320 320 321 320 313 317 321 313 313 306 310 306 302 309 313 311 308 306 304 303 308 311 307
312 312 312 313 313 313 313 313 313 313 313 313 313 313 313 313 312 317 319 315 320 317 307 315 318 317 315 315 313 313 316 315 311 307 307 303 307 315 313 308 307 303 301 304 304 308 307
312 312 312 312 312 313 312 313 313 313 313 312 313 313 312 310 315 319 319 320 320 319 302 311 311 313 316 315 310 319 318 316 311 307 309 306 312 312 309 308 307 299 309 309 307 303 296
311 311 311 311 311 312 312 312 312 312 312 312 312 312 311 310 310 317 321 321 320 315 296 312 311 319 315 311 313 314 318 313 308 309 306 305 308 308 307 309 310 305 309 306 306 300 297
311 311 311 310 311 311 311 311 311 311 311 311 311 311 311 313 313 321 326 325 318 302 297 308 312 309 308 310 312 314 313 314 314 309 309 308 313 310 308 312 311 311 306 305 303 299 292
310 310 310 311 311 311 311 311 311 311 311 310 310 309 308 312 309 314 319 316 302 298 313 307 306 308 306 306 308 310 308 305 301 297 299 306 307 310 312 306 309 306 298 293 292 293 293
310 311 311 312 311 311 311 311 311 310 310 309 308 308 313 314 316 317 317 308 299 309 309 312 310 308 304 307 307 309 307 303 307 305 300 298 299 307 312 307 303 303 302 293 289 291 293
312 312 312 311 311 311 310 310 310 310 309 308 308 312 313 319 319 319 311 301 303 309 311 310 309 305 304 308 307 307 305 305 307 307 299 298 301 312 313 312 308 303 298 302 295 297 293
312 313 313 312 311 311 310 310 310 310 309 308 306 310 314 318 323 316 306 300 305 310 311 312 304 307 302 306 304 304 305 309 309 311 309 302 297 306 312 311 310 304 306 296 296 289 288
312 313 312 312 312 311 310 310 310 309 308 308 308 311 319 320 319 310 300 303 307 312 313 309 306 305 305 305 306 304 305 310 311 310 310 304 301 302 307 303 303 303 299 300 298 296 290
313 312 313 312 312 311 310 310 309 308 306 307 308 306 320 321 307 307 302 306 307 310 313 310 309 307 305 308 306 306 307 310 314 312 306 308 301 298 302 309 312 306 303 301 295 294 294
312 312 312 312 312 311 311 310 309 308 307 302 302 308 317 317 301 301 306 308 310 309 309 308 307 308 308 305 302 309 310 313 314 311 305 306 300 295 298 302 306 304 305 303 302 299 294
312 312 312 312 312 312 311 310 309 308 307 304 304 306 311 310 309 304 302 305 307 312 309 310 310 310 307 305 305 306 308 313 312 310 321 312 301 299 293 297 301 301 305 306 301 294 295
312 312 312 312 312 312 311 311 310 308 307 304 310 310 310 306 308 308 310 306 306 305 310 311 306 307 305 301 305 304 308 309 310 316 309 305 298 300 299 303 303 303 303 303 297 298 294
311 311 311 311 311 312 312 311 310 308 306 306 307 306 308 306 308 306 306 308 307 308 308 309 306 308 307 303 305 304 307 306 306 307 304 304 298 302 298 304 304 302 304 303 302 301 299
311 311 310 310 311 311 312 311 310 308 306 306 310 311 307 306 304 302 303 307 306 308 309 310 310 309 308 309 311 310 309 309 307 306 304 304 301 301 295 303 302 296 300 302 302 303 301
310 310 310 310 311 311 311 311 310 309 307 302 306 306 303 300 302 303 305 306 306 310 308 312 313 309 313 316 315 312 311 308 309 306 305 304 303 300 294 297 289 299 307 307 305 306 307
310 310 310 311 311 311 310 311 311 310 308 302 305 307 304 299 304 305 305 305 307 310 309 310 312 315 314 311 305 302 301 302 306 307 305 303 304 296 293 293 298 302 305 308 305 304 312
311 311 310 311 311 311 310 310 311 310 308 304 303 311 308 301 300 304 302 306 303 304 305 308 312 314 311 306 302 295 294 299 299 301 305 303 305 299 295 291 290 300 309 315 312 299 316
310 311 310 310 310 311 311 310 309 310 309 304 302 307 306 300 304 305 302 302 306 305 305 306 308 309 310 302 297 295 295 302 296 296 297 299 300 297 297 294 298 307 311 314 298 301 315
311 311 311 310 310 311 310 310 309 309 310 306 302 307 306 303 303 306 307 304 304 304 300 303 305 307 306 300 300 299 298 300 298 300 299 299 298 297 297 295 292 316 315 306 312 313 314
311 311 311 310 310 310 310 310 309 309 310 309 301 308 309 305 304 308 308 309 308 308 304 304 303 305 309 304 303 304 301 302 299 295 304 295 302 302 302 300 311 314 314 316 315 313 314